<?xml version="1.0" encoding="UTF-8" standalone="no" ?><gpx xmlns="http://www.topografix.com/GPX/1/1" xmlns:gpxx="http://www.garmin.com/xmlschemas/GpxExtensions/v3" xmlns:wptx1="http://www.garmin.com/xmlschemas/WaypointExtension/v1" xmlns:gpxtpx="http://www.garmin.com/xmlschemas/TrackPointExtension/v1" creator="GuideVTT.com" version="1.1" xmlns:xsi="http://www.w3.org/2001/XMLSchema-instance" xsi:schemaLocation="http://www.topografix.com/GPX/1/1 http://www.topografix.com/GPX/1/1/gpx.xsd http://www.garmin.com/xmlschemas/GpxExtensions/v3 http://www8.garmin.com/xmlschemas/GpxExtensionsv3.xsd http://www.garmin.com/xmlschemas/WaypointExtension/v1 http://www8.garmin.com/xmlschemas/WaypointExtensionv1.xsd http://www.garmin.com/xmlschemas/TrackPointExtension/v1 http://www.garmin.com/xmlschemas/TrackPointExtensionv1.xsd">
<metadata><link href="http://www.garmin.com"><text>Garmin International</text></link><time>2013-06-22T15:13:50Z</time></metadata>
<trk><name>00000_20110401.gpx</name><extensions><gpxx:TrackExtension><gpxx:DisplayColor>Cyan</gpxx:DisplayColor></gpxx:TrackExtension></extensions><trkseg>
<trkpt lat="42.289772" lon="3.279697"><ele>-50.5</ele><time>2011-04-01T08:47:04Z</time></trkpt>
<trkpt lat="42.289810" lon="3.279723"><ele>-50.5</ele><time>2011-04-01T08:47:08Z</time></trkpt>
<trkpt lat="42.289822" lon="3.279713"><ele>-50.5</ele><time>2011-04-01T08:47:13Z</time></trkpt>
<trkpt lat="42.290008" lon="3.279780"><ele>-50.5</ele><time>2011-04-01T08:47:18Z</time></trkpt>
<trkpt lat="42.290020" lon="3.279617"><ele>-50.5</ele><time>2011-04-01T08:47:23Z</time></trkpt>
<trkpt lat="42.290162" lon="3.279250"><ele>9.6</ele><time>2011-04-01T08:47:28Z</time></trkpt>
<trkpt lat="42.290237" lon="3.279200"><ele>13.5</ele><time>2011-04-01T08:47:33Z</time></trkpt>
<trkpt lat="42.290328" lon="3.279137"><ele>16.3</ele><time>2011-04-01T08:47:38Z</time></trkpt>
<trkpt lat="42.290447" lon="3.279032"><ele>15.4</ele><time>2011-04-01T08:47:43Z</time></trkpt>
<trkpt lat="42.290570" lon="3.278880"><ele>15.4</ele><time>2011-04-01T08:47:48Z</time></trkpt>
<trkpt lat="42.290742" lon="3.278748"><ele>12.2</ele><time>2011-04-01T08:47:53Z</time></trkpt>
<trkpt lat="42.290863" lon="3.278735"><ele>11.4</ele><time>2011-04-01T08:47:58Z</time></trkpt>
<trkpt lat="42.290902" lon="3.278688"><ele>16.2</ele><time>2011-04-01T08:48:03Z</time></trkpt>
<trkpt lat="42.290913" lon="3.278512"><ele>14.5</ele><time>2011-04-01T08:48:08Z</time></trkpt>
<trkpt lat="42.290772" lon="3.278400"><ele>20.7</ele><time>2011-04-01T08:48:13Z</time></trkpt>
<trkpt lat="42.290577" lon="3.278335"><ele>21.8</ele><time>2011-04-01T08:48:18Z</time></trkpt>
<trkpt lat="42.290352" lon="3.278248"><ele>22.4</ele><time>2011-04-01T08:48:23Z</time></trkpt>
<trkpt lat="42.290192" lon="3.278300"><ele>30.1</ele><time>2011-04-01T08:48:28Z</time></trkpt>
<trkpt lat="42.290032" lon="3.278233"><ele>31.3</ele><time>2011-04-01T08:48:33Z</time></trkpt>
<trkpt lat="42.289860" lon="3.278125"><ele>34</ele><time>2011-04-01T08:48:38Z</time></trkpt>
<trkpt lat="42.289673" lon="3.278090"><ele>35</ele><time>2011-04-01T08:48:42Z</time></trkpt>
<trkpt lat="42.289508" lon="3.277937"><ele>34.6</ele><time>2011-04-01T08:48:47Z</time></trkpt>
<trkpt lat="42.289387" lon="3.277748"><ele>33.3</ele><time>2011-04-01T08:48:52Z</time></trkpt>
<trkpt lat="42.289310" lon="3.277637"><ele>31.9</ele><time>2011-04-01T08:48:57Z</time></trkpt>
<trkpt lat="42.289207" lon="3.277638"><ele>24.4</ele><time>2011-04-01T08:49:02Z</time></trkpt>
<trkpt lat="42.289063" lon="3.277735"><ele>27.7</ele><time>2011-04-01T08:49:07Z</time></trkpt>
<trkpt lat="42.288913" lon="3.277825"><ele>36.7</ele><time>2011-04-01T08:49:12Z</time></trkpt>
<trkpt lat="42.288783" lon="3.277895"><ele>26.9</ele><time>2011-04-01T08:49:17Z</time></trkpt>
<trkpt lat="42.288665" lon="3.277877"><ele>25.4</ele><time>2011-04-01T08:49:22Z</time></trkpt>
<trkpt lat="42.288575" lon="3.277703"><ele>19.9</ele><time>2011-04-01T08:49:27Z</time></trkpt>
<trkpt lat="42.288475" lon="3.277473"><ele>15.7</ele><time>2011-04-01T08:49:32Z</time></trkpt>
<trkpt lat="42.288342" lon="3.277268"><ele>13.1</ele><time>2011-04-01T08:49:37Z</time></trkpt>
<trkpt lat="42.288212" lon="3.277125"><ele>11.7</ele><time>2011-04-01T08:49:42Z</time></trkpt>
<trkpt lat="42.288037" lon="3.277130"><ele>11.3</ele><time>2011-04-01T08:49:47Z</time></trkpt>
<trkpt lat="42.287845" lon="3.277212"><ele>12.2</ele><time>2011-04-01T08:49:52Z</time></trkpt>
<trkpt lat="42.287663" lon="3.277317"><ele>13.9</ele><time>2011-04-01T08:49:57Z</time></trkpt>
<trkpt lat="42.287548" lon="3.277612"><ele>30.1</ele><time>2011-04-01T08:50:02Z</time></trkpt>
<trkpt lat="42.287483" lon="3.277495"><ele>24.8</ele><time>2011-04-01T08:50:07Z</time></trkpt>
<trkpt lat="42.287492" lon="3.277145"><ele>18.5</ele><time>2011-04-01T08:50:12Z</time></trkpt>
<trkpt lat="42.287510" lon="3.276805"><ele>13.1</ele><time>2011-04-01T08:50:17Z</time></trkpt>
<trkpt lat="42.287537" lon="3.276517"><ele>11</ele><time>2011-04-01T08:50:22Z</time></trkpt>
<trkpt lat="42.287498" lon="3.276237"><ele>9.6</ele><time>2011-04-01T08:50:27Z</time></trkpt>
<trkpt lat="42.287347" lon="3.276045"><ele>8.4</ele><time>2011-04-01T08:50:32Z</time></trkpt>
<trkpt lat="42.287132" lon="3.276023"><ele>9.7</ele><time>2011-04-01T08:50:37Z</time></trkpt>
<trkpt lat="42.286922" lon="3.276070"><ele>12.3</ele><time>2011-04-01T08:50:42Z</time></trkpt>
<trkpt lat="42.286758" lon="3.276360"><ele>9.1</ele><time>2011-04-01T08:50:47Z</time></trkpt>
<trkpt lat="42.286568" lon="3.276472"><ele>7.5</ele><time>2011-04-01T08:50:52Z</time></trkpt>
<trkpt lat="42.286377" lon="3.276522"><ele>6.7</ele><time>2011-04-01T08:50:57Z</time></trkpt>
<trkpt lat="42.286193" lon="3.276583"><ele>5.8</ele><time>2011-04-01T08:51:02Z</time></trkpt>
<trkpt lat="42.286022" lon="3.276633"><ele>5.2</ele><time>2011-04-01T08:51:07Z</time></trkpt>
<trkpt lat="42.285897" lon="3.276440"><ele>5.9</ele><time>2011-04-01T08:51:12Z</time></trkpt>
<trkpt lat="42.285838" lon="3.276220"><ele>12</ele><time>2011-04-01T08:51:17Z</time></trkpt>
<trkpt lat="42.285740" lon="3.276060"><ele>20.7</ele><time>2011-04-01T08:51:22Z</time></trkpt>
<trkpt lat="42.285698" lon="3.276017"><ele>21.4</ele><time>2011-04-01T08:51:27Z</time></trkpt>
<trkpt lat="42.285618" lon="3.275937"><ele>19.7</ele><time>2011-04-01T08:51:32Z</time></trkpt>
<trkpt lat="42.285492" lon="3.275758"><ele>16.9</ele><time>2011-04-01T08:51:37Z</time></trkpt>
<trkpt lat="42.285385" lon="3.275613"><ele>15.9</ele><time>2011-04-01T08:51:42Z</time></trkpt>
<trkpt lat="42.285275" lon="3.275583"><ele>16.9</ele><time>2011-04-01T08:51:47Z</time></trkpt>
<trkpt lat="42.285095" lon="3.275680"><ele>17.7</ele><time>2011-04-01T08:51:52Z</time></trkpt>
<trkpt lat="42.284935" lon="3.275548"><ele>16.2</ele><time>2011-04-01T08:51:57Z</time></trkpt>
<trkpt lat="42.284778" lon="3.275330"><ele>13.5</ele><time>2011-04-01T08:52:02Z</time></trkpt>
<trkpt lat="42.284477" lon="3.275200"><ele>11.1</ele><time>2011-04-01T08:52:07Z</time></trkpt>
<trkpt lat="42.284177" lon="3.275252"><ele>9.1</ele><time>2011-04-01T08:52:12Z</time></trkpt>
<trkpt lat="42.283897" lon="3.275457"><ele>7.3</ele><time>2011-04-01T08:52:17Z</time></trkpt>
<trkpt lat="42.283642" lon="3.275653"><ele>6.3</ele><time>2011-04-01T08:52:22Z</time></trkpt>
<trkpt lat="42.283420" lon="3.275775"><ele>6</ele><time>2011-04-01T08:52:27Z</time></trkpt>
<trkpt lat="42.283207" lon="3.275825"><ele>6.9</ele><time>2011-04-01T08:52:32Z</time></trkpt>
<trkpt lat="42.283023" lon="3.275652"><ele>6.3</ele><time>2011-04-01T08:52:37Z</time></trkpt>
<trkpt lat="42.282840" lon="3.275507"><ele>6.3</ele><time>2011-04-01T08:52:42Z</time></trkpt>
<trkpt lat="42.282647" lon="3.275477"><ele>7.2</ele><time>2011-04-01T08:52:47Z</time></trkpt>
<trkpt lat="42.282478" lon="3.275495"><ele>9</ele><time>2011-04-01T08:52:52Z</time></trkpt>
<trkpt lat="42.282345" lon="3.275530"><ele>11.8</ele><time>2011-04-01T08:52:57Z</time></trkpt>
<trkpt lat="42.282235" lon="3.275593"><ele>14.4</ele><time>2011-04-01T08:53:02Z</time></trkpt>
<trkpt lat="42.282127" lon="3.275612"><ele>17</ele><time>2011-04-01T08:53:07Z</time></trkpt>
<trkpt lat="42.282017" lon="3.275578"><ele>19.8</ele><time>2011-04-01T08:53:12Z</time></trkpt>
<trkpt lat="42.281937" lon="3.275562"><ele>20.7</ele><time>2011-04-01T08:53:17Z</time></trkpt>
<trkpt lat="42.281833" lon="3.275522"><ele>23.2</ele><time>2011-04-01T08:53:22Z</time></trkpt>
<trkpt lat="42.281738" lon="3.275475"><ele>25.4</ele><time>2011-04-01T08:53:27Z</time></trkpt>
<trkpt lat="42.281643" lon="3.275440"><ele>27</ele><time>2011-04-01T08:53:32Z</time></trkpt>
<trkpt lat="42.281563" lon="3.275417"><ele>26.1</ele><time>2011-04-01T08:53:37Z</time></trkpt>
<trkpt lat="42.281483" lon="3.275382"><ele>27.3</ele><time>2011-04-01T08:53:42Z</time></trkpt>
<trkpt lat="42.281410" lon="3.275335"><ele>29.3</ele><time>2011-04-01T08:53:47Z</time></trkpt>
<trkpt lat="42.281338" lon="3.275290"><ele>31.3</ele><time>2011-04-01T08:53:52Z</time></trkpt>
<trkpt lat="42.281285" lon="3.275238"><ele>31</ele><time>2011-04-01T08:53:57Z</time></trkpt>
<trkpt lat="42.281247" lon="3.275177"><ele>30.2</ele><time>2011-04-01T08:54:02Z</time></trkpt>
<trkpt lat="42.281220" lon="3.275095"><ele>29</ele><time>2011-04-01T08:54:07Z</time></trkpt>
<trkpt lat="42.281197" lon="3.275008"><ele>28.5</ele><time>2011-04-01T08:54:12Z</time></trkpt>
<trkpt lat="42.281185" lon="3.274925"><ele>28.9</ele><time>2011-04-01T08:54:17Z</time></trkpt>
<trkpt lat="42.281167" lon="3.274845"><ele>29.9</ele><time>2011-04-01T08:54:22Z</time></trkpt>
<trkpt lat="42.281170" lon="3.274770"><ele>31</ele><time>2011-04-01T08:54:27Z</time></trkpt>
<trkpt lat="42.281193" lon="3.274692"><ele>31.8</ele><time>2011-04-01T08:54:32Z</time></trkpt>
<trkpt lat="42.281197" lon="3.274598"><ele>32.1</ele><time>2011-04-01T08:54:37Z</time></trkpt>
<trkpt lat="42.281197" lon="3.274513"><ele>32.9</ele><time>2011-04-01T08:54:42Z</time></trkpt>
<trkpt lat="42.281185" lon="3.274415"><ele>33.6</ele><time>2011-04-01T08:54:47Z</time></trkpt>
<trkpt lat="42.281178" lon="3.274308"><ele>33.5</ele><time>2011-04-01T08:54:52Z</time></trkpt>
<trkpt lat="42.281158" lon="3.274213"><ele>33.6</ele><time>2011-04-01T08:54:57Z</time></trkpt>
<trkpt lat="42.281128" lon="3.274125"><ele>33.7</ele><time>2011-04-01T08:55:02Z</time></trkpt>
<trkpt lat="42.281078" lon="3.274060"><ele>34.6</ele><time>2011-04-01T08:55:07Z</time></trkpt>
<trkpt lat="42.281017" lon="3.274015"><ele>35.7</ele><time>2011-04-01T08:55:12Z</time></trkpt>
<trkpt lat="42.280957" lon="3.273990"><ele>36.8</ele><time>2011-04-01T08:55:17Z</time></trkpt>
<trkpt lat="42.280883" lon="3.273958"><ele>37.7</ele><time>2011-04-01T08:55:22Z</time></trkpt>
<trkpt lat="42.280823" lon="3.273915"><ele>38.6</ele><time>2011-04-01T08:55:27Z</time></trkpt>
<trkpt lat="42.280762" lon="3.273865"><ele>39.8</ele><time>2011-04-01T08:55:32Z</time></trkpt>
<trkpt lat="42.280708" lon="3.273817"><ele>41</ele><time>2011-04-01T08:55:37Z</time></trkpt>
<trkpt lat="42.280640" lon="3.273818"><ele>41.7</ele><time>2011-04-01T08:55:42Z</time></trkpt>
<trkpt lat="42.280605" lon="3.273902"><ele>42.3</ele><time>2011-04-01T08:55:47Z</time></trkpt>
<trkpt lat="42.280598" lon="3.273997"><ele>43</ele><time>2011-04-01T08:55:52Z</time></trkpt>
<trkpt lat="42.280598" lon="3.274093"><ele>43.4</ele><time>2011-04-01T08:55:57Z</time></trkpt>
<trkpt lat="42.280598" lon="3.274190"><ele>44</ele><time>2011-04-01T08:56:02Z</time></trkpt>
<trkpt lat="42.280578" lon="3.274285"><ele>44.3</ele><time>2011-04-01T08:56:07Z</time></trkpt>
<trkpt lat="42.280545" lon="3.274377"><ele>44.6</ele><time>2011-04-01T08:56:12Z</time></trkpt>
<trkpt lat="42.280487" lon="3.274437"><ele>45.1</ele><time>2011-04-01T08:56:17Z</time></trkpt>
<trkpt lat="42.280415" lon="3.274463"><ele>45.6</ele><time>2011-04-01T08:56:22Z</time></trkpt>
<trkpt lat="42.280338" lon="3.274492"><ele>46.1</ele><time>2011-04-01T08:56:27Z</time></trkpt>
<trkpt lat="42.280273" lon="3.274547"><ele>46.6</ele><time>2011-04-01T08:56:32Z</time></trkpt>
<trkpt lat="42.280208" lon="3.274605"><ele>47.4</ele><time>2011-04-01T08:56:37Z</time></trkpt>
<trkpt lat="42.280143" lon="3.274658"><ele>48.2</ele><time>2011-04-01T08:56:42Z</time></trkpt>
<trkpt lat="42.280078" lon="3.274705"><ele>48.8</ele><time>2011-04-01T08:56:47Z</time></trkpt>
<trkpt lat="42.280003" lon="3.274753"><ele>49.6</ele><time>2011-04-01T08:56:52Z</time></trkpt>
<trkpt lat="42.279930" lon="3.274807"><ele>50.2</ele><time>2011-04-01T08:56:57Z</time></trkpt>
<trkpt lat="42.279850" lon="3.274850"><ele>50.7</ele><time>2011-04-01T08:57:02Z</time></trkpt>
<trkpt lat="42.279770" lon="3.274858"><ele>51.5</ele><time>2011-04-01T08:57:07Z</time></trkpt>
<trkpt lat="42.279708" lon="3.274793"><ele>52.3</ele><time>2011-04-01T08:57:12Z</time></trkpt>
<trkpt lat="42.279675" lon="3.274697"><ele>52.8</ele><time>2011-04-01T08:57:17Z</time></trkpt>
<trkpt lat="42.279697" lon="3.274605"><ele>53.6</ele><time>2011-04-01T08:57:22Z</time></trkpt>
<trkpt lat="42.279755" lon="3.274537"><ele>54.8</ele><time>2011-04-01T08:57:27Z</time></trkpt>
<trkpt lat="42.279797" lon="3.274452"><ele>55.7</ele><time>2011-04-01T08:57:32Z</time></trkpt>
<trkpt lat="42.279835" lon="3.274365"><ele>56.4</ele><time>2011-04-01T08:57:37Z</time></trkpt>
<trkpt lat="42.279868" lon="3.274267"><ele>57</ele><time>2011-04-01T08:57:42Z</time></trkpt>
<trkpt lat="42.279892" lon="3.274162"><ele>57.4</ele><time>2011-04-01T08:57:47Z</time></trkpt>
<trkpt lat="42.279918" lon="3.274063"><ele>57.9</ele><time>2011-04-01T08:57:52Z</time></trkpt>
<trkpt lat="42.279945" lon="3.273963"><ele>58.4</ele><time>2011-04-01T08:57:57Z</time></trkpt>
<trkpt lat="42.279960" lon="3.273860"><ele>58.7</ele><time>2011-04-01T08:58:02Z</time></trkpt>
<trkpt lat="42.279960" lon="3.273752"><ele>59.1</ele><time>2011-04-01T08:58:07Z</time></trkpt>
<trkpt lat="42.279953" lon="3.273643"><ele>59.6</ele><time>2011-04-01T08:58:12Z</time></trkpt>
<trkpt lat="42.279930" lon="3.273535"><ele>60.2</ele><time>2011-04-01T08:58:17Z</time></trkpt>
<trkpt lat="42.279885" lon="3.273435"><ele>60.9</ele><time>2011-04-01T08:58:22Z</time></trkpt>
<trkpt lat="42.279847" lon="3.273335"><ele>61.3</ele><time>2011-04-01T08:58:27Z</time></trkpt>
<trkpt lat="42.279812" lon="3.273232"><ele>62.1</ele><time>2011-04-01T08:58:32Z</time></trkpt>
<trkpt lat="42.279770" lon="3.273137"><ele>63.1</ele><time>2011-04-01T08:58:37Z</time></trkpt>
<trkpt lat="42.279732" lon="3.273048"><ele>64.4</ele><time>2011-04-01T08:58:42Z</time></trkpt>
<trkpt lat="42.279693" lon="3.272955"><ele>65.6</ele><time>2011-04-01T08:58:47Z</time></trkpt>
<trkpt lat="42.279637" lon="3.272883"><ele>66.7</ele><time>2011-04-01T08:58:52Z</time></trkpt>
<trkpt lat="42.279557" lon="3.272855"><ele>67.6</ele><time>2011-04-01T08:58:57Z</time></trkpt>
<trkpt lat="42.279483" lon="3.272813"><ele>68.4</ele><time>2011-04-01T08:59:02Z</time></trkpt>
<trkpt lat="42.279418" lon="3.272747"><ele>68.8</ele><time>2011-04-01T08:59:07Z</time></trkpt>
<trkpt lat="42.279370" lon="3.272658"><ele>69.3</ele><time>2011-04-01T08:59:12Z</time></trkpt>
<trkpt lat="42.279377" lon="3.272555"><ele>70.1</ele><time>2011-04-01T08:59:17Z</time></trkpt>
<trkpt lat="42.279358" lon="3.272452"><ele>71.2</ele><time>2011-04-01T08:59:22Z</time></trkpt>
<trkpt lat="42.279332" lon="3.272357"><ele>72.2</ele><time>2011-04-01T08:59:27Z</time></trkpt>
<trkpt lat="42.279300" lon="3.272263"><ele>73.2</ele><time>2011-04-01T08:59:32Z</time></trkpt>
<trkpt lat="42.279270" lon="3.272170"><ele>74.3</ele><time>2011-04-01T08:59:37Z</time></trkpt>
<trkpt lat="42.279228" lon="3.272077"><ele>75.2</ele><time>2011-04-01T08:59:42Z</time></trkpt>
<trkpt lat="42.279187" lon="3.271987"><ele>76.3</ele><time>2011-04-01T08:59:47Z</time></trkpt>
<trkpt lat="42.279145" lon="3.271905"><ele>76.7</ele><time>2011-04-01T08:59:52Z</time></trkpt>
<trkpt lat="42.279107" lon="3.271828"><ele>77</ele><time>2011-04-01T08:59:57Z</time></trkpt>
<trkpt lat="42.279068" lon="3.271735"><ele>77.2</ele><time>2011-04-01T09:00:02Z</time></trkpt>
<trkpt lat="42.279033" lon="3.271643"><ele>78</ele><time>2011-04-01T09:00:07Z</time></trkpt>
<trkpt lat="42.278980" lon="3.271567"><ele>78.5</ele><time>2011-04-01T09:00:12Z</time></trkpt>
<trkpt lat="42.278903" lon="3.271520"><ele>78.9</ele><time>2011-04-01T09:00:17Z</time></trkpt>
<trkpt lat="42.278838" lon="3.271443"><ele>79.4</ele><time>2011-04-01T09:00:22Z</time></trkpt>
<trkpt lat="42.278828" lon="3.271332"><ele>79.8</ele><time>2011-04-01T09:00:27Z</time></trkpt>
<trkpt lat="42.278858" lon="3.271225"><ele>80.4</ele><time>2011-04-01T09:00:32Z</time></trkpt>
<trkpt lat="42.278915" lon="3.271142"><ele>81.3</ele><time>2011-04-01T09:00:37Z</time></trkpt>
<trkpt lat="42.278957" lon="3.271050"><ele>82.3</ele><time>2011-04-01T09:00:42Z</time></trkpt>
<trkpt lat="42.278977" lon="3.270943"><ele>83.1</ele><time>2011-04-01T09:00:47Z</time></trkpt>
<trkpt lat="42.278988" lon="3.270837"><ele>83.9</ele><time>2011-04-01T09:00:52Z</time></trkpt>
<trkpt lat="42.278995" lon="3.270728"><ele>84.8</ele><time>2011-04-01T09:00:57Z</time></trkpt>
<trkpt lat="42.279000" lon="3.270617"><ele>85.7</ele><time>2011-04-01T09:01:02Z</time></trkpt>
<trkpt lat="42.279000" lon="3.270515"><ele>87</ele><time>2011-04-01T09:01:07Z</time></trkpt>
<trkpt lat="42.278968" lon="3.270422"><ele>88.1</ele><time>2011-04-01T09:01:12Z</time></trkpt>
<trkpt lat="42.278908" lon="3.270363"><ele>89.1</ele><time>2011-04-01T09:01:17Z</time></trkpt>
<trkpt lat="42.278828" lon="3.270415"><ele>89.5</ele><time>2011-04-01T09:01:22Z</time></trkpt>
<trkpt lat="42.278782" lon="3.270482"><ele>89.7</ele><time>2011-04-01T09:01:27Z</time></trkpt>
<trkpt lat="42.278782" lon="3.270480"><ele>89.6</ele><time>2011-04-01T09:01:32Z</time></trkpt>
<trkpt lat="42.278782" lon="3.270480"><ele>89.6</ele><time>2011-04-01T09:01:37Z</time></trkpt>
<trkpt lat="42.278782" lon="3.270480"><ele>89.6</ele><time>2011-04-01T09:01:42Z</time></trkpt>
<trkpt lat="42.278782" lon="3.270478"><ele>89.7</ele><time>2011-04-01T09:01:47Z</time></trkpt>
<trkpt lat="42.278778" lon="3.270478"><ele>89.7</ele><time>2011-04-01T09:01:52Z</time></trkpt>
<trkpt lat="42.278778" lon="3.270478"><ele>89.7</ele><time>2011-04-01T09:01:57Z</time></trkpt>
<trkpt lat="42.278775" lon="3.270482"><ele>89.8</ele><time>2011-04-01T09:02:02Z</time></trkpt>
<trkpt lat="42.278683" lon="3.270497"><ele>89.6</ele><time>2011-04-01T09:02:07Z</time></trkpt>
<trkpt lat="42.278577" lon="3.270453"><ele>89.8</ele><time>2011-04-01T09:02:12Z</time></trkpt>
<trkpt lat="42.278522" lon="3.270335"><ele>90.6</ele><time>2011-04-01T09:02:17Z</time></trkpt>
<trkpt lat="42.278500" lon="3.270213"><ele>91.9</ele><time>2011-04-01T09:02:22Z</time></trkpt>
<trkpt lat="42.278420" lon="3.270188"><ele>92.9</ele><time>2011-04-01T09:02:27Z</time></trkpt>
<trkpt lat="42.278343" lon="3.270252"><ele>93.6</ele><time>2011-04-01T09:02:32Z</time></trkpt>
<trkpt lat="42.278275" lon="3.270327"><ele>94.2</ele><time>2011-04-01T09:02:37Z</time></trkpt>
<trkpt lat="42.278213" lon="3.270410"><ele>95.2</ele><time>2011-04-01T09:02:42Z</time></trkpt>
<trkpt lat="42.278137" lon="3.270467"><ele>96.1</ele><time>2011-04-01T09:02:47Z</time></trkpt>
<trkpt lat="42.278072" lon="3.270543"><ele>97</ele><time>2011-04-01T09:02:52Z</time></trkpt>
<trkpt lat="42.278027" lon="3.270645"><ele>97.7</ele><time>2011-04-01T09:02:57Z</time></trkpt>
<trkpt lat="42.278023" lon="3.270767"><ele>98.7</ele><time>2011-04-01T09:03:02Z</time></trkpt>
<trkpt lat="42.278012" lon="3.270878"><ele>100</ele><time>2011-04-01T09:03:07Z</time></trkpt>
<trkpt lat="42.277958" lon="3.270963"><ele>101</ele><time>2011-04-01T09:03:12Z</time></trkpt>
<trkpt lat="42.277885" lon="3.270907"><ele>101.5</ele><time>2011-04-01T09:03:17Z</time></trkpt>
<trkpt lat="42.277847" lon="3.270797"><ele>101.9</ele><time>2011-04-01T09:03:22Z</time></trkpt>
<trkpt lat="42.277852" lon="3.270680"><ele>102.4</ele><time>2011-04-01T09:03:27Z</time></trkpt>
<trkpt lat="42.277878" lon="3.270572"><ele>103.7</ele><time>2011-04-01T09:03:32Z</time></trkpt>
<trkpt lat="42.277885" lon="3.270455"><ele>104.4</ele><time>2011-04-01T09:03:37Z</time></trkpt>
<trkpt lat="42.277882" lon="3.270327"><ele>104.8</ele><time>2011-04-01T09:03:42Z</time></trkpt>
<trkpt lat="42.277858" lon="3.270213"><ele>105.8</ele><time>2011-04-01T09:03:47Z</time></trkpt>
<trkpt lat="42.277798" lon="3.270127"><ele>106.5</ele><time>2011-04-01T09:03:52Z</time></trkpt>
<trkpt lat="42.277713" lon="3.270093"><ele>106.5</ele><time>2011-04-01T09:03:57Z</time></trkpt>
<trkpt lat="42.277648" lon="3.270017"><ele>106.7</ele><time>2011-04-01T09:04:02Z</time></trkpt>
<trkpt lat="42.277600" lon="3.269917"><ele>107</ele><time>2011-04-01T09:04:07Z</time></trkpt>
<trkpt lat="42.277535" lon="3.269825"><ele>107.1</ele><time>2011-04-01T09:04:12Z</time></trkpt>
<trkpt lat="42.277477" lon="3.269715"><ele>107.5</ele><time>2011-04-01T09:04:17Z</time></trkpt>
<trkpt lat="42.277443" lon="3.269603"><ele>107.9</ele><time>2011-04-01T09:04:22Z</time></trkpt>
<trkpt lat="42.277397" lon="3.269497"><ele>108.5</ele><time>2011-04-01T09:04:27Z</time></trkpt>
<trkpt lat="42.277322" lon="3.269430"><ele>108.9</ele><time>2011-04-01T09:04:32Z</time></trkpt>
<trkpt lat="42.277222" lon="3.269433"><ele>109.1</ele><time>2011-04-01T09:04:37Z</time></trkpt>
<trkpt lat="42.277115" lon="3.269427"><ele>109.3</ele><time>2011-04-01T09:04:42Z</time></trkpt>
<trkpt lat="42.277035" lon="3.269355"><ele>109.8</ele><time>2011-04-01T09:04:47Z</time></trkpt>
<trkpt lat="42.276978" lon="3.269257"><ele>110.4</ele><time>2011-04-01T09:04:52Z</time></trkpt>
<trkpt lat="42.276920" lon="3.269155"><ele>111.3</ele><time>2011-04-01T09:04:57Z</time></trkpt>
<trkpt lat="42.276852" lon="3.269097"><ele>112.5</ele><time>2011-04-01T09:05:02Z</time></trkpt>
<trkpt lat="42.276833" lon="3.269005"><ele>113.6</ele><time>2011-04-01T09:05:07Z</time></trkpt>
<trkpt lat="42.276843" lon="3.268905"><ele>115.2</ele><time>2011-04-01T09:05:12Z</time></trkpt>
<trkpt lat="42.276825" lon="3.268810"><ele>116.4</ele><time>2011-04-01T09:05:17Z</time></trkpt>
<trkpt lat="42.276843" lon="3.268717"><ele>117.5</ele><time>2011-04-01T09:05:22Z</time></trkpt>
<trkpt lat="42.276882" lon="3.268633"><ele>118.6</ele><time>2011-04-01T09:05:27Z</time></trkpt>
<trkpt lat="42.276920" lon="3.268548"><ele>119.8</ele><time>2011-04-01T09:05:32Z</time></trkpt>
<trkpt lat="42.276973" lon="3.268472"><ele>120.8</ele><time>2011-04-01T09:05:37Z</time></trkpt>
<trkpt lat="42.277023" lon="3.268398"><ele>121.7</ele><time>2011-04-01T09:05:42Z</time></trkpt>
<trkpt lat="42.277068" lon="3.268317"><ele>122.4</ele><time>2011-04-01T09:05:47Z</time></trkpt>
<trkpt lat="42.277100" lon="3.268220"><ele>123</ele><time>2011-04-01T09:05:52Z</time></trkpt>
<trkpt lat="42.277130" lon="3.268127"><ele>123.4</ele><time>2011-04-01T09:05:57Z</time></trkpt>
<trkpt lat="42.277153" lon="3.268018"><ele>123.9</ele><time>2011-04-01T09:06:02Z</time></trkpt>
<trkpt lat="42.277168" lon="3.267907"><ele>124.3</ele><time>2011-04-01T09:06:07Z</time></trkpt>
<trkpt lat="42.277180" lon="3.267790"><ele>124.8</ele><time>2011-04-01T09:06:12Z</time></trkpt>
<trkpt lat="42.277183" lon="3.267673"><ele>125.5</ele><time>2011-04-01T09:06:17Z</time></trkpt>
<trkpt lat="42.277207" lon="3.267558"><ele>126.2</ele><time>2011-04-01T09:06:22Z</time></trkpt>
<trkpt lat="42.277230" lon="3.267447"><ele>127</ele><time>2011-04-01T09:06:27Z</time></trkpt>
<trkpt lat="42.277272" lon="3.267323"><ele>127.6</ele><time>2011-04-01T09:06:32Z</time></trkpt>
<trkpt lat="42.277287" lon="3.267212"><ele>128.7</ele><time>2011-04-01T09:06:37Z</time></trkpt>
<trkpt lat="42.277287" lon="3.267098"><ele>129.8</ele><time>2011-04-01T09:06:42Z</time></trkpt>
<trkpt lat="42.277278" lon="3.266987"><ele>131</ele><time>2011-04-01T09:06:47Z</time></trkpt>
<trkpt lat="42.277230" lon="3.266890"><ele>131.9</ele><time>2011-04-01T09:06:52Z</time></trkpt>
<trkpt lat="42.277150" lon="3.266837"><ele>132.3</ele><time>2011-04-01T09:06:57Z</time></trkpt>
<trkpt lat="42.277065" lon="3.266820"><ele>133</ele><time>2011-04-01T09:07:02Z</time></trkpt>
<trkpt lat="42.276985" lon="3.266867"><ele>133.8</ele><time>2011-04-01T09:07:07Z</time></trkpt>
<trkpt lat="42.276940" lon="3.266978"><ele>134.3</ele><time>2011-04-01T09:07:12Z</time></trkpt>
<trkpt lat="42.276902" lon="3.267092"><ele>135</ele><time>2011-04-01T09:07:17Z</time></trkpt>
<trkpt lat="42.276852" lon="3.267198"><ele>135.4</ele><time>2011-04-01T09:07:22Z</time></trkpt>
<trkpt lat="42.276787" lon="3.267287"><ele>135.9</ele><time>2011-04-01T09:07:27Z</time></trkpt>
<trkpt lat="42.276718" lon="3.267373"><ele>136.4</ele><time>2011-04-01T09:07:32Z</time></trkpt>
<trkpt lat="42.276653" lon="3.267467"><ele>136.8</ele><time>2011-04-01T09:07:37Z</time></trkpt>
<trkpt lat="42.276588" lon="3.267563"><ele>137.2</ele><time>2011-04-01T09:07:42Z</time></trkpt>
<trkpt lat="42.276512" lon="3.267630"><ele>138</ele><time>2011-04-01T09:07:47Z</time></trkpt>
<trkpt lat="42.276425" lon="3.267625"><ele>138.9</ele><time>2011-04-01T09:07:52Z</time></trkpt>
<trkpt lat="42.276387" lon="3.267517"><ele>139.7</ele><time>2011-04-01T09:07:57Z</time></trkpt>
<trkpt lat="42.276408" lon="3.267395"><ele>140.7</ele><time>2011-04-01T09:08:02Z</time></trkpt>
<trkpt lat="42.276437" lon="3.267280"><ele>141.8</ele><time>2011-04-01T09:08:07Z</time></trkpt>
<trkpt lat="42.276425" lon="3.267157"><ele>142.8</ele><time>2011-04-01T09:08:12Z</time></trkpt>
<trkpt lat="42.276393" lon="3.267038"><ele>143.5</ele><time>2011-04-01T09:08:17Z</time></trkpt>
<trkpt lat="42.276393" lon="3.266918"><ele>144.5</ele><time>2011-04-01T09:08:22Z</time></trkpt>
<trkpt lat="42.276393" lon="3.266803"><ele>145.6</ele><time>2011-04-01T09:08:27Z</time></trkpt>
<trkpt lat="42.276360" lon="3.266697"><ele>146.5</ele><time>2011-04-01T09:08:32Z</time></trkpt>
<trkpt lat="42.276318" lon="3.266597"><ele>147.3</ele><time>2011-04-01T09:08:37Z</time></trkpt>
<trkpt lat="42.276260" lon="3.266508"><ele>147.9</ele><time>2011-04-01T09:08:42Z</time></trkpt>
<trkpt lat="42.276195" lon="3.266425"><ele>148.5</ele><time>2011-04-01T09:08:47Z</time></trkpt>
<trkpt lat="42.276115" lon="3.266378"><ele>149.1</ele><time>2011-04-01T09:08:52Z</time></trkpt>
<trkpt lat="42.276035" lon="3.266398"><ele>149.9</ele><time>2011-04-01T09:08:57Z</time></trkpt>
<trkpt lat="42.275993" lon="3.266497"><ele>150.9</ele><time>2011-04-01T09:09:02Z</time></trkpt>
<trkpt lat="42.276008" lon="3.266613"><ele>151.9</ele><time>2011-04-01T09:09:07Z</time></trkpt>
<trkpt lat="42.276055" lon="3.266718"><ele>152.8</ele><time>2011-04-01T09:09:12Z</time></trkpt>
<trkpt lat="42.276055" lon="3.266833"><ele>153.7</ele><time>2011-04-01T09:09:17Z</time></trkpt>
<trkpt lat="42.276032" lon="3.266948"><ele>154.8</ele><time>2011-04-01T09:09:22Z</time></trkpt>
<trkpt lat="42.275978" lon="3.267045"><ele>155.7</ele><time>2011-04-01T09:09:27Z</time></trkpt>
<trkpt lat="42.275905" lon="3.267100"><ele>156.6</ele><time>2011-04-01T09:09:32Z</time></trkpt>
<trkpt lat="42.275822" lon="3.267110"><ele>157.2</ele><time>2011-04-01T09:09:37Z</time></trkpt>
<trkpt lat="42.275738" lon="3.267090"><ele>157.6</ele><time>2011-04-01T09:09:42Z</time></trkpt>
<trkpt lat="42.275658" lon="3.267088"><ele>157.9</ele><time>2011-04-01T09:09:47Z</time></trkpt>
<trkpt lat="42.275582" lon="3.267155"><ele>158.5</ele><time>2011-04-01T09:09:52Z</time></trkpt>
<trkpt lat="42.275517" lon="3.267232"><ele>159.2</ele><time>2011-04-01T09:09:57Z</time></trkpt>
<trkpt lat="42.275460" lon="3.267315"><ele>160</ele><time>2011-04-01T09:10:02Z</time></trkpt>
<trkpt lat="42.275395" lon="3.267397"><ele>160.8</ele><time>2011-04-01T09:10:07Z</time></trkpt>
<trkpt lat="42.275333" lon="3.267480"><ele>161.6</ele><time>2011-04-01T09:10:12Z</time></trkpt>
<trkpt lat="42.275272" lon="3.267568"><ele>162.3</ele><time>2011-04-01T09:10:17Z</time></trkpt>
<trkpt lat="42.275212" lon="3.267647"><ele>163.1</ele><time>2011-04-01T09:10:22Z</time></trkpt>
<trkpt lat="42.275135" lon="3.267695"><ele>164.3</ele><time>2011-04-01T09:10:27Z</time></trkpt>
<trkpt lat="42.275055" lon="3.267660"><ele>165.2</ele><time>2011-04-01T09:10:32Z</time></trkpt>
<trkpt lat="42.275002" lon="3.267570"><ele>165.9</ele><time>2011-04-01T09:10:37Z</time></trkpt>
<trkpt lat="42.274960" lon="3.267467"><ele>166.8</ele><time>2011-04-01T09:10:42Z</time></trkpt>
<trkpt lat="42.274963" lon="3.267352"><ele>167.8</ele><time>2011-04-01T09:10:47Z</time></trkpt>
<trkpt lat="42.275025" lon="3.267242"><ele>168.3</ele><time>2011-04-01T09:10:52Z</time></trkpt>
<trkpt lat="42.275070" lon="3.267135"><ele>169.6</ele><time>2011-04-01T09:10:57Z</time></trkpt>
<trkpt lat="42.275093" lon="3.267025"><ele>170.6</ele><time>2011-04-01T09:11:02Z</time></trkpt>
<trkpt lat="42.275120" lon="3.266923"><ele>171.7</ele><time>2011-04-01T09:11:07Z</time></trkpt>
<trkpt lat="42.275147" lon="3.266818"><ele>172.9</ele><time>2011-04-01T09:11:12Z</time></trkpt>
<trkpt lat="42.275165" lon="3.266712"><ele>174</ele><time>2011-04-01T09:11:17Z</time></trkpt>
<trkpt lat="42.275135" lon="3.266600"><ele>174.6</ele><time>2011-04-01T09:11:22Z</time></trkpt>
<trkpt lat="42.275073" lon="3.266517"><ele>175.2</ele><time>2011-04-01T09:11:27Z</time></trkpt>
<trkpt lat="42.275002" lon="3.266467"><ele>175.9</ele><time>2011-04-01T09:11:32Z</time></trkpt>
<trkpt lat="42.274922" lon="3.266457"><ele>176.5</ele><time>2011-04-01T09:11:37Z</time></trkpt>
<trkpt lat="42.274845" lon="3.266405"><ele>177.3</ele><time>2011-04-01T09:11:42Z</time></trkpt>
<trkpt lat="42.274773" lon="3.266348"><ele>178.2</ele><time>2011-04-01T09:11:47Z</time></trkpt>
<trkpt lat="42.274697" lon="3.266295"><ele>178.8</ele><time>2011-04-01T09:11:52Z</time></trkpt>
<trkpt lat="42.274617" lon="3.266238"><ele>179.3</ele><time>2011-04-01T09:11:57Z</time></trkpt>
<trkpt lat="42.274528" lon="3.266222"><ele>179.7</ele><time>2011-04-01T09:12:02Z</time></trkpt>
<trkpt lat="42.274445" lon="3.266183"><ele>180.4</ele><time>2011-04-01T09:12:07Z</time></trkpt>
<trkpt lat="42.274365" lon="3.266142"><ele>181.1</ele><time>2011-04-01T09:12:12Z</time></trkpt>
<trkpt lat="42.274288" lon="3.266062"><ele>181.5</ele><time>2011-04-01T09:12:17Z</time></trkpt>
<trkpt lat="42.274235" lon="3.265955"><ele>181.5</ele><time>2011-04-01T09:12:22Z</time></trkpt>
<trkpt lat="42.274178" lon="3.265842"><ele>182.1</ele><time>2011-04-01T09:12:27Z</time></trkpt>
<trkpt lat="42.274082" lon="3.265845"><ele>182.8</ele><time>2011-04-01T09:12:32Z</time></trkpt>
<trkpt lat="42.274013" lon="3.265973"><ele>182.9</ele><time>2011-04-01T09:12:37Z</time></trkpt>
<trkpt lat="42.273915" lon="3.266072"><ele>182.9</ele><time>2011-04-01T09:12:42Z</time></trkpt>
<trkpt lat="42.273788" lon="3.266142"><ele>183.1</ele><time>2011-04-01T09:12:47Z</time></trkpt>
<trkpt lat="42.273640" lon="3.266185"><ele>183</ele><time>2011-04-01T09:12:52Z</time></trkpt>
<trkpt lat="42.273492" lon="3.266140"><ele>183</ele><time>2011-04-01T09:12:57Z</time></trkpt>
<trkpt lat="42.273380" lon="3.266027"><ele>183</ele><time>2011-04-01T09:13:02Z</time></trkpt>
<trkpt lat="42.273273" lon="3.265895"><ele>183.4</ele><time>2011-04-01T09:13:07Z</time></trkpt>
<trkpt lat="42.273170" lon="3.265775"><ele>184.2</ele><time>2011-04-01T09:13:12Z</time></trkpt>
<trkpt lat="42.273045" lon="3.265727"><ele>185.3</ele><time>2011-04-01T09:13:17Z</time></trkpt>
<trkpt lat="42.272942" lon="3.265578"><ele>185.7</ele><time>2011-04-01T09:13:22Z</time></trkpt>
<trkpt lat="42.272877" lon="3.265417"><ele>186.4</ele><time>2011-04-01T09:13:27Z</time></trkpt>
<trkpt lat="42.272847" lon="3.265310"><ele>186.6</ele><time>2011-04-01T09:13:32Z</time></trkpt>
<trkpt lat="42.272853" lon="3.265317"><ele>187.4</ele><time>2011-04-01T09:13:37Z</time></trkpt>
<trkpt lat="42.272850" lon="3.265307"><ele>187.6</ele><time>2011-04-01T09:13:42Z</time></trkpt>
<trkpt lat="42.272853" lon="3.265307"><ele>187.8</ele><time>2011-04-01T09:13:47Z</time></trkpt>
<trkpt lat="42.272853" lon="3.265325"><ele>187.8</ele><time>2011-04-01T09:13:52Z</time></trkpt>
<trkpt lat="42.272868" lon="3.265322"><ele>187.3</ele><time>2011-04-01T09:13:57Z</time></trkpt>
<trkpt lat="42.272873" lon="3.265318"><ele>187.2</ele><time>2011-04-01T09:14:02Z</time></trkpt>
<trkpt lat="42.272868" lon="3.265315"><ele>188.4</ele><time>2011-04-01T09:14:07Z</time></trkpt>
<trkpt lat="42.272873" lon="3.265318"><ele>188.8</ele><time>2011-04-01T09:14:12Z</time></trkpt>
<trkpt lat="42.272873" lon="3.265312"><ele>188.4</ele><time>2011-04-01T09:14:17Z</time></trkpt>
<trkpt lat="42.272868" lon="3.265318"><ele>189.7</ele><time>2011-04-01T09:14:22Z</time></trkpt>
<trkpt lat="42.272865" lon="3.265320"><ele>190.6</ele><time>2011-04-01T09:14:27Z</time></trkpt>
<trkpt lat="42.272865" lon="3.265323"><ele>191.1</ele><time>2011-04-01T09:14:32Z</time></trkpt>
<trkpt lat="42.272868" lon="3.265325"><ele>189.5</ele><time>2011-04-01T09:14:37Z</time></trkpt>
<trkpt lat="42.272868" lon="3.265317"><ele>188.9</ele><time>2011-04-01T09:14:42Z</time></trkpt>
<trkpt lat="42.272850" lon="3.265322"><ele>190.3</ele><time>2011-04-01T09:14:47Z</time></trkpt>
<trkpt lat="42.272838" lon="3.265325"><ele>191.1</ele><time>2011-04-01T09:14:52Z</time></trkpt>
<trkpt lat="42.272858" lon="3.265298"><ele>191.4</ele><time>2011-04-01T09:14:57Z</time></trkpt>
<trkpt lat="42.272880" lon="3.265288"><ele>186.8</ele><time>2011-04-01T09:15:02Z</time></trkpt>
<trkpt lat="42.272880" lon="3.265290"><ele>184.6</ele><time>2011-04-01T09:15:07Z</time></trkpt>
<trkpt lat="42.272880" lon="3.265290"><ele>184.9</ele><time>2011-04-01T09:15:12Z</time></trkpt>
<trkpt lat="42.272880" lon="3.265285"><ele>182.8</ele><time>2011-04-01T09:15:17Z</time></trkpt>
<trkpt lat="42.272885" lon="3.265292"><ele>183.3</ele><time>2011-04-01T09:15:22Z</time></trkpt>
<trkpt lat="42.272885" lon="3.265325"><ele>186</ele><time>2011-04-01T09:15:27Z</time></trkpt>
<trkpt lat="42.272877" lon="3.265310"><ele>186.8</ele><time>2011-04-01T09:15:32Z</time></trkpt>
<trkpt lat="42.272885" lon="3.265310"><ele>184.4</ele><time>2011-04-01T09:15:37Z</time></trkpt>
<trkpt lat="42.272892" lon="3.265298"><ele>183.4</ele><time>2011-04-01T09:15:42Z</time></trkpt>
<trkpt lat="42.272895" lon="3.265300"><ele>185.3</ele><time>2011-04-01T09:15:47Z</time></trkpt>
<trkpt lat="42.272900" lon="3.265293"><ele>184.8</ele><time>2011-04-01T09:15:52Z</time></trkpt>
<trkpt lat="42.272900" lon="3.265288"><ele>184.4</ele><time>2011-04-01T09:15:57Z</time></trkpt>
<trkpt lat="42.272895" lon="3.265282"><ele>183.7</ele><time>2011-04-01T09:16:03Z</time></trkpt>
<trkpt lat="42.272885" lon="3.265285"><ele>184.3</ele><time>2011-04-01T09:16:08Z</time></trkpt>
<trkpt lat="42.272877" lon="3.265288"><ele>184.5</ele><time>2011-04-01T09:16:13Z</time></trkpt>
<trkpt lat="42.272877" lon="3.265285"><ele>184.6</ele><time>2011-04-01T09:16:18Z</time></trkpt>
<trkpt lat="42.272873" lon="3.265283"><ele>184.7</ele><time>2011-04-01T09:16:23Z</time></trkpt>
<trkpt lat="42.272868" lon="3.265280"><ele>184.9</ele><time>2011-04-01T09:16:28Z</time></trkpt>
<trkpt lat="42.272865" lon="3.265282"><ele>185.1</ele><time>2011-04-01T09:16:33Z</time></trkpt>
<trkpt lat="42.272862" lon="3.265285"><ele>185.1</ele><time>2011-04-01T09:16:38Z</time></trkpt>
<trkpt lat="42.272862" lon="3.265283"><ele>185</ele><time>2011-04-01T09:16:43Z</time></trkpt>
<trkpt lat="42.272862" lon="3.265283"><ele>184.9</ele><time>2011-04-01T09:16:48Z</time></trkpt>
<trkpt lat="42.272868" lon="3.265292"><ele>184.7</ele><time>2011-04-01T09:16:53Z</time></trkpt>
<trkpt lat="42.272853" lon="3.265280"><ele>184.6</ele><time>2011-04-01T09:16:58Z</time></trkpt>
<trkpt lat="42.272850" lon="3.265273"><ele>184.2</ele><time>2011-04-01T09:17:03Z</time></trkpt>
<trkpt lat="42.272847" lon="3.265273"><ele>183.3</ele><time>2011-04-01T09:17:08Z</time></trkpt>
<trkpt lat="42.272853" lon="3.265277"><ele>185.6</ele><time>2011-04-01T09:17:13Z</time></trkpt>
<trkpt lat="42.272862" lon="3.265272"><ele>185.1</ele><time>2011-04-01T09:17:18Z</time></trkpt>
<trkpt lat="42.272868" lon="3.265262"><ele>184.3</ele><time>2011-04-01T09:17:23Z</time></trkpt>
<trkpt lat="42.272877" lon="3.265253"><ele>184.5</ele><time>2011-04-01T09:17:28Z</time></trkpt>
<trkpt lat="42.272880" lon="3.265253"><ele>185.2</ele><time>2011-04-01T09:17:33Z</time></trkpt>
<trkpt lat="42.272865" lon="3.265268"><ele>183.5</ele><time>2011-04-01T09:17:38Z</time></trkpt>
<trkpt lat="42.272877" lon="3.265290"><ele>182.6</ele><time>2011-04-01T09:17:43Z</time></trkpt>
<trkpt lat="42.272868" lon="3.265280"><ele>182.3</ele><time>2011-04-01T09:17:48Z</time></trkpt>
<trkpt lat="42.272877" lon="3.265297"><ele>182.1</ele><time>2011-04-01T09:17:53Z</time></trkpt>
<trkpt lat="42.272873" lon="3.265293"><ele>182</ele><time>2011-04-01T09:17:58Z</time></trkpt>
<trkpt lat="42.272873" lon="3.265293"><ele>182</ele><time>2011-04-01T09:18:03Z</time></trkpt>
<trkpt lat="42.272873" lon="3.265292"><ele>181.9</ele><time>2011-04-01T09:18:08Z</time></trkpt>
<trkpt lat="42.272868" lon="3.265293"><ele>182</ele><time>2011-04-01T09:18:13Z</time></trkpt>
<trkpt lat="42.272868" lon="3.265298"><ele>181.9</ele><time>2011-04-01T09:18:18Z</time></trkpt>
<trkpt lat="42.272868" lon="3.265302"><ele>181.9</ele><time>2011-04-01T09:18:23Z</time></trkpt>
<trkpt lat="42.272865" lon="3.265295"><ele>182.2</ele><time>2011-04-01T09:18:28Z</time></trkpt>
<trkpt lat="42.272832" lon="3.265298"><ele>182.1</ele><time>2011-04-01T09:18:33Z</time></trkpt>
<trkpt lat="42.272705" lon="3.265320"><ele>182.2</ele><time>2011-04-01T09:18:38Z</time></trkpt>
<trkpt lat="42.272663" lon="3.265512"><ele>183.2</ele><time>2011-04-01T09:18:43Z</time></trkpt>
<trkpt lat="42.272663" lon="3.265708"><ele>184.5</ele><time>2011-04-01T09:18:48Z</time></trkpt>
<trkpt lat="42.272625" lon="3.265878"><ele>185.9</ele><time>2011-04-01T09:18:53Z</time></trkpt>
<trkpt lat="42.272552" lon="3.266015"><ele>186.8</ele><time>2011-04-01T09:18:58Z</time></trkpt>
<trkpt lat="42.272515" lon="3.266177"><ele>187.6</ele><time>2011-04-01T09:19:03Z</time></trkpt>
<trkpt lat="42.272498" lon="3.266360"><ele>187.9</ele><time>2011-04-01T09:19:08Z</time></trkpt>
<trkpt lat="42.272480" lon="3.266562"><ele>188.7</ele><time>2011-04-01T09:19:13Z</time></trkpt>
<trkpt lat="42.272450" lon="3.266720"><ele>189.8</ele><time>2011-04-01T09:19:18Z</time></trkpt>
<trkpt lat="42.272392" lon="3.266838"><ele>190.6</ele><time>2011-04-01T09:19:23Z</time></trkpt>
<trkpt lat="42.272312" lon="3.266928"><ele>191.5</ele><time>2011-04-01T09:19:28Z</time></trkpt>
<trkpt lat="42.272217" lon="3.266993"><ele>192.3</ele><time>2011-04-01T09:19:33Z</time></trkpt>
<trkpt lat="42.272110" lon="3.267048"><ele>193</ele><time>2011-04-01T09:19:38Z</time></trkpt>
<trkpt lat="42.272007" lon="3.267107"><ele>193.5</ele><time>2011-04-01T09:19:43Z</time></trkpt>
<trkpt lat="42.271915" lon="3.267207"><ele>193.9</ele><time>2011-04-01T09:19:48Z</time></trkpt>
<trkpt lat="42.271835" lon="3.267340"><ele>194</ele><time>2011-04-01T09:19:53Z</time></trkpt>
<trkpt lat="42.271763" lon="3.267470"><ele>194.3</ele><time>2011-04-01T09:19:58Z</time></trkpt>
<trkpt lat="42.271683" lon="3.267593"><ele>194.7</ele><time>2011-04-01T09:20:03Z</time></trkpt>
<trkpt lat="42.271603" lon="3.267708"><ele>195.4</ele><time>2011-04-01T09:20:08Z</time></trkpt>
<trkpt lat="42.271503" lon="3.267782"><ele>196</ele><time>2011-04-01T09:20:13Z</time></trkpt>
<trkpt lat="42.271405" lon="3.267860"><ele>196.8</ele><time>2011-04-01T09:20:18Z</time></trkpt>
<trkpt lat="42.271308" lon="3.267928"><ele>197.4</ele><time>2011-04-01T09:20:23Z</time></trkpt>
<trkpt lat="42.271210" lon="3.267993"><ele>198.4</ele><time>2011-04-01T09:20:28Z</time></trkpt>
<trkpt lat="42.271103" lon="3.268048"><ele>199.3</ele><time>2011-04-01T09:20:33Z</time></trkpt>
<trkpt lat="42.270970" lon="3.268080"><ele>199.4</ele><time>2011-04-01T09:20:38Z</time></trkpt>
<trkpt lat="42.270840" lon="3.268120"><ele>199.8</ele><time>2011-04-01T09:20:43Z</time></trkpt>
<trkpt lat="42.270698" lon="3.268160"><ele>199.9</ele><time>2011-04-01T09:20:48Z</time></trkpt>
<trkpt lat="42.270562" lon="3.268198"><ele>200</ele><time>2011-04-01T09:20:53Z</time></trkpt>
<trkpt lat="42.270438" lon="3.268257"><ele>200.5</ele><time>2011-04-01T09:20:58Z</time></trkpt>
<trkpt lat="42.270298" lon="3.268313"><ele>200.8</ele><time>2011-04-01T09:21:03Z</time></trkpt>
<trkpt lat="42.270145" lon="3.268387"><ele>200.8</ele><time>2011-04-01T09:21:08Z</time></trkpt>
<trkpt lat="42.269997" lon="3.268337"><ele>201</ele><time>2011-04-01T09:21:13Z</time></trkpt>
<trkpt lat="42.269970" lon="3.268113"><ele>200.7</ele><time>2011-04-01T09:21:18Z</time></trkpt>
<trkpt lat="42.270068" lon="3.267907"><ele>200.5</ele><time>2011-04-01T09:21:23Z</time></trkpt>
<trkpt lat="42.270027" lon="3.267690"><ele>200.6</ele><time>2011-04-01T09:21:28Z</time></trkpt>
<trkpt lat="42.269905" lon="3.267610"><ele>201.7</ele><time>2011-04-01T09:21:33Z</time></trkpt>
<trkpt lat="42.269775" lon="3.267597"><ele>202.7</ele><time>2011-04-01T09:21:38Z</time></trkpt>
<trkpt lat="42.269677" lon="3.267597"><ele>203.7</ele><time>2011-04-01T09:21:43Z</time></trkpt>
<trkpt lat="42.269582" lon="3.267602"><ele>204.5</ele><time>2011-04-01T09:21:48Z</time></trkpt>
<trkpt lat="42.269482" lon="3.267620"><ele>205.4</ele><time>2011-04-01T09:21:53Z</time></trkpt>
<trkpt lat="42.269382" lon="3.267648"><ele>206.4</ele><time>2011-04-01T09:21:58Z</time></trkpt>
<trkpt lat="42.269275" lon="3.267685"><ele>207.3</ele><time>2011-04-01T09:22:03Z</time></trkpt>
<trkpt lat="42.269173" lon="3.267720"><ele>208.2</ele><time>2011-04-01T09:22:08Z</time></trkpt>
<trkpt lat="42.269077" lon="3.267755"><ele>209.1</ele><time>2011-04-01T09:22:13Z</time></trkpt>
<trkpt lat="42.268985" lon="3.267790"><ele>209.8</ele><time>2011-04-01T09:22:18Z</time></trkpt>
<trkpt lat="42.268887" lon="3.267827"><ele>210.8</ele><time>2011-04-01T09:22:23Z</time></trkpt>
<trkpt lat="42.268795" lon="3.267865"><ele>211.8</ele><time>2011-04-01T09:22:28Z</time></trkpt>
<trkpt lat="42.268703" lon="3.267860"><ele>212.8</ele><time>2011-04-01T09:22:33Z</time></trkpt>
<trkpt lat="42.268600" lon="3.267822"><ele>213.1</ele><time>2011-04-01T09:22:38Z</time></trkpt>
<trkpt lat="42.268508" lon="3.267808"><ele>214.2</ele><time>2011-04-01T09:22:43Z</time></trkpt>
<trkpt lat="42.268422" lon="3.267780"><ele>215.2</ele><time>2011-04-01T09:22:48Z</time></trkpt>
<trkpt lat="42.268348" lon="3.267717"><ele>215.9</ele><time>2011-04-01T09:22:53Z</time></trkpt>
<trkpt lat="42.268315" lon="3.267603"><ele>216.5</ele><time>2011-04-01T09:22:58Z</time></trkpt>
<trkpt lat="42.268342" lon="3.267485"><ele>217.1</ele><time>2011-04-01T09:23:03Z</time></trkpt>
<trkpt lat="42.268390" lon="3.267380"><ele>218</ele><time>2011-04-01T09:23:08Z</time></trkpt>
<trkpt lat="42.268428" lon="3.267275"><ele>218.9</ele><time>2011-04-01T09:23:13Z</time></trkpt>
<trkpt lat="42.268463" lon="3.267165"><ele>219.9</ele><time>2011-04-01T09:23:18Z</time></trkpt>
<trkpt lat="42.268493" lon="3.267058"><ele>220.8</ele><time>2011-04-01T09:23:23Z</time></trkpt>
<trkpt lat="42.268532" lon="3.266955"><ele>221.8</ele><time>2011-04-01T09:23:28Z</time></trkpt>
<trkpt lat="42.268562" lon="3.266848"><ele>222.8</ele><time>2011-04-01T09:23:33Z</time></trkpt>
<trkpt lat="42.268597" lon="3.266738"><ele>223.7</ele><time>2011-04-01T09:23:38Z</time></trkpt>
<trkpt lat="42.268635" lon="3.266620"><ele>224.6</ele><time>2011-04-01T09:23:43Z</time></trkpt>
<trkpt lat="42.268665" lon="3.266502"><ele>225.4</ele><time>2011-04-01T09:23:48Z</time></trkpt>
<trkpt lat="42.268707" lon="3.266378"><ele>226.1</ele><time>2011-04-01T09:23:53Z</time></trkpt>
<trkpt lat="42.268765" lon="3.266255"><ele>226.5</ele><time>2011-04-01T09:23:58Z</time></trkpt>
<trkpt lat="42.268833" lon="3.266128"><ele>226.5</ele><time>2011-04-01T09:24:03Z</time></trkpt>
<trkpt lat="42.268833" lon="3.265902"><ele>225.7</ele><time>2011-04-01T09:24:08Z</time></trkpt>
<trkpt lat="42.268695" lon="3.265792"><ele>225.3</ele><time>2011-04-01T09:24:13Z</time></trkpt>
<trkpt lat="42.268532" lon="3.265828"><ele>225</ele><time>2011-04-01T09:24:18Z</time></trkpt>
<trkpt lat="42.268360" lon="3.265862"><ele>225.5</ele><time>2011-04-01T09:24:23Z</time></trkpt>
<trkpt lat="42.268218" lon="3.265767"><ele>225.9</ele><time>2011-04-01T09:24:28Z</time></trkpt>
<trkpt lat="42.268120" lon="3.265562"><ele>225.9</ele><time>2011-04-01T09:24:33Z</time></trkpt>
<trkpt lat="42.268100" lon="3.265258"><ele>224.9</ele><time>2011-04-01T09:24:38Z</time></trkpt>
<trkpt lat="42.268147" lon="3.264937"><ele>223.8</ele><time>2011-04-01T09:24:43Z</time></trkpt>
<trkpt lat="42.268138" lon="3.264592"><ele>223</ele><time>2011-04-01T09:24:48Z</time></trkpt>
<trkpt lat="42.268073" lon="3.264280"><ele>222.5</ele><time>2011-04-01T09:24:53Z</time></trkpt>
<trkpt lat="42.268010" lon="3.264013"><ele>222</ele><time>2011-04-01T09:24:58Z</time></trkpt>
<trkpt lat="42.267967" lon="3.263732"><ele>221.1</ele><time>2011-04-01T09:25:03Z</time></trkpt>
<trkpt lat="42.267925" lon="3.263435"><ele>221</ele><time>2011-04-01T09:25:08Z</time></trkpt>
<trkpt lat="42.267715" lon="3.263438"><ele>220.8</ele><time>2011-04-01T09:25:13Z</time></trkpt>
<trkpt lat="42.267463" lon="3.263542"><ele>220</ele><time>2011-04-01T09:25:18Z</time></trkpt>
<trkpt lat="42.267212" lon="3.263613"><ele>219.3</ele><time>2011-04-01T09:25:23Z</time></trkpt>
<trkpt lat="42.266937" lon="3.263625"><ele>218.4</ele><time>2011-04-01T09:25:28Z</time></trkpt>
<trkpt lat="42.266712" lon="3.263837"><ele>217.5</ele><time>2011-04-01T09:25:33Z</time></trkpt>
<trkpt lat="42.266513" lon="3.264115"><ele>216.6</ele><time>2011-04-01T09:25:38Z</time></trkpt>
<trkpt lat="42.266353" lon="3.264398"><ele>216.2</ele><time>2011-04-01T09:25:43Z</time></trkpt>
<trkpt lat="42.266175" lon="3.264655"><ele>216.1</ele><time>2011-04-01T09:25:48Z</time></trkpt>
<trkpt lat="42.265987" lon="3.264873"><ele>216</ele><time>2011-04-01T09:25:53Z</time></trkpt>
<trkpt lat="42.265785" lon="3.265078"><ele>215.9</ele><time>2011-04-01T09:25:58Z</time></trkpt>
<trkpt lat="42.265580" lon="3.265290"><ele>215.9</ele><time>2011-04-01T09:26:03Z</time></trkpt>
<trkpt lat="42.265365" lon="3.265478"><ele>215.8</ele><time>2011-04-01T09:26:08Z</time></trkpt>
<trkpt lat="42.265133" lon="3.265667"><ele>215.4</ele><time>2011-04-01T09:26:13Z</time></trkpt>
<trkpt lat="42.264877" lon="3.265763"><ele>215.4</ele><time>2011-04-01T09:26:18Z</time></trkpt>
<trkpt lat="42.264657" lon="3.265692"><ele>216.2</ele><time>2011-04-01T09:26:23Z</time></trkpt>
<trkpt lat="42.264565" lon="3.265478"><ele>217.5</ele><time>2011-04-01T09:26:28Z</time></trkpt>
<trkpt lat="42.264527" lon="3.265187"><ele>217.7</ele><time>2011-04-01T09:26:33Z</time></trkpt>
<trkpt lat="42.264447" lon="3.264902"><ele>218.2</ele><time>2011-04-01T09:26:38Z</time></trkpt>
<trkpt lat="42.264332" lon="3.264633"><ele>217.9</ele><time>2011-04-01T09:26:43Z</time></trkpt>
<trkpt lat="42.264237" lon="3.264352"><ele>218.1</ele><time>2011-04-01T09:26:48Z</time></trkpt>
<trkpt lat="42.264133" lon="3.264075"><ele>218</ele><time>2011-04-01T09:26:53Z</time></trkpt>
<trkpt lat="42.263908" lon="3.263978"><ele>218.2</ele><time>2011-04-01T09:26:58Z</time></trkpt>
<trkpt lat="42.263675" lon="3.263933"><ele>218.5</ele><time>2011-04-01T09:27:03Z</time></trkpt>
<trkpt lat="42.263557" lon="3.263695"><ele>218.7</ele><time>2011-04-01T09:27:08Z</time></trkpt>
<trkpt lat="42.263538" lon="3.263445"><ele>218.8</ele><time>2011-04-01T09:27:13Z</time></trkpt>
<trkpt lat="42.263538" lon="3.263217"><ele>219.3</ele><time>2011-04-01T09:27:18Z</time></trkpt>
<trkpt lat="42.263547" lon="3.262992"><ele>219.9</ele><time>2011-04-01T09:27:23Z</time></trkpt>
<trkpt lat="42.263573" lon="3.262780"><ele>220.7</ele><time>2011-04-01T09:27:28Z</time></trkpt>
<trkpt lat="42.263580" lon="3.262535"><ele>220.8</ele><time>2011-04-01T09:27:33Z</time></trkpt>
<trkpt lat="42.263603" lon="3.262312"><ele>221.5</ele><time>2011-04-01T09:27:38Z</time></trkpt>
<trkpt lat="42.263630" lon="3.262088"><ele>222.1</ele><time>2011-04-01T09:27:43Z</time></trkpt>
<trkpt lat="42.263657" lon="3.261863"><ele>222.8</ele><time>2011-04-01T09:27:48Z</time></trkpt>
<trkpt lat="42.263675" lon="3.261643"><ele>223.8</ele><time>2011-04-01T09:27:53Z</time></trkpt>
<trkpt lat="42.263672" lon="3.261415"><ele>224.4</ele><time>2011-04-01T09:27:58Z</time></trkpt>
<trkpt lat="42.263660" lon="3.261187"><ele>225.3</ele><time>2011-04-01T09:28:03Z</time></trkpt>
<trkpt lat="42.263680" lon="3.260958"><ele>226.1</ele><time>2011-04-01T09:28:08Z</time></trkpt>
<trkpt lat="42.263728" lon="3.260715"><ele>226.3</ele><time>2011-04-01T09:28:13Z</time></trkpt>
<trkpt lat="42.263820" lon="3.260463"><ele>225.8</ele><time>2011-04-01T09:28:18Z</time></trkpt>
<trkpt lat="42.263965" lon="3.260263"><ele>224.9</ele><time>2011-04-01T09:28:23Z</time></trkpt>
<trkpt lat="42.264118" lon="3.260067"><ele>224.1</ele><time>2011-04-01T09:28:28Z</time></trkpt>
<trkpt lat="42.264222" lon="3.259927"><ele>223.8</ele><time>2011-04-01T09:28:33Z</time></trkpt>
<trkpt lat="42.264228" lon="3.259918"><ele>223.7</ele><time>2011-04-01T09:28:38Z</time></trkpt>
<trkpt lat="42.264217" lon="3.259930"><ele>223.7</ele><time>2011-04-01T09:28:43Z</time></trkpt>
<trkpt lat="42.264233" lon="3.259925"><ele>223.7</ele><time>2011-04-01T09:28:48Z</time></trkpt>
<trkpt lat="42.264252" lon="3.259923"><ele>223.8</ele><time>2011-04-01T09:28:53Z</time></trkpt>
<trkpt lat="42.264275" lon="3.259878"><ele>224.5</ele><time>2011-04-01T09:28:58Z</time></trkpt>
<trkpt lat="42.264367" lon="3.259773"><ele>224.5</ele><time>2011-04-01T09:29:03Z</time></trkpt>
<trkpt lat="42.264533" lon="3.259675"><ele>224.1</ele><time>2011-04-01T09:29:08Z</time></trkpt>
<trkpt lat="42.264722" lon="3.259598"><ele>223.7</ele><time>2011-04-01T09:29:13Z</time></trkpt>
<trkpt lat="42.264885" lon="3.259442"><ele>223.5</ele><time>2011-04-01T09:29:18Z</time></trkpt>
<trkpt lat="42.265018" lon="3.259227"><ele>223.1</ele><time>2011-04-01T09:29:23Z</time></trkpt>
<trkpt lat="42.265145" lon="3.258982"><ele>222.9</ele><time>2011-04-01T09:29:28Z</time></trkpt>
<trkpt lat="42.265247" lon="3.258705"><ele>222.9</ele><time>2011-04-01T09:29:33Z</time></trkpt>
<trkpt lat="42.265343" lon="3.258390"><ele>222.8</ele><time>2011-04-01T09:29:38Z</time></trkpt>
<trkpt lat="42.265343" lon="3.258045"><ele>223.2</ele><time>2011-04-01T09:29:43Z</time></trkpt>
<trkpt lat="42.265343" lon="3.257700"><ele>223.5</ele><time>2011-04-01T09:29:48Z</time></trkpt>
<trkpt lat="42.265362" lon="3.257348"><ele>223.9</ele><time>2011-04-01T09:29:53Z</time></trkpt>
<trkpt lat="42.265400" lon="3.257017"><ele>224.2</ele><time>2011-04-01T09:29:58Z</time></trkpt>
<trkpt lat="42.265472" lon="3.256685"><ele>224.5</ele><time>2011-04-01T09:30:03Z</time></trkpt>
<trkpt lat="42.265572" lon="3.256350"><ele>224.8</ele><time>2011-04-01T09:30:08Z</time></trkpt>
<trkpt lat="42.265667" lon="3.256010"><ele>225</ele><time>2011-04-01T09:30:13Z</time></trkpt>
<trkpt lat="42.265762" lon="3.255677"><ele>225.3</ele><time>2011-04-01T09:30:18Z</time></trkpt>
<trkpt lat="42.265912" lon="3.255413"><ele>225.1</ele><time>2011-04-01T09:30:23Z</time></trkpt>
<trkpt lat="42.266163" lon="3.255320"><ele>224</ele><time>2011-04-01T09:30:28Z</time></trkpt>
<trkpt lat="42.266438" lon="3.255200"><ele>222.9</ele><time>2011-04-01T09:30:33Z</time></trkpt>
<trkpt lat="42.266708" lon="3.255123"><ele>222</ele><time>2011-04-01T09:30:38Z</time></trkpt>
<trkpt lat="42.266998" lon="3.255112"><ele>221</ele><time>2011-04-01T09:30:43Z</time></trkpt>
<trkpt lat="42.267162" lon="3.254865"><ele>219.7</ele><time>2011-04-01T09:30:48Z</time></trkpt>
<trkpt lat="42.267167" lon="3.254495"><ele>218.9</ele><time>2011-04-01T09:30:53Z</time></trkpt>
<trkpt lat="42.267318" lon="3.254188"><ele>218.4</ele><time>2011-04-01T09:30:58Z</time></trkpt>
<trkpt lat="42.267558" lon="3.253993"><ele>217.8</ele><time>2011-04-01T09:31:03Z</time></trkpt>
<trkpt lat="42.267853" lon="3.253897"><ele>217.2</ele><time>2011-04-01T09:31:08Z</time></trkpt>
<trkpt lat="42.268120" lon="3.253853"><ele>216.7</ele><time>2011-04-01T09:31:13Z</time></trkpt>
<trkpt lat="42.268218" lon="3.253642"><ele>215.4</ele><time>2011-04-01T09:31:18Z</time></trkpt>
<trkpt lat="42.268058" lon="3.253350"><ele>213.6</ele><time>2011-04-01T09:31:23Z</time></trkpt>
<trkpt lat="42.267857" lon="3.253052"><ele>211.4</ele><time>2011-04-01T09:31:28Z</time></trkpt>
<trkpt lat="42.267842" lon="3.252653"><ele>209.3</ele><time>2011-04-01T09:31:33Z</time></trkpt>
<trkpt lat="42.267940" lon="3.252223"><ele>207.1</ele><time>2011-04-01T09:31:38Z</time></trkpt>
<trkpt lat="42.267982" lon="3.251752"><ele>204.6</ele><time>2011-04-01T09:31:43Z</time></trkpt>
<trkpt lat="42.267803" lon="3.251345"><ele>202.1</ele><time>2011-04-01T09:31:48Z</time></trkpt>
<trkpt lat="42.267575" lon="3.250958"><ele>200.6</ele><time>2011-04-01T09:31:53Z</time></trkpt>
<trkpt lat="42.267315" lon="3.250588"><ele>198.9</ele><time>2011-04-01T09:31:58Z</time></trkpt>
<trkpt lat="42.267197" lon="3.250167"><ele>197.1</ele><time>2011-04-01T09:32:03Z</time></trkpt>
<trkpt lat="42.267307" lon="3.249708"><ele>194.8</ele><time>2011-04-01T09:32:08Z</time></trkpt>
<trkpt lat="42.267528" lon="3.249318"><ele>192.5</ele><time>2011-04-01T09:32:13Z</time></trkpt>
<trkpt lat="42.267540" lon="3.249013"><ele>190.7</ele><time>2011-04-01T09:32:18Z</time></trkpt>
<trkpt lat="42.267265" lon="3.249058"><ele>189</ele><time>2011-04-01T09:32:23Z</time></trkpt>
<trkpt lat="42.266937" lon="3.249162"><ele>187.3</ele><time>2011-04-01T09:32:28Z</time></trkpt>
<trkpt lat="42.266617" lon="3.249212"><ele>185.7</ele><time>2011-04-01T09:32:33Z</time></trkpt>
<trkpt lat="42.266270" lon="3.249227"><ele>183.2</ele><time>2011-04-01T09:32:38Z</time></trkpt>
<trkpt lat="42.265903" lon="3.249337"><ele>181</ele><time>2011-04-01T09:32:43Z</time></trkpt>
<trkpt lat="42.265553" lon="3.249473"><ele>179.2</ele><time>2011-04-01T09:32:48Z</time></trkpt>
<trkpt lat="42.265205" lon="3.249473"><ele>176.7</ele><time>2011-04-01T09:32:53Z</time></trkpt>
<trkpt lat="42.264908" lon="3.249180"><ele>173.6</ele><time>2011-04-01T09:32:58Z</time></trkpt>
<trkpt lat="42.264622" lon="3.248812"><ele>170.1</ele><time>2011-04-01T09:33:03Z</time></trkpt>
<trkpt lat="42.264320" lon="3.248498"><ele>166.3</ele><time>2011-04-01T09:33:08Z</time></trkpt>
<trkpt lat="42.264118" lon="3.248170"><ele>163.3</ele><time>2011-04-01T09:33:13Z</time></trkpt>
<trkpt lat="42.264172" lon="3.247708"><ele>160</ele><time>2011-04-01T09:33:18Z</time></trkpt>
<trkpt lat="42.263982" lon="3.247435"><ele>157.7</ele><time>2011-04-01T09:33:23Z</time></trkpt>
<trkpt lat="42.263657" lon="3.247385"><ele>155.4</ele><time>2011-04-01T09:33:28Z</time></trkpt>
<trkpt lat="42.263332" lon="3.247220"><ele>152.6</ele><time>2011-04-01T09:33:33Z</time></trkpt>
<trkpt lat="42.263027" lon="3.246987"><ele>149.3</ele><time>2011-04-01T09:33:38Z</time></trkpt>
<trkpt lat="42.262925" lon="3.246597"><ele>146.7</ele><time>2011-04-01T09:33:43Z</time></trkpt>
<trkpt lat="42.262962" lon="3.246118"><ele>143.6</ele><time>2011-04-01T09:33:48Z</time></trkpt>
<trkpt lat="42.262760" lon="3.245707"><ele>140.1</ele><time>2011-04-01T09:33:53Z</time></trkpt>
<trkpt lat="42.262425" lon="3.245512"><ele>137.3</ele><time>2011-04-01T09:33:58Z</time></trkpt>
<trkpt lat="42.262162" lon="3.245305"><ele>134.6</ele><time>2011-04-01T09:34:03Z</time></trkpt>
<trkpt lat="42.262020" lon="3.244897"><ele>131.7</ele><time>2011-04-01T09:34:08Z</time></trkpt>
<trkpt lat="42.262157" lon="3.244490"><ele>129</ele><time>2011-04-01T09:34:13Z</time></trkpt>
<trkpt lat="42.262393" lon="3.244160"><ele>126.1</ele><time>2011-04-01T09:34:18Z</time></trkpt>
<trkpt lat="42.262642" lon="3.243935"><ele>123.9</ele><time>2011-04-01T09:34:23Z</time></trkpt>
<trkpt lat="42.262615" lon="3.243717"><ele>121.5</ele><time>2011-04-01T09:34:28Z</time></trkpt>
<trkpt lat="42.262348" lon="3.243832"><ele>119.3</ele><time>2011-04-01T09:34:33Z</time></trkpt>
<trkpt lat="42.262070" lon="3.244068"><ele>116</ele><time>2011-04-01T09:34:38Z</time></trkpt>
<trkpt lat="42.261753" lon="3.244260"><ele>112.1</ele><time>2011-04-01T09:34:43Z</time></trkpt>
<trkpt lat="42.261567" lon="3.244705"><ele>108.9</ele><time>2011-04-01T09:34:48Z</time></trkpt>
<trkpt lat="42.261395" lon="3.245172"><ele>105.2</ele><time>2011-04-01T09:34:53Z</time></trkpt>
<trkpt lat="42.261253" lon="3.245643"><ele>101.6</ele><time>2011-04-01T09:34:58Z</time></trkpt>
<trkpt lat="42.261363" lon="3.246068"><ele>98.7</ele><time>2011-04-01T09:35:03Z</time></trkpt>
<trkpt lat="42.261677" lon="3.246375"><ele>95.2</ele><time>2011-04-01T09:35:08Z</time></trkpt>
<trkpt lat="42.261677" lon="3.246843"><ele>91.2</ele><time>2011-04-01T09:35:13Z</time></trkpt>
<trkpt lat="42.261688" lon="3.247387"><ele>87.5</ele><time>2011-04-01T09:35:18Z</time></trkpt>
<trkpt lat="42.261780" lon="3.247933"><ele>83.6</ele><time>2011-04-01T09:35:23Z</time></trkpt>
<trkpt lat="42.261952" lon="3.248382"><ele>80.2</ele><time>2011-04-01T09:35:28Z</time></trkpt>
<trkpt lat="42.261768" lon="3.248638"><ele>77.6</ele><time>2011-04-01T09:35:33Z</time></trkpt>
<trkpt lat="42.261463" lon="3.248678"><ele>75.6</ele><time>2011-04-01T09:35:38Z</time></trkpt>
<trkpt lat="42.261135" lon="3.248785"><ele>73.2</ele><time>2011-04-01T09:35:43Z</time></trkpt>
<trkpt lat="42.260788" lon="3.249025"><ele>69.8</ele><time>2011-04-01T09:35:48Z</time></trkpt>
<trkpt lat="42.260410" lon="3.249190"><ele>67.2</ele><time>2011-04-01T09:35:53Z</time></trkpt>
<trkpt lat="42.260155" lon="3.249417"><ele>65.1</ele><time>2011-04-01T09:35:58Z</time></trkpt>
<trkpt lat="42.260108" lon="3.249255"><ele>63.7</ele><time>2011-04-01T09:36:03Z</time></trkpt>
<trkpt lat="42.260318" lon="3.249033"><ele>60.9</ele><time>2011-04-01T09:36:08Z</time></trkpt>
<trkpt lat="42.260647" lon="3.248812"><ele>57.8</ele><time>2011-04-01T09:36:13Z</time></trkpt>
<trkpt lat="42.260925" lon="3.248505"><ele>55.2</ele><time>2011-04-01T09:36:18Z</time></trkpt>
<trkpt lat="42.261223" lon="3.248265"><ele>53</ele><time>2011-04-01T09:36:23Z</time></trkpt>
<trkpt lat="42.261197" lon="3.247892"><ele>50.6</ele><time>2011-04-01T09:36:28Z</time></trkpt>
<trkpt lat="42.261002" lon="3.247497"><ele>48.7</ele><time>2011-04-01T09:36:33Z</time></trkpt>
<trkpt lat="42.260883" lon="3.247080"><ele>47.5</ele><time>2011-04-01T09:36:38Z</time></trkpt>
<trkpt lat="42.260567" lon="3.246820"><ele>44.6</ele><time>2011-04-01T09:36:43Z</time></trkpt>
<trkpt lat="42.260318" lon="3.246705"><ele>42.5</ele><time>2011-04-01T09:36:48Z</time></trkpt>
<trkpt lat="42.260300" lon="3.246703"><ele>42.2</ele><time>2011-04-01T09:36:53Z</time></trkpt>
<trkpt lat="42.260297" lon="3.246705"><ele>42.4</ele><time>2011-04-01T09:36:58Z</time></trkpt>
<trkpt lat="42.260300" lon="3.246700"><ele>42.5</ele><time>2011-04-01T09:37:03Z</time></trkpt>
<trkpt lat="42.260303" lon="3.246705"><ele>42.7</ele><time>2011-04-01T09:37:08Z</time></trkpt>
<trkpt lat="42.260285" lon="3.246688"><ele>42.7</ele><time>2011-04-01T09:37:13Z</time></trkpt>
<trkpt lat="42.260262" lon="3.246705"><ele>43.1</ele><time>2011-04-01T09:37:18Z</time></trkpt>
<trkpt lat="42.260265" lon="3.246700"><ele>43.1</ele><time>2011-04-01T09:37:23Z</time></trkpt>
<trkpt lat="42.260265" lon="3.246700"><ele>43</ele><time>2011-04-01T09:37:28Z</time></trkpt>
<trkpt lat="42.260265" lon="3.246702"><ele>43.1</ele><time>2011-04-01T09:37:33Z</time></trkpt>
<trkpt lat="42.260265" lon="3.246700"><ele>43</ele><time>2011-04-01T09:37:38Z</time></trkpt>
<trkpt lat="42.260265" lon="3.246702"><ele>43</ele><time>2011-04-01T09:37:43Z</time></trkpt>
<trkpt lat="42.260253" lon="3.246705"><ele>43</ele><time>2011-04-01T09:37:48Z</time></trkpt>
<trkpt lat="42.260098" lon="3.246667"><ele>41.5</ele><time>2011-04-01T09:37:53Z</time></trkpt>
<trkpt lat="42.259927" lon="3.246398"><ele>38.4</ele><time>2011-04-01T09:37:58Z</time></trkpt>
<trkpt lat="42.259797" lon="3.245997"><ele>36.5</ele><time>2011-04-01T09:38:03Z</time></trkpt>
<trkpt lat="42.259812" lon="3.245665"><ele>37.3</ele><time>2011-04-01T09:38:08Z</time></trkpt>
<trkpt lat="42.259948" lon="3.245473"><ele>38.7</ele><time>2011-04-01T09:38:13Z</time></trkpt>
<trkpt lat="42.260093" lon="3.245323"><ele>39.4</ele><time>2011-04-01T09:38:18Z</time></trkpt>
<trkpt lat="42.260197" lon="3.245178"><ele>40.6</ele><time>2011-04-01T09:38:23Z</time></trkpt>
<trkpt lat="42.260288" lon="3.245030"><ele>41.8</ele><time>2011-04-01T09:38:28Z</time></trkpt>
<trkpt lat="42.260345" lon="3.244868"><ele>42.8</ele><time>2011-04-01T09:38:33Z</time></trkpt>
<trkpt lat="42.260312" lon="3.244702"><ele>43.6</ele><time>2011-04-01T09:38:38Z</time></trkpt>
<trkpt lat="42.260167" lon="3.244720"><ele>44.3</ele><time>2011-04-01T09:38:43Z</time></trkpt>
<trkpt lat="42.260063" lon="3.244880"><ele>44.8</ele><time>2011-04-01T09:38:48Z</time></trkpt>
<trkpt lat="42.259975" lon="3.245052"><ele>45.4</ele><time>2011-04-01T09:38:53Z</time></trkpt>
<trkpt lat="42.259862" lon="3.245223"><ele>45.5</ele><time>2011-04-01T09:38:58Z</time></trkpt>
<trkpt lat="42.259765" lon="3.245407"><ele>46.1</ele><time>2011-04-01T09:39:03Z</time></trkpt>
<trkpt lat="42.259637" lon="3.245520"><ele>46.8</ele><time>2011-04-01T09:39:08Z</time></trkpt>
<trkpt lat="42.259492" lon="3.245603"><ele>47.3</ele><time>2011-04-01T09:39:13Z</time></trkpt>
<trkpt lat="42.259330" lon="3.245598"><ele>47.9</ele><time>2011-04-01T09:39:18Z</time></trkpt>
<trkpt lat="42.259178" lon="3.245545"><ele>48.3</ele><time>2011-04-01T09:39:23Z</time></trkpt>
<trkpt lat="42.259018" lon="3.245467"><ele>49</ele><time>2011-04-01T09:39:28Z</time></trkpt>
<trkpt lat="42.258888" lon="3.245532"><ele>49.7</ele><time>2011-04-01T09:39:33Z</time></trkpt>
<trkpt lat="42.258888" lon="3.245730"><ele>50.3</ele><time>2011-04-01T09:39:38Z</time></trkpt>
<trkpt lat="42.258965" lon="3.245893"><ele>51.3</ele><time>2011-04-01T09:39:43Z</time></trkpt>
<trkpt lat="42.259045" lon="3.246012"><ele>52.1</ele><time>2011-04-01T09:39:48Z</time></trkpt>
<trkpt lat="42.259087" lon="3.246152"><ele>53.1</ele><time>2011-04-01T09:39:53Z</time></trkpt>
<trkpt lat="42.259113" lon="3.246302"><ele>54</ele><time>2011-04-01T09:39:58Z</time></trkpt>
<trkpt lat="42.259128" lon="3.246453"><ele>54.5</ele><time>2011-04-01T09:40:03Z</time></trkpt>
<trkpt lat="42.259152" lon="3.246630"><ele>55.3</ele><time>2011-04-01T09:40:08Z</time></trkpt>
<trkpt lat="42.259158" lon="3.246790"><ele>56.3</ele><time>2011-04-01T09:40:13Z</time></trkpt>
<trkpt lat="42.259182" lon="3.246950"><ele>57</ele><time>2011-04-01T09:40:18Z</time></trkpt>
<trkpt lat="42.259202" lon="3.247113"><ele>58</ele><time>2011-04-01T09:40:23Z</time></trkpt>
<trkpt lat="42.259212" lon="3.247278"><ele>59.2</ele><time>2011-04-01T09:40:28Z</time></trkpt>
<trkpt lat="42.259193" lon="3.247440"><ele>60.2</ele><time>2011-04-01T09:40:33Z</time></trkpt>
<trkpt lat="42.259113" lon="3.247570"><ele>61</ele><time>2011-04-01T09:40:38Z</time></trkpt>
<trkpt lat="42.258983" lon="3.247653"><ele>61.4</ele><time>2011-04-01T09:40:43Z</time></trkpt>
<trkpt lat="42.258862" lon="3.247690"><ele>62.7</ele><time>2011-04-01T09:40:48Z</time></trkpt>
<trkpt lat="42.258743" lon="3.247705"><ele>63.6</ele><time>2011-04-01T09:40:53Z</time></trkpt>
<trkpt lat="42.258628" lon="3.247707"><ele>64.6</ele><time>2011-04-01T09:40:58Z</time></trkpt>
<trkpt lat="42.258527" lon="3.247723"><ele>65.7</ele><time>2011-04-01T09:41:03Z</time></trkpt>
<trkpt lat="42.258423" lon="3.247735"><ele>66.7</ele><time>2011-04-01T09:41:08Z</time></trkpt>
<trkpt lat="42.258317" lon="3.247765"><ele>67.5</ele><time>2011-04-01T09:41:13Z</time></trkpt>
<trkpt lat="42.258202" lon="3.247815"><ele>68.1</ele><time>2011-04-01T09:41:18Z</time></trkpt>
<trkpt lat="42.258102" lon="3.247873"><ele>69.2</ele><time>2011-04-01T09:41:23Z</time></trkpt>
<trkpt lat="42.258015" lon="3.247948"><ele>70.4</ele><time>2011-04-01T09:41:28Z</time></trkpt>
<trkpt lat="42.257935" lon="3.248043"><ele>71.3</ele><time>2011-04-01T09:41:33Z</time></trkpt>
<trkpt lat="42.257850" lon="3.248165"><ele>71.6</ele><time>2011-04-01T09:41:38Z</time></trkpt>
<trkpt lat="42.257767" lon="3.248295"><ele>71.6</ele><time>2011-04-01T09:41:43Z</time></trkpt>
<trkpt lat="42.257657" lon="3.248418"><ele>71.2</ele><time>2011-04-01T09:41:48Z</time></trkpt>
<trkpt lat="42.257527" lon="3.248563"><ele>70.8</ele><time>2011-04-01T09:41:53Z</time></trkpt>
<trkpt lat="42.257405" lon="3.248718"><ele>71.6</ele><time>2011-04-01T09:41:58Z</time></trkpt>
<trkpt lat="42.257302" lon="3.248852"><ele>72.6</ele><time>2011-04-01T09:42:03Z</time></trkpt>
<trkpt lat="42.257217" lon="3.248978"><ele>73.5</ele><time>2011-04-01T09:42:08Z</time></trkpt>
<trkpt lat="42.257127" lon="3.249102"><ele>74.3</ele><time>2011-04-01T09:42:13Z</time></trkpt>
<trkpt lat="42.257027" lon="3.249217"><ele>75.2</ele><time>2011-04-01T09:42:18Z</time></trkpt>
<trkpt lat="42.256900" lon="3.249293"><ele>75.8</ele><time>2011-04-01T09:42:23Z</time></trkpt>
<trkpt lat="42.256772" lon="3.249305"><ele>76.7</ele><time>2011-04-01T09:42:28Z</time></trkpt>
<trkpt lat="42.256638" lon="3.249237"><ele>77.2</ele><time>2011-04-01T09:42:33Z</time></trkpt>
<trkpt lat="42.256538" lon="3.249138"><ele>78.5</ele><time>2011-04-01T09:42:38Z</time></trkpt>
<trkpt lat="42.256477" lon="3.248992"><ele>79.2</ele><time>2011-04-01T09:42:43Z</time></trkpt>
<trkpt lat="42.256435" lon="3.248833"><ele>80.1</ele><time>2011-04-01T09:42:48Z</time></trkpt>
<trkpt lat="42.256382" lon="3.248678"><ele>81.2</ele><time>2011-04-01T09:42:53Z</time></trkpt>
<trkpt lat="42.256305" lon="3.248548"><ele>81.8</ele><time>2011-04-01T09:42:58Z</time></trkpt>
<trkpt lat="42.256192" lon="3.248473"><ele>82.8</ele><time>2011-04-01T09:43:03Z</time></trkpt>
<trkpt lat="42.256073" lon="3.248497"><ele>83.7</ele><time>2011-04-01T09:43:08Z</time></trkpt>
<trkpt lat="42.255982" lon="3.248597"><ele>84.8</ele><time>2011-04-01T09:43:13Z</time></trkpt>
<trkpt lat="42.255867" lon="3.248643"><ele>85.7</ele><time>2011-04-01T09:43:18Z</time></trkpt>
<trkpt lat="42.255745" lon="3.248693"><ele>86.2</ele><time>2011-04-01T09:43:23Z</time></trkpt>
<trkpt lat="42.255627" lon="3.248773"><ele>87.2</ele><time>2011-04-01T09:43:28Z</time></trkpt>
<trkpt lat="42.255527" lon="3.248865"><ele>88.3</ele><time>2011-04-01T09:43:33Z</time></trkpt>
<trkpt lat="42.255432" lon="3.248965"><ele>89.2</ele><time>2011-04-01T09:43:38Z</time></trkpt>
<trkpt lat="42.255333" lon="3.249062"><ele>90.1</ele><time>2011-04-01T09:43:43Z</time></trkpt>
<trkpt lat="42.255233" lon="3.249153"><ele>91.2</ele><time>2011-04-01T09:43:48Z</time></trkpt>
<trkpt lat="42.255127" lon="3.249263"><ele>91.9</ele><time>2011-04-01T09:43:53Z</time></trkpt>
<trkpt lat="42.255017" lon="3.249328"><ele>92.8</ele><time>2011-04-01T09:43:58Z</time></trkpt>
<trkpt lat="42.254902" lon="3.249378"><ele>93.6</ele><time>2011-04-01T09:44:03Z</time></trkpt>
<trkpt lat="42.254780" lon="3.249428"><ele>94.6</ele><time>2011-04-01T09:44:08Z</time></trkpt>
<trkpt lat="42.254653" lon="3.249473"><ele>95.5</ele><time>2011-04-01T09:44:13Z</time></trkpt>
<trkpt lat="42.254528" lon="3.249500"><ele>96.3</ele><time>2011-04-01T09:44:18Z</time></trkpt>
<trkpt lat="42.254398" lon="3.249508"><ele>96.9</ele><time>2011-04-01T09:44:23Z</time></trkpt>
<trkpt lat="42.254257" lon="3.249495"><ele>98</ele><time>2011-04-01T09:44:28Z</time></trkpt>
<trkpt lat="42.254147" lon="3.249422"><ele>99.1</ele><time>2011-04-01T09:44:33Z</time></trkpt>
<trkpt lat="42.254063" lon="3.249288"><ele>99.9</ele><time>2011-04-01T09:44:38Z</time></trkpt>
<trkpt lat="42.253972" lon="3.249152"><ele>100.9</ele><time>2011-04-01T09:44:43Z</time></trkpt>
<trkpt lat="42.253868" lon="3.248980"><ele>100.7</ele><time>2011-04-01T09:44:48Z</time></trkpt>
<trkpt lat="42.253735" lon="3.248775"><ele>99.4</ele><time>2011-04-01T09:44:53Z</time></trkpt>
<trkpt lat="42.253552" lon="3.248547"><ele>98.3</ele><time>2011-04-01T09:44:58Z</time></trkpt>
<trkpt lat="42.253372" lon="3.248318"><ele>97.6</ele><time>2011-04-01T09:45:03Z</time></trkpt>
<trkpt lat="42.253353" lon="3.248015"><ele>96.6</ele><time>2011-04-01T09:45:08Z</time></trkpt>
<trkpt lat="42.253330" lon="3.247737"><ele>95.8</ele><time>2011-04-01T09:45:13Z</time></trkpt>
<trkpt lat="42.253108" lon="3.247832"><ele>95.1</ele><time>2011-04-01T09:45:18Z</time></trkpt>
<trkpt lat="42.252853" lon="3.247908"><ele>94.3</ele><time>2011-04-01T09:45:23Z</time></trkpt>
<trkpt lat="42.252605" lon="3.247807"><ele>93.2</ele><time>2011-04-01T09:45:28Z</time></trkpt>
<trkpt lat="42.252533" lon="3.247478"><ele>92.4</ele><time>2011-04-01T09:45:33Z</time></trkpt>
<trkpt lat="42.252620" lon="3.247218"><ele>92.5</ele><time>2011-04-01T09:45:38Z</time></trkpt>
<trkpt lat="42.252632" lon="3.247038"><ele>92.8</ele><time>2011-04-01T09:45:43Z</time></trkpt>
<trkpt lat="42.252483" lon="3.247052"><ele>92.8</ele><time>2011-04-01T09:45:48Z</time></trkpt>
<trkpt lat="42.252327" lon="3.247255"><ele>92</ele><time>2011-04-01T09:45:53Z</time></trkpt>
<trkpt lat="42.252098" lon="3.247438"><ele>90.7</ele><time>2011-04-01T09:45:58Z</time></trkpt>
<trkpt lat="42.251838" lon="3.247625"><ele>89.7</ele><time>2011-04-01T09:46:03Z</time></trkpt>
<trkpt lat="42.251537" lon="3.247655"><ele>88.1</ele><time>2011-04-01T09:46:08Z</time></trkpt>
<trkpt lat="42.251217" lon="3.247648"><ele>86.5</ele><time>2011-04-01T09:46:13Z</time></trkpt>
<trkpt lat="42.250908" lon="3.247738"><ele>85</ele><time>2011-04-01T09:46:18Z</time></trkpt>
<trkpt lat="42.250592" lon="3.247790"><ele>83.5</ele><time>2011-04-01T09:46:23Z</time></trkpt>
<trkpt lat="42.250358" lon="3.248100"><ele>81.7</ele><time>2011-04-01T09:46:28Z</time></trkpt>
<trkpt lat="42.250187" lon="3.248407"><ele>79.8</ele><time>2011-04-01T09:46:33Z</time></trkpt>
<trkpt lat="42.249932" lon="3.248575"><ele>78.1</ele><time>2011-04-01T09:46:38Z</time></trkpt>
<trkpt lat="42.249618" lon="3.248608"><ele>76.6</ele><time>2011-04-01T09:46:43Z</time></trkpt>
<trkpt lat="42.249382" lon="3.248852"><ele>75.1</ele><time>2011-04-01T09:46:48Z</time></trkpt>
<trkpt lat="42.249272" lon="3.249257"><ele>73</ele><time>2011-04-01T09:46:53Z</time></trkpt>
<trkpt lat="42.249000" lon="3.249512"><ele>71.3</ele><time>2011-04-01T09:46:58Z</time></trkpt>
<trkpt lat="42.248753" lon="3.249517"><ele>69.6</ele><time>2011-04-01T09:47:03Z</time></trkpt>
<trkpt lat="42.248550" lon="3.249250"><ele>67.9</ele><time>2011-04-01T09:47:08Z</time></trkpt>
<trkpt lat="42.248390" lon="3.248910"><ele>66.3</ele><time>2011-04-01T09:47:13Z</time></trkpt>
<trkpt lat="42.248307" lon="3.248497"><ele>64.5</ele><time>2011-04-01T09:47:18Z</time></trkpt>
<trkpt lat="42.248272" lon="3.248083"><ele>63</ele><time>2011-04-01T09:47:23Z</time></trkpt>
<trkpt lat="42.248280" lon="3.247673"><ele>61.3</ele><time>2011-04-01T09:47:28Z</time></trkpt>
<trkpt lat="42.248032" lon="3.247485"><ele>59.5</ele><time>2011-04-01T09:47:33Z</time></trkpt>
<trkpt lat="42.247772" lon="3.247468"><ele>58.1</ele><time>2011-04-01T09:47:38Z</time></trkpt>
<trkpt lat="42.247822" lon="3.247163"><ele>56.7</ele><time>2011-04-01T09:47:43Z</time></trkpt>
<trkpt lat="42.247958" lon="3.246835"><ele>55.2</ele><time>2011-04-01T09:47:48Z</time></trkpt>
<trkpt lat="42.248150" lon="3.246507"><ele>53.5</ele><time>2011-04-01T09:47:53Z</time></trkpt>
<trkpt lat="42.248402" lon="3.246252"><ele>51.6</ele><time>2011-04-01T09:47:58Z</time></trkpt>
<trkpt lat="42.248703" lon="3.246225"><ele>50</ele><time>2011-04-01T09:48:03Z</time></trkpt>
<trkpt lat="42.249008" lon="3.246412"><ele>48</ele><time>2011-04-01T09:48:08Z</time></trkpt>
<trkpt lat="42.249332" lon="3.246420"><ele>46.4</ele><time>2011-04-01T09:48:13Z</time></trkpt>
<trkpt lat="42.249588" lon="3.246142"><ele>44.5</ele><time>2011-04-01T09:48:18Z</time></trkpt>
<trkpt lat="42.249863" lon="3.245830"><ele>42.2</ele><time>2011-04-01T09:48:23Z</time></trkpt>
<trkpt lat="42.250183" lon="3.245602"><ele>40.1</ele><time>2011-04-01T09:48:28Z</time></trkpt>
<trkpt lat="42.250538" lon="3.245490"><ele>38</ele><time>2011-04-01T09:48:33Z</time></trkpt>
<trkpt lat="42.250888" lon="3.245513"><ele>36.2</ele><time>2011-04-01T09:48:38Z</time></trkpt>
<trkpt lat="42.251133" lon="3.245240"><ele>34.4</ele><time>2011-04-01T09:48:43Z</time></trkpt>
<trkpt lat="42.251057" lon="3.244812"><ele>31.9</ele><time>2011-04-01T09:48:48Z</time></trkpt>
<trkpt lat="42.251075" lon="3.244417"><ele>29.8</ele><time>2011-04-01T09:48:53Z</time></trkpt>
<trkpt lat="42.251300" lon="3.244097"><ele>27.9</ele><time>2011-04-01T09:48:58Z</time></trkpt>
<trkpt lat="42.251563" lon="3.243825"><ele>26.5</ele><time>2011-04-01T09:49:03Z</time></trkpt>
<trkpt lat="42.251702" lon="3.243475"><ele>25.8</ele><time>2011-04-01T09:49:08Z</time></trkpt>
<trkpt lat="42.251507" lon="3.243278"><ele>25.6</ele><time>2011-04-01T09:49:13Z</time></trkpt>
<trkpt lat="42.251290" lon="3.243305"><ele>26</ele><time>2011-04-01T09:49:18Z</time></trkpt>
<trkpt lat="42.251118" lon="3.243188"><ele>26.9</ele><time>2011-04-01T09:49:23Z</time></trkpt>
<trkpt lat="42.250977" lon="3.243017"><ele>28.2</ele><time>2011-04-01T09:49:28Z</time></trkpt>
<trkpt lat="42.250835" lon="3.242857"><ele>29.2</ele><time>2011-04-01T09:49:33Z</time></trkpt>
<trkpt lat="42.250725" lon="3.242643"><ele>30.9</ele><time>2011-04-01T09:49:38Z</time></trkpt>
<trkpt lat="42.250698" lon="3.242373"><ele>31.5</ele><time>2011-04-01T09:49:43Z</time></trkpt>
<trkpt lat="42.250737" lon="3.242092"><ele>32</ele><time>2011-04-01T09:49:48Z</time></trkpt>
<trkpt lat="42.250858" lon="3.241823"><ele>31.4</ele><time>2011-04-01T09:49:53Z</time></trkpt>
<trkpt lat="42.251030" lon="3.241582"><ele>30.3</ele><time>2011-04-01T09:49:58Z</time></trkpt>
<trkpt lat="42.251225" lon="3.241315"><ele>28.9</ele><time>2011-04-01T09:50:03Z</time></trkpt>
<trkpt lat="42.251418" lon="3.241018"><ele>27.3</ele><time>2011-04-01T09:50:08Z</time></trkpt>
<trkpt lat="42.251583" lon="3.240670"><ele>26</ele><time>2011-04-01T09:50:13Z</time></trkpt>
<trkpt lat="42.251720" lon="3.240280"><ele>24.4</ele><time>2011-04-01T09:50:18Z</time></trkpt>
<trkpt lat="42.251877" lon="3.239915"><ele>22.5</ele><time>2011-04-01T09:50:23Z</time></trkpt>
<trkpt lat="42.251918" lon="3.239472"><ele>20</ele><time>2011-04-01T09:50:28Z</time></trkpt>
<trkpt lat="42.252137" lon="3.239118"><ele>18.6</ele><time>2011-04-01T09:50:33Z</time></trkpt>
<trkpt lat="42.252270" lon="3.238720"><ele>16.8</ele><time>2011-04-01T09:50:38Z</time></trkpt>
<trkpt lat="42.252072" lon="3.238490"><ele>16.6</ele><time>2011-04-01T09:50:43Z</time></trkpt>
<trkpt lat="42.251877" lon="3.238453"><ele>17.8</ele><time>2011-04-01T09:50:48Z</time></trkpt>
<trkpt lat="42.251755" lon="3.238320"><ele>19.6</ele><time>2011-04-01T09:50:53Z</time></trkpt>
<trkpt lat="42.251682" lon="3.238123"><ele>21.2</ele><time>2011-04-01T09:50:58Z</time></trkpt>
<trkpt lat="42.251590" lon="3.237950"><ele>22.6</ele><time>2011-04-01T09:51:03Z</time></trkpt>
<trkpt lat="42.251477" lon="3.237842"><ele>23.9</ele><time>2011-04-01T09:51:08Z</time></trkpt>
<trkpt lat="42.251358" lon="3.237757"><ele>25.2</ele><time>2011-04-01T09:51:13Z</time></trkpt>
<trkpt lat="42.251237" lon="3.237692"><ele>26.4</ele><time>2011-04-01T09:51:18Z</time></trkpt>
<trkpt lat="42.251098" lon="3.237692"><ele>27.3</ele><time>2011-04-01T09:51:23Z</time></trkpt>
<trkpt lat="42.250965" lon="3.237685"><ele>28.5</ele><time>2011-04-01T09:51:28Z</time></trkpt>
<trkpt lat="42.250835" lon="3.237652"><ele>29.9</ele><time>2011-04-01T09:51:33Z</time></trkpt>
<trkpt lat="42.250713" lon="3.237602"><ele>30.9</ele><time>2011-04-01T09:51:38Z</time></trkpt>
<trkpt lat="42.250587" lon="3.237575"><ele>32</ele><time>2011-04-01T09:51:43Z</time></trkpt>
<trkpt lat="42.250470" lon="3.237545"><ele>33</ele><time>2011-04-01T09:51:48Z</time></trkpt>
<trkpt lat="42.250343" lon="3.237492"><ele>33.7</ele><time>2011-04-01T09:51:53Z</time></trkpt>
<trkpt lat="42.250225" lon="3.237425"><ele>34.7</ele><time>2011-04-01T09:51:58Z</time></trkpt>
<trkpt lat="42.250115" lon="3.237362"><ele>35.6</ele><time>2011-04-01T09:52:03Z</time></trkpt>
<trkpt lat="42.249997" lon="3.237308"><ele>36.8</ele><time>2011-04-01T09:52:08Z</time></trkpt>
<trkpt lat="42.249882" lon="3.237258"><ele>37.9</ele><time>2011-04-01T09:52:13Z</time></trkpt>
<trkpt lat="42.249763" lon="3.237218"><ele>39.1</ele><time>2011-04-01T09:52:18Z</time></trkpt>
<trkpt lat="42.249648" lon="3.237200"><ele>39.9</ele><time>2011-04-01T09:52:23Z</time></trkpt>
<trkpt lat="42.249530" lon="3.237175"><ele>41.1</ele><time>2011-04-01T09:52:28Z</time></trkpt>
<trkpt lat="42.249405" lon="3.237132"><ele>42.1</ele><time>2011-04-01T09:52:33Z</time></trkpt>
<trkpt lat="42.249290" lon="3.237068"><ele>42.8</ele><time>2011-04-01T09:52:38Z</time></trkpt>
<trkpt lat="42.249168" lon="3.236990"><ele>43.3</ele><time>2011-04-01T09:52:43Z</time></trkpt>
<trkpt lat="42.249043" lon="3.236917"><ele>44.1</ele><time>2011-04-01T09:52:48Z</time></trkpt>
<trkpt lat="42.248925" lon="3.236843"><ele>45.3</ele><time>2011-04-01T09:52:53Z</time></trkpt>
<trkpt lat="42.248855" lon="3.236702"><ele>46.1</ele><time>2011-04-01T09:52:58Z</time></trkpt>
<trkpt lat="42.248828" lon="3.236517"><ele>46.3</ele><time>2011-04-01T09:53:03Z</time></trkpt>
<trkpt lat="42.248905" lon="3.236325"><ele>46</ele><time>2011-04-01T09:53:08Z</time></trkpt>
<trkpt lat="42.249008" lon="3.236143"><ele>46.1</ele><time>2011-04-01T09:53:13Z</time></trkpt>
<trkpt lat="42.249118" lon="3.235950"><ele>46.2</ele><time>2011-04-01T09:53:18Z</time></trkpt>
<trkpt lat="42.249252" lon="3.235762"><ele>45.8</ele><time>2011-04-01T09:53:23Z</time></trkpt>
<trkpt lat="42.249417" lon="3.235562"><ele>45.3</ele><time>2011-04-01T09:53:28Z</time></trkpt>
<trkpt lat="42.249592" lon="3.235350"><ele>44.6</ele><time>2011-04-01T09:53:33Z</time></trkpt>
<trkpt lat="42.249588" lon="3.235012"><ele>43.4</ele><time>2011-04-01T09:53:38Z</time></trkpt>
<trkpt lat="42.249447" lon="3.234647"><ele>41.3</ele><time>2011-04-01T09:53:43Z</time></trkpt>
<trkpt lat="42.249337" lon="3.234220"><ele>39.6</ele><time>2011-04-01T09:53:48Z</time></trkpt>
<trkpt lat="42.249337" lon="3.233767"><ele>38.5</ele><time>2011-04-01T09:53:53Z</time></trkpt>
<trkpt lat="42.249423" lon="3.233333"><ele>37</ele><time>2011-04-01T09:53:58Z</time></trkpt>
<trkpt lat="42.249527" lon="3.232937"><ele>35.9</ele><time>2011-04-01T09:54:03Z</time></trkpt>
<trkpt lat="42.249702" lon="3.232652"><ele>34.4</ele><time>2011-04-01T09:54:08Z</time></trkpt>
<trkpt lat="42.249977" lon="3.232475"><ele>32.5</ele><time>2011-04-01T09:54:13Z</time></trkpt>
<trkpt lat="42.250278" lon="3.232298"><ele>30.5</ele><time>2011-04-01T09:54:18Z</time></trkpt>
<trkpt lat="42.250500" lon="3.231980"><ele>28.1</ele><time>2011-04-01T09:54:23Z</time></trkpt>
<trkpt lat="42.250607" lon="3.231653"><ele>25.4</ele><time>2011-04-01T09:54:28Z</time></trkpt>
<trkpt lat="42.250790" lon="3.231328"><ele>23.2</ele><time>2011-04-01T09:54:33Z</time></trkpt>
<trkpt lat="42.251072" lon="3.231103"><ele>21.1</ele><time>2011-04-01T09:54:38Z</time></trkpt>
<trkpt lat="42.251355" lon="3.230917"><ele>19</ele><time>2011-04-01T09:54:43Z</time></trkpt>
<trkpt lat="42.251563" lon="3.230567"><ele>16.9</ele><time>2011-04-01T09:54:48Z</time></trkpt>
<trkpt lat="42.251842" lon="3.230295"><ele>15.4</ele><time>2011-04-01T09:54:53Z</time></trkpt>
<trkpt lat="42.251907" lon="3.229835"><ele>13.7</ele><time>2011-04-01T09:54:58Z</time></trkpt>
<trkpt lat="42.252098" lon="3.229463"><ele>12.4</ele><time>2011-04-01T09:55:03Z</time></trkpt>
<trkpt lat="42.252373" lon="3.229228"><ele>10.8</ele><time>2011-04-01T09:55:08Z</time></trkpt>
<trkpt lat="42.252510" lon="3.228890"><ele>10.2</ele><time>2011-04-01T09:55:13Z</time></trkpt>
<trkpt lat="42.252667" lon="3.228622"><ele>9.1</ele><time>2011-04-01T09:55:18Z</time></trkpt>
<trkpt lat="42.252792" lon="3.228287"><ele>8.6</ele><time>2011-04-01T09:55:23Z</time></trkpt>
<trkpt lat="42.252888" lon="3.227973"><ele>7.9</ele><time>2011-04-01T09:55:28Z</time></trkpt>
<trkpt lat="42.252987" lon="3.227633"><ele>6.4</ele><time>2011-04-01T09:55:33Z</time></trkpt>
<trkpt lat="42.253162" lon="3.227337"><ele>5.9</ele><time>2011-04-01T09:55:38Z</time></trkpt>
<trkpt lat="42.253232" lon="3.227005"><ele>5</ele><time>2011-04-01T09:55:43Z</time></trkpt>
<trkpt lat="42.253215" lon="3.226652"><ele>4.5</ele><time>2011-04-01T09:55:48Z</time></trkpt>
<trkpt lat="42.253147" lon="3.226340"><ele>4</ele><time>2011-04-01T09:55:53Z</time></trkpt>
<trkpt lat="42.252998" lon="3.226088"><ele>3.8</ele><time>2011-04-01T09:55:58Z</time></trkpt>
<trkpt lat="42.252835" lon="3.225870"><ele>4.4</ele><time>2011-04-01T09:56:03Z</time></trkpt>
<trkpt lat="42.252610" lon="3.225780"><ele>5.6</ele><time>2011-04-01T09:56:08Z</time></trkpt>
<trkpt lat="42.252400" lon="3.225747"><ele>6.5</ele><time>2011-04-01T09:56:13Z</time></trkpt>
<trkpt lat="42.252197" lon="3.225753"><ele>6.8</ele><time>2011-04-01T09:56:18Z</time></trkpt>
<trkpt lat="42.251992" lon="3.225787"><ele>7.5</ele><time>2011-04-01T09:56:23Z</time></trkpt>
<trkpt lat="42.251788" lon="3.225810"><ele>8.4</ele><time>2011-04-01T09:56:28Z</time></trkpt>
<trkpt lat="42.251583" lon="3.225807"><ele>11.4</ele><time>2011-04-01T09:56:33Z</time></trkpt>
<trkpt lat="42.251403" lon="3.225812"><ele>13.8</ele><time>2011-04-01T09:56:38Z</time></trkpt>
<trkpt lat="42.251228" lon="3.225807"><ele>13.8</ele><time>2011-04-01T09:56:43Z</time></trkpt>
<trkpt lat="42.251057" lon="3.225848"><ele>13.9</ele><time>2011-04-01T09:56:48Z</time></trkpt>
<trkpt lat="42.250885" lon="3.225880"><ele>14.1</ele><time>2011-04-01T09:56:53Z</time></trkpt>
<trkpt lat="42.250710" lon="3.225907"><ele>15</ele><time>2011-04-01T09:56:58Z</time></trkpt>
<trkpt lat="42.250533" lon="3.225925"><ele>15.7</ele><time>2011-04-01T09:57:03Z</time></trkpt>
<trkpt lat="42.250362" lon="3.225935"><ele>16.5</ele><time>2011-04-01T09:57:08Z</time></trkpt>
<trkpt lat="42.250213" lon="3.225980"><ele>17.4</ele><time>2011-04-01T09:57:13Z</time></trkpt>
<trkpt lat="42.250077" lon="3.226052"><ele>19</ele><time>2011-04-01T09:57:18Z</time></trkpt>
<trkpt lat="42.249950" lon="3.226095"><ele>20.1</ele><time>2011-04-01T09:57:23Z</time></trkpt>
<trkpt lat="42.249820" lon="3.226067"><ele>20.9</ele><time>2011-04-01T09:57:28Z</time></trkpt>
<trkpt lat="42.249725" lon="3.225953"><ele>21.6</ele><time>2011-04-01T09:57:33Z</time></trkpt>
<trkpt lat="42.249680" lon="3.225798"><ele>22.7</ele><time>2011-04-01T09:57:38Z</time></trkpt>
<trkpt lat="42.249627" lon="3.225638"><ele>23.5</ele><time>2011-04-01T09:57:43Z</time></trkpt>
<trkpt lat="42.249562" lon="3.225493"><ele>24.3</ele><time>2011-04-01T09:57:48Z</time></trkpt>
<trkpt lat="42.249485" lon="3.225352"><ele>24.7</ele><time>2011-04-01T09:57:53Z</time></trkpt>
<trkpt lat="42.249382" lon="3.225235"><ele>25.4</ele><time>2011-04-01T09:57:58Z</time></trkpt>
<trkpt lat="42.249275" lon="3.225118"><ele>26</ele><time>2011-04-01T09:58:03Z</time></trkpt>
<trkpt lat="42.249172" lon="3.224995"><ele>27.3</ele><time>2011-04-01T09:58:08Z</time></trkpt>
<trkpt lat="42.249077" lon="3.224853"><ele>28.3</ele><time>2011-04-01T09:58:13Z</time></trkpt>
<trkpt lat="42.248993" lon="3.224693"><ele>29.4</ele><time>2011-04-01T09:58:18Z</time></trkpt>
<trkpt lat="42.248928" lon="3.224517"><ele>30.7</ele><time>2011-04-01T09:58:23Z</time></trkpt>
<trkpt lat="42.248822" lon="3.224375"><ele>31.9</ele><time>2011-04-01T09:58:28Z</time></trkpt>
<trkpt lat="42.248680" lon="3.224350"><ele>33.3</ele><time>2011-04-01T09:58:33Z</time></trkpt>
<trkpt lat="42.248543" lon="3.224373"><ele>35.1</ele><time>2011-04-01T09:58:38Z</time></trkpt>
<trkpt lat="42.248405" lon="3.224442"><ele>35.8</ele><time>2011-04-01T09:58:43Z</time></trkpt>
<trkpt lat="42.248328" lon="3.224610"><ele>36.4</ele><time>2011-04-01T09:58:48Z</time></trkpt>
<trkpt lat="42.248328" lon="3.224805"><ele>37.5</ele><time>2011-04-01T09:58:53Z</time></trkpt>
<trkpt lat="42.248322" lon="3.224995"><ele>38.6</ele><time>2011-04-01T09:58:58Z</time></trkpt>
<trkpt lat="42.248310" lon="3.225182"><ele>39.8</ele><time>2011-04-01T09:59:03Z</time></trkpt>
<trkpt lat="42.248295" lon="3.225367"><ele>40.7</ele><time>2011-04-01T09:59:08Z</time></trkpt>
<trkpt lat="42.248275" lon="3.225550"><ele>41.6</ele><time>2011-04-01T09:59:13Z</time></trkpt>
<trkpt lat="42.248260" lon="3.225733"><ele>42.3</ele><time>2011-04-01T09:59:18Z</time></trkpt>
<trkpt lat="42.248257" lon="3.225920"><ele>43.3</ele><time>2011-04-01T09:59:23Z</time></trkpt>
<trkpt lat="42.248233" lon="3.226112"><ele>44.1</ele><time>2011-04-01T09:59:28Z</time></trkpt>
<trkpt lat="42.248188" lon="3.226290"><ele>45.1</ele><time>2011-04-01T09:59:33Z</time></trkpt>
<trkpt lat="42.248120" lon="3.226457"><ele>45.8</ele><time>2011-04-01T09:59:38Z</time></trkpt>
<trkpt lat="42.248028" lon="3.226602"><ele>46.5</ele><time>2011-04-01T09:59:43Z</time></trkpt>
<trkpt lat="42.247913" lon="3.226718"><ele>47.2</ele><time>2011-04-01T09:59:48Z</time></trkpt>
<trkpt lat="42.247780" lon="3.226793"><ele>48</ele><time>2011-04-01T09:59:53Z</time></trkpt>
<trkpt lat="42.247643" lon="3.226840"><ele>49</ele><time>2011-04-01T09:59:58Z</time></trkpt>
<trkpt lat="42.247508" lon="3.226872"><ele>49.8</ele><time>2011-04-01T10:00:03Z</time></trkpt>
<trkpt lat="42.247372" lon="3.226913"><ele>50.7</ele><time>2011-04-01T10:00:08Z</time></trkpt>
<trkpt lat="42.247235" lon="3.226953"><ele>51.7</ele><time>2011-04-01T10:00:13Z</time></trkpt>
<trkpt lat="42.247093" lon="3.227003"><ele>52.7</ele><time>2011-04-01T10:00:18Z</time></trkpt>
<trkpt lat="42.246983" lon="3.227113"><ele>53.7</ele><time>2011-04-01T10:00:23Z</time></trkpt>
<trkpt lat="42.246883" lon="3.227245"><ele>55</ele><time>2011-04-01T10:00:28Z</time></trkpt>
<trkpt lat="42.246768" lon="3.227360"><ele>56.1</ele><time>2011-04-01T10:00:33Z</time></trkpt>
<trkpt lat="42.246643" lon="3.227437"><ele>57</ele><time>2011-04-01T10:00:38Z</time></trkpt>
<trkpt lat="42.246502" lon="3.227483"><ele>58</ele><time>2011-04-01T10:00:43Z</time></trkpt>
<trkpt lat="42.246365" lon="3.227518"><ele>59.1</ele><time>2011-04-01T10:00:48Z</time></trkpt>
<trkpt lat="42.246215" lon="3.227570"><ele>60.1</ele><time>2011-04-01T10:00:53Z</time></trkpt>
<trkpt lat="42.246087" lon="3.227660"><ele>61</ele><time>2011-04-01T10:00:58Z</time></trkpt>
<trkpt lat="42.245975" lon="3.227777"><ele>61.9</ele><time>2011-04-01T10:01:03Z</time></trkpt>
<trkpt lat="42.245862" lon="3.227895"><ele>63</ele><time>2011-04-01T10:01:08Z</time></trkpt>
<trkpt lat="42.245743" lon="3.228003"><ele>64</ele><time>2011-04-01T10:01:13Z</time></trkpt>
<trkpt lat="42.245593" lon="3.228028"><ele>65</ele><time>2011-04-01T10:01:18Z</time></trkpt>
<trkpt lat="42.245460" lon="3.227940"><ele>65.9</ele><time>2011-04-01T10:01:23Z</time></trkpt>
<trkpt lat="42.245377" lon="3.227773"><ele>66.8</ele><time>2011-04-01T10:01:28Z</time></trkpt>
<trkpt lat="42.245373" lon="3.227578"><ele>67.8</ele><time>2011-04-01T10:01:33Z</time></trkpt>
<trkpt lat="42.245422" lon="3.227408"><ele>68.7</ele><time>2011-04-01T10:01:38Z</time></trkpt>
<trkpt lat="42.245472" lon="3.227237"><ele>69.6</ele><time>2011-04-01T10:01:43Z</time></trkpt>
<trkpt lat="42.245525" lon="3.227067"><ele>70.4</ele><time>2011-04-01T10:01:48Z</time></trkpt>
<trkpt lat="42.245578" lon="3.226893"><ele>71.1</ele><time>2011-04-01T10:01:53Z</time></trkpt>
<trkpt lat="42.245625" lon="3.226722"><ele>71.9</ele><time>2011-04-01T10:01:58Z</time></trkpt>
<trkpt lat="42.245663" lon="3.226545"><ele>72.7</ele><time>2011-04-01T10:02:03Z</time></trkpt>
<trkpt lat="42.245693" lon="3.226368"><ele>73.6</ele><time>2011-04-01T10:02:08Z</time></trkpt>
<trkpt lat="42.245717" lon="3.226188"><ele>74.6</ele><time>2011-04-01T10:02:13Z</time></trkpt>
<trkpt lat="42.245738" lon="3.226007"><ele>75.5</ele><time>2011-04-01T10:02:18Z</time></trkpt>
<trkpt lat="42.245755" lon="3.225827"><ele>76.4</ele><time>2011-04-01T10:02:23Z</time></trkpt>
<trkpt lat="42.245765" lon="3.225638"><ele>77.2</ele><time>2011-04-01T10:02:28Z</time></trkpt>
<trkpt lat="42.245770" lon="3.225452"><ele>78.2</ele><time>2011-04-01T10:02:33Z</time></trkpt>
<trkpt lat="42.245765" lon="3.225268"><ele>79.1</ele><time>2011-04-01T10:02:38Z</time></trkpt>
<trkpt lat="42.245765" lon="3.225082"><ele>80</ele><time>2011-04-01T10:02:43Z</time></trkpt>
<trkpt lat="42.245765" lon="3.224897"><ele>80.9</ele><time>2011-04-01T10:02:48Z</time></trkpt>
<trkpt lat="42.245758" lon="3.224710"><ele>81.8</ele><time>2011-04-01T10:02:53Z</time></trkpt>
<trkpt lat="42.245738" lon="3.224530"><ele>82.8</ele><time>2011-04-01T10:02:58Z</time></trkpt>
<trkpt lat="42.245697" lon="3.224358"><ele>83.6</ele><time>2011-04-01T10:03:03Z</time></trkpt>
<trkpt lat="42.245637" lon="3.224207"><ele>84.6</ele><time>2011-04-01T10:03:08Z</time></trkpt>
<trkpt lat="42.245563" lon="3.224058"><ele>85.6</ele><time>2011-04-01T10:03:13Z</time></trkpt>
<trkpt lat="42.245495" lon="3.223900"><ele>86.4</ele><time>2011-04-01T10:03:18Z</time></trkpt>
<trkpt lat="42.245448" lon="3.223728"><ele>87.2</ele><time>2011-04-01T10:03:23Z</time></trkpt>
<trkpt lat="42.245422" lon="3.223543"><ele>88.2</ele><time>2011-04-01T10:03:28Z</time></trkpt>
<trkpt lat="42.245407" lon="3.223353"><ele>89.3</ele><time>2011-04-01T10:03:33Z</time></trkpt>
<trkpt lat="42.245388" lon="3.223163"><ele>90.3</ele><time>2011-04-01T10:03:38Z</time></trkpt>
<trkpt lat="42.245373" lon="3.222980"><ele>91.3</ele><time>2011-04-01T10:03:43Z</time></trkpt>
<trkpt lat="42.245338" lon="3.222800"><ele>92.4</ele><time>2011-04-01T10:03:48Z</time></trkpt>
<trkpt lat="42.245267" lon="3.222640"><ele>93.4</ele><time>2011-04-01T10:03:53Z</time></trkpt>
<trkpt lat="42.245152" lon="3.222543"><ele>94.7</ele><time>2011-04-01T10:03:58Z</time></trkpt>
<trkpt lat="42.245015" lon="3.222527"><ele>95.6</ele><time>2011-04-01T10:04:03Z</time></trkpt>
<trkpt lat="42.244888" lon="3.222542"><ele>96.4</ele><time>2011-04-01T10:04:08Z</time></trkpt>
<trkpt lat="42.244758" lon="3.222558"><ele>97.3</ele><time>2011-04-01T10:04:13Z</time></trkpt>
<trkpt lat="42.244625" lon="3.222577"><ele>98.2</ele><time>2011-04-01T10:04:18Z</time></trkpt>
<trkpt lat="42.244492" lon="3.222590"><ele>99</ele><time>2011-04-01T10:04:23Z</time></trkpt>
<trkpt lat="42.244355" lon="3.222587"><ele>99.9</ele><time>2011-04-01T10:04:28Z</time></trkpt>
<trkpt lat="42.244217" lon="3.222560"><ele>100.8</ele><time>2011-04-01T10:04:33Z</time></trkpt>
<trkpt lat="42.244083" lon="3.222498"><ele>101.7</ele><time>2011-04-01T10:04:38Z</time></trkpt>
<trkpt lat="42.243980" lon="3.222402"><ele>102.8</ele><time>2011-04-01T10:04:43Z</time></trkpt>
<trkpt lat="42.243900" lon="3.222273"><ele>103.6</ele><time>2011-04-01T10:04:48Z</time></trkpt>
<trkpt lat="42.243855" lon="3.222110"><ele>104.5</ele><time>2011-04-01T10:04:53Z</time></trkpt>
<trkpt lat="42.243823" lon="3.221935"><ele>105.5</ele><time>2011-04-01T10:04:58Z</time></trkpt>
<trkpt lat="42.243805" lon="3.221755"><ele>106.6</ele><time>2011-04-01T10:05:03Z</time></trkpt>
<trkpt lat="42.243813" lon="3.221588"><ele>107.5</ele><time>2011-04-01T10:05:08Z</time></trkpt>
<trkpt lat="42.243828" lon="3.221443"><ele>108.1</ele><time>2011-04-01T10:05:13Z</time></trkpt>
<trkpt lat="42.243858" lon="3.221300"><ele>108.7</ele><time>2011-04-01T10:05:18Z</time></trkpt>
<trkpt lat="42.243897" lon="3.221152"><ele>109.1</ele><time>2011-04-01T10:05:23Z</time></trkpt>
<trkpt lat="42.243942" lon="3.221008"><ele>109.6</ele><time>2011-04-01T10:05:28Z</time></trkpt>
<trkpt lat="42.243988" lon="3.220865"><ele>110.2</ele><time>2011-04-01T10:05:33Z</time></trkpt>
<trkpt lat="42.244038" lon="3.220733"><ele>110.6</ele><time>2011-04-01T10:05:38Z</time></trkpt>
<trkpt lat="42.244083" lon="3.220588"><ele>111.3</ele><time>2011-04-01T10:05:43Z</time></trkpt>
<trkpt lat="42.244087" lon="3.220427"><ele>112.4</ele><time>2011-04-01T10:05:48Z</time></trkpt>
<trkpt lat="42.244060" lon="3.220265"><ele>113.6</ele><time>2011-04-01T10:05:53Z</time></trkpt>
<trkpt lat="42.244022" lon="3.220115"><ele>115.2</ele><time>2011-04-01T10:05:58Z</time></trkpt>
<trkpt lat="42.243985" lon="3.219972"><ele>116.9</ele><time>2011-04-01T10:06:03Z</time></trkpt>
<trkpt lat="42.243953" lon="3.219817"><ele>118.7</ele><time>2011-04-01T10:06:08Z</time></trkpt>
<trkpt lat="42.243980" lon="3.219652"><ele>119.7</ele><time>2011-04-01T10:06:13Z</time></trkpt>
<trkpt lat="42.244065" lon="3.219527"><ele>119.6</ele><time>2011-04-01T10:06:18Z</time></trkpt>
<trkpt lat="42.244187" lon="3.219473"><ele>119.9</ele><time>2011-04-01T10:06:23Z</time></trkpt>
<trkpt lat="42.244305" lon="3.219500"><ele>121.7</ele><time>2011-04-01T10:06:28Z</time></trkpt>
<trkpt lat="42.244423" lon="3.219505"><ele>123.7</ele><time>2011-04-01T10:06:33Z</time></trkpt>
<trkpt lat="42.244537" lon="3.219433"><ele>123.8</ele><time>2011-04-01T10:06:38Z</time></trkpt>
<trkpt lat="42.244610" lon="3.219295"><ele>124.3</ele><time>2011-04-01T10:06:43Z</time></trkpt>
<trkpt lat="42.244625" lon="3.219135"><ele>125</ele><time>2011-04-01T10:06:48Z</time></trkpt>
<trkpt lat="42.244583" lon="3.218983"><ele>126.3</ele><time>2011-04-01T10:06:53Z</time></trkpt>
<trkpt lat="42.244495" lon="3.218875"><ele>126.7</ele><time>2011-04-01T10:06:58Z</time></trkpt>
<trkpt lat="42.244370" lon="3.218828"><ele>127.2</ele><time>2011-04-01T10:07:03Z</time></trkpt>
<trkpt lat="42.244247" lon="3.218878"><ele>128.4</ele><time>2011-04-01T10:07:08Z</time></trkpt>
<trkpt lat="42.244125" lon="3.218967"><ele>129.2</ele><time>2011-04-01T10:07:13Z</time></trkpt>
<trkpt lat="42.244007" lon="3.219053"><ele>130.1</ele><time>2011-04-01T10:07:18Z</time></trkpt>
<trkpt lat="42.243877" lon="3.219138"><ele>130.9</ele><time>2011-04-01T10:07:23Z</time></trkpt>
<trkpt lat="42.243740" lon="3.219193"><ele>131.7</ele><time>2011-04-01T10:07:28Z</time></trkpt>
<trkpt lat="42.243598" lon="3.219227"><ele>132.7</ele><time>2011-04-01T10:07:33Z</time></trkpt>
<trkpt lat="42.243453" lon="3.219253"><ele>133.5</ele><time>2011-04-01T10:07:38Z</time></trkpt>
<trkpt lat="42.243305" lon="3.219253"><ele>134.2</ele><time>2011-04-01T10:07:43Z</time></trkpt>
<trkpt lat="42.243163" lon="3.219228"><ele>135</ele><time>2011-04-01T10:07:48Z</time></trkpt>
<trkpt lat="42.243023" lon="3.219168"><ele>135.7</ele><time>2011-04-01T10:07:53Z</time></trkpt>
<trkpt lat="42.242902" lon="3.219060"><ele>136.7</ele><time>2011-04-01T10:07:58Z</time></trkpt>
<trkpt lat="42.242802" lon="3.218912"><ele>137.9</ele><time>2011-04-01T10:08:03Z</time></trkpt>
<trkpt lat="42.242737" lon="3.218742"><ele>138.6</ele><time>2011-04-01T10:08:08Z</time></trkpt>
<trkpt lat="42.242680" lon="3.218565"><ele>139.4</ele><time>2011-04-01T10:08:13Z</time></trkpt>
<trkpt lat="42.242622" lon="3.218392"><ele>140.1</ele><time>2011-04-01T10:08:18Z</time></trkpt>
<trkpt lat="42.242565" lon="3.218225"><ele>140.9</ele><time>2011-04-01T10:08:23Z</time></trkpt>
<trkpt lat="42.242508" lon="3.218060"><ele>141.9</ele><time>2011-04-01T10:08:28Z</time></trkpt>
<trkpt lat="42.242432" lon="3.217902"><ele>142.8</ele><time>2011-04-01T10:08:33Z</time></trkpt>
<trkpt lat="42.242317" lon="3.217807"><ele>143.9</ele><time>2011-04-01T10:08:38Z</time></trkpt>
<trkpt lat="42.242180" lon="3.217810"><ele>144.9</ele><time>2011-04-01T10:08:43Z</time></trkpt>
<trkpt lat="42.242047" lon="3.217835"><ele>146.2</ele><time>2011-04-01T10:08:48Z</time></trkpt>
<trkpt lat="42.241905" lon="3.217858"><ele>147.5</ele><time>2011-04-01T10:08:53Z</time></trkpt>
<trkpt lat="42.241768" lon="3.217878"><ele>148.3</ele><time>2011-04-01T10:08:58Z</time></trkpt>
<trkpt lat="42.241627" lon="3.217863"><ele>148.9</ele><time>2011-04-01T10:09:03Z</time></trkpt>
<trkpt lat="42.241493" lon="3.217787"><ele>149</ele><time>2011-04-01T10:09:08Z</time></trkpt>
<trkpt lat="42.241393" lon="3.217652"><ele>149.5</ele><time>2011-04-01T10:09:13Z</time></trkpt>
<trkpt lat="42.241313" lon="3.217493"><ele>150.1</ele><time>2011-04-01T10:09:18Z</time></trkpt>
<trkpt lat="42.241233" lon="3.217332"><ele>150.8</ele><time>2011-04-01T10:09:23Z</time></trkpt>
<trkpt lat="42.241153" lon="3.217168"><ele>151.7</ele><time>2011-04-01T10:09:28Z</time></trkpt>
<trkpt lat="42.241073" lon="3.217007"><ele>152.6</ele><time>2011-04-01T10:09:33Z</time></trkpt>
<trkpt lat="42.240993" lon="3.216847"><ele>153.6</ele><time>2011-04-01T10:09:38Z</time></trkpt>
<trkpt lat="42.240913" lon="3.216685"><ele>154.5</ele><time>2011-04-01T10:09:43Z</time></trkpt>
<trkpt lat="42.240852" lon="3.216510"><ele>155.2</ele><time>2011-04-01T10:09:48Z</time></trkpt>
<trkpt lat="42.240852" lon="3.216315"><ele>155.9</ele><time>2011-04-01T10:09:53Z</time></trkpt>
<trkpt lat="42.240902" lon="3.216133"><ele>156.6</ele><time>2011-04-01T10:09:58Z</time></trkpt>
<trkpt lat="42.241020" lon="3.216008"><ele>157.3</ele><time>2011-04-01T10:10:03Z</time></trkpt>
<trkpt lat="42.241162" lon="3.215963"><ele>158.2</ele><time>2011-04-01T10:10:08Z</time></trkpt>
<trkpt lat="42.241310" lon="3.215948"><ele>158.6</ele><time>2011-04-01T10:10:13Z</time></trkpt>
<trkpt lat="42.241455" lon="3.215928"><ele>159.4</ele><time>2011-04-01T10:10:18Z</time></trkpt>
<trkpt lat="42.241603" lon="3.215902"><ele>160.1</ele><time>2011-04-01T10:10:23Z</time></trkpt>
<trkpt lat="42.241748" lon="3.215877"><ele>160.8</ele><time>2011-04-01T10:10:28Z</time></trkpt>
<trkpt lat="42.241893" lon="3.215932"><ele>161.5</ele><time>2011-04-01T10:10:33Z</time></trkpt>
<trkpt lat="42.242032" lon="3.215992"><ele>162.1</ele><time>2011-04-01T10:10:38Z</time></trkpt>
<trkpt lat="42.242177" lon="3.216042"><ele>162.9</ele><time>2011-04-01T10:10:43Z</time></trkpt>
<trkpt lat="42.242322" lon="3.216063"><ele>163.5</ele><time>2011-04-01T10:10:48Z</time></trkpt>
<trkpt lat="42.242467" lon="3.216073"><ele>164.2</ele><time>2011-04-01T10:10:53Z</time></trkpt>
<trkpt lat="42.242612" lon="3.216058"><ele>164.9</ele><time>2011-04-01T10:10:58Z</time></trkpt>
<trkpt lat="42.242748" lon="3.215983"><ele>165.7</ele><time>2011-04-01T10:11:03Z</time></trkpt>
<trkpt lat="42.242863" lon="3.215860"><ele>166.8</ele><time>2011-04-01T10:11:08Z</time></trkpt>
<trkpt lat="42.242970" lon="3.215725"><ele>167.9</ele><time>2011-04-01T10:11:13Z</time></trkpt>
<trkpt lat="42.243077" lon="3.215597"><ele>168.7</ele><time>2011-04-01T10:11:18Z</time></trkpt>
<trkpt lat="42.243118" lon="3.215542"><ele>169.2</ele><time>2011-04-01T10:11:23Z</time></trkpt>
<trkpt lat="42.243115" lon="3.215483"><ele>169.5</ele><time>2011-04-01T10:11:28Z</time></trkpt>
<trkpt lat="42.243065" lon="3.215355"><ele>170.3</ele><time>2011-04-01T10:11:33Z</time></trkpt>
<trkpt lat="42.242982" lon="3.215203"><ele>170.8</ele><time>2011-04-01T10:11:38Z</time></trkpt>
<trkpt lat="42.242992" lon="3.215008"><ele>171.3</ele><time>2011-04-01T10:11:43Z</time></trkpt>
<trkpt lat="42.242947" lon="3.214857"><ele>171.5</ele><time>2011-04-01T10:11:48Z</time></trkpt>
<trkpt lat="42.242917" lon="3.214832"><ele>171.3</ele><time>2011-04-01T10:11:53Z</time></trkpt>
<trkpt lat="42.242917" lon="3.214832"><ele>171.3</ele><time>2011-04-01T10:11:58Z</time></trkpt>
<trkpt lat="42.242917" lon="3.214832"><ele>171.5</ele><time>2011-04-01T10:12:03Z</time></trkpt>
<trkpt lat="42.242912" lon="3.214833"><ele>171.6</ele><time>2011-04-01T10:12:08Z</time></trkpt>
<trkpt lat="42.242908" lon="3.214837"><ele>171.7</ele><time>2011-04-01T10:12:13Z</time></trkpt>
<trkpt lat="42.242912" lon="3.214850"><ele>171.7</ele><time>2011-04-01T10:12:18Z</time></trkpt>
<trkpt lat="42.242897" lon="3.214815"><ele>171.5</ele><time>2011-04-01T10:12:23Z</time></trkpt>
<trkpt lat="42.242905" lon="3.214817"><ele>171.7</ele><time>2011-04-01T10:12:28Z</time></trkpt>
<trkpt lat="42.242912" lon="3.214833"><ele>171.8</ele><time>2011-04-01T10:12:33Z</time></trkpt>
<trkpt lat="42.242917" lon="3.214833"><ele>171.8</ele><time>2011-04-01T10:12:38Z</time></trkpt>
<trkpt lat="42.242917" lon="3.214832"><ele>171.7</ele><time>2011-04-01T10:12:43Z</time></trkpt>
<trkpt lat="42.242917" lon="3.214832"><ele>171.6</ele><time>2011-04-01T10:12:48Z</time></trkpt>
<trkpt lat="42.242917" lon="3.214830"><ele>171.5</ele><time>2011-04-01T10:12:53Z</time></trkpt>
<trkpt lat="42.242917" lon="3.214830"><ele>171.6</ele><time>2011-04-01T10:12:58Z</time></trkpt>
<trkpt lat="42.242917" lon="3.214828"><ele>171.6</ele><time>2011-04-01T10:13:03Z</time></trkpt>
<trkpt lat="42.242917" lon="3.214828"><ele>171.6</ele><time>2011-04-01T10:13:08Z</time></trkpt>
<trkpt lat="42.242912" lon="3.214828"><ele>171.6</ele><time>2011-04-01T10:13:13Z</time></trkpt>
<trkpt lat="42.242912" lon="3.214832"><ele>171.4</ele><time>2011-04-01T10:13:18Z</time></trkpt>
<trkpt lat="42.242912" lon="3.214832"><ele>171.2</ele><time>2011-04-01T10:13:23Z</time></trkpt>
<trkpt lat="42.242912" lon="3.214835"><ele>171.2</ele><time>2011-04-01T10:13:28Z</time></trkpt>
<trkpt lat="42.242912" lon="3.214818"><ele>171.1</ele><time>2011-04-01T10:13:33Z</time></trkpt>
<trkpt lat="42.242890" lon="3.214810"><ele>170.9</ele><time>2011-04-01T10:13:38Z</time></trkpt>
<trkpt lat="42.242885" lon="3.214812"><ele>170.8</ele><time>2011-04-01T10:13:43Z</time></trkpt>
<trkpt lat="42.242885" lon="3.214815"><ele>170.7</ele><time>2011-04-01T10:13:48Z</time></trkpt>
<trkpt lat="42.242885" lon="3.214815"><ele>170.6</ele><time>2011-04-01T10:13:53Z</time></trkpt>
<trkpt lat="42.242885" lon="3.214815"><ele>170.6</ele><time>2011-04-01T10:13:58Z</time></trkpt>
<trkpt lat="42.242893" lon="3.214812"><ele>170.6</ele><time>2011-04-01T10:14:03Z</time></trkpt>
<trkpt lat="42.242908" lon="3.214832"><ele>170.7</ele><time>2011-04-01T10:14:08Z</time></trkpt>
<trkpt lat="42.242912" lon="3.214832"><ele>170.8</ele><time>2011-04-01T10:14:13Z</time></trkpt>
<trkpt lat="42.242912" lon="3.214835"><ele>170.8</ele><time>2011-04-01T10:14:18Z</time></trkpt>
<trkpt lat="42.242912" lon="3.214833"><ele>170.8</ele><time>2011-04-01T10:14:23Z</time></trkpt>
<trkpt lat="42.242912" lon="3.214835"><ele>170.8</ele><time>2011-04-01T10:14:28Z</time></trkpt>
<trkpt lat="42.242912" lon="3.214833"><ele>170.8</ele><time>2011-04-01T10:14:33Z</time></trkpt>
<trkpt lat="42.242912" lon="3.214833"><ele>170.7</ele><time>2011-04-01T10:14:38Z</time></trkpt>
<trkpt lat="42.242912" lon="3.214830"><ele>170.7</ele><time>2011-04-01T10:14:43Z</time></trkpt>
<trkpt lat="42.242920" lon="3.214837"><ele>170.7</ele><time>2011-04-01T10:14:48Z</time></trkpt>
<trkpt lat="42.242908" lon="3.214833"><ele>170.7</ele><time>2011-04-01T10:14:53Z</time></trkpt>
<trkpt lat="42.242908" lon="3.214833"><ele>170.8</ele><time>2011-04-01T10:14:58Z</time></trkpt>
<trkpt lat="42.242905" lon="3.214843"><ele>170.8</ele><time>2011-04-01T10:15:03Z</time></trkpt>
<trkpt lat="42.242908" lon="3.214843"><ele>170.6</ele><time>2011-04-01T10:15:08Z</time></trkpt>
<trkpt lat="42.242912" lon="3.214840"><ele>170.7</ele><time>2011-04-01T10:15:13Z</time></trkpt>
<trkpt lat="42.242912" lon="3.214832"><ele>170.7</ele><time>2011-04-01T10:15:18Z</time></trkpt>
<trkpt lat="42.242932" lon="3.214853"><ele>170.8</ele><time>2011-04-01T10:15:23Z</time></trkpt>
<trkpt lat="42.242947" lon="3.214902"><ele>171</ele><time>2011-04-01T10:15:28Z</time></trkpt>
<trkpt lat="42.242988" lon="3.215052"><ele>170.9</ele><time>2011-04-01T10:15:33Z</time></trkpt>
<trkpt lat="42.242992" lon="3.215257"><ele>170.5</ele><time>2011-04-01T10:15:38Z</time></trkpt>
<trkpt lat="42.243077" lon="3.215433"><ele>170.1</ele><time>2011-04-01T10:15:43Z</time></trkpt>
<trkpt lat="42.243207" lon="3.215458"><ele>169.7</ele><time>2011-04-01T10:15:48Z</time></trkpt>
<trkpt lat="42.243358" lon="3.215357"><ele>169.5</ele><time>2011-04-01T10:15:53Z</time></trkpt>
<trkpt lat="42.243538" lon="3.215325"><ele>169.2</ele><time>2011-04-01T10:15:58Z</time></trkpt>
<trkpt lat="42.243752" lon="3.215345"><ele>168.4</ele><time>2011-04-01T10:16:03Z</time></trkpt>
<trkpt lat="42.244007" lon="3.215385"><ele>167.3</ele><time>2011-04-01T10:16:08Z</time></trkpt>
<trkpt lat="42.244267" lon="3.215557"><ele>165.9</ele><time>2011-04-01T10:16:13Z</time></trkpt>
<trkpt lat="42.244442" lon="3.215925"><ele>164.6</ele><time>2011-04-01T10:16:18Z</time></trkpt>
<trkpt lat="42.244590" lon="3.216353"><ele>163.1</ele><time>2011-04-01T10:16:23Z</time></trkpt>
<trkpt lat="42.244800" lon="3.216715"><ele>162.7</ele><time>2011-04-01T10:16:28Z</time></trkpt>
<trkpt lat="42.245063" lon="3.216817"><ele>163.4</ele><time>2011-04-01T10:16:33Z</time></trkpt>
<trkpt lat="42.245232" lon="3.216737"><ele>164.5</ele><time>2011-04-01T10:16:38Z</time></trkpt>
<trkpt lat="42.245353" lon="3.216605"><ele>165.6</ele><time>2011-04-01T10:16:43Z</time></trkpt>
<trkpt lat="42.245445" lon="3.216450"><ele>166.5</ele><time>2011-04-01T10:16:48Z</time></trkpt>
<trkpt lat="42.245530" lon="3.216307"><ele>167.4</ele><time>2011-04-01T10:16:53Z</time></trkpt>
<trkpt lat="42.245617" lon="3.216183"><ele>168.4</ele><time>2011-04-01T10:16:58Z</time></trkpt>
<trkpt lat="42.245708" lon="3.216068"><ele>169.4</ele><time>2011-04-01T10:17:03Z</time></trkpt>
<trkpt lat="42.245812" lon="3.215977"><ele>170.4</ele><time>2011-04-01T10:17:08Z</time></trkpt>
<trkpt lat="42.245922" lon="3.215907"><ele>171.2</ele><time>2011-04-01T10:17:13Z</time></trkpt>
<trkpt lat="42.246037" lon="3.215848"><ele>172.1</ele><time>2011-04-01T10:17:18Z</time></trkpt>
<trkpt lat="42.246147" lon="3.215787"><ele>172.9</ele><time>2011-04-01T10:17:23Z</time></trkpt>
<trkpt lat="42.246243" lon="3.215693"><ele>173.9</ele><time>2011-04-01T10:17:28Z</time></trkpt>
<trkpt lat="42.246323" lon="3.215565"><ele>175</ele><time>2011-04-01T10:17:33Z</time></trkpt>
<trkpt lat="42.246380" lon="3.215415"><ele>176</ele><time>2011-04-01T10:17:38Z</time></trkpt>
<trkpt lat="42.246442" lon="3.215267"><ele>176.8</ele><time>2011-04-01T10:17:43Z</time></trkpt>
<trkpt lat="42.246522" lon="3.215135"><ele>177.6</ele><time>2011-04-01T10:17:48Z</time></trkpt>
<trkpt lat="42.246620" lon="3.215035"><ele>178.4</ele><time>2011-04-01T10:17:53Z</time></trkpt>
<trkpt lat="42.246738" lon="3.214977"><ele>179.3</ele><time>2011-04-01T10:17:58Z</time></trkpt>
<trkpt lat="42.246857" lon="3.214928"><ele>180</ele><time>2011-04-01T10:18:03Z</time></trkpt>
<trkpt lat="42.246975" lon="3.214863"><ele>180.8</ele><time>2011-04-01T10:18:08Z</time></trkpt>
<trkpt lat="42.247082" lon="3.214782"><ele>181.8</ele><time>2011-04-01T10:18:13Z</time></trkpt>
<trkpt lat="42.247185" lon="3.214692"><ele>182.3</ele><time>2011-04-01T10:18:18Z</time></trkpt>
<trkpt lat="42.247292" lon="3.214605"><ele>183</ele><time>2011-04-01T10:18:23Z</time></trkpt>
<trkpt lat="42.247413" lon="3.214572"><ele>184</ele><time>2011-04-01T10:18:28Z</time></trkpt>
<trkpt lat="42.247532" lon="3.214633"><ele>185.2</ele><time>2011-04-01T10:18:33Z</time></trkpt>
<trkpt lat="42.247638" lon="3.214727"><ele>185.8</ele><time>2011-04-01T10:18:38Z</time></trkpt>
<trkpt lat="42.247772" lon="3.214772"><ele>186.3</ele><time>2011-04-01T10:18:43Z</time></trkpt>
<trkpt lat="42.247905" lon="3.214713"><ele>186.6</ele><time>2011-04-01T10:18:48Z</time></trkpt>
<trkpt lat="42.248035" lon="3.214615"><ele>187.1</ele><time>2011-04-01T10:18:53Z</time></trkpt>
<trkpt lat="42.248168" lon="3.214505"><ele>187.5</ele><time>2011-04-01T10:18:58Z</time></trkpt>
<trkpt lat="42.248325" lon="3.214418"><ele>187.7</ele><time>2011-04-01T10:19:03Z</time></trkpt>
<trkpt lat="42.248493" lon="3.214312"><ele>187.6</ele><time>2011-04-01T10:19:08Z</time></trkpt>
<trkpt lat="42.248665" lon="3.214163"><ele>187.5</ele><time>2011-04-01T10:19:13Z</time></trkpt>
<trkpt lat="42.248833" lon="3.213997"><ele>187.4</ele><time>2011-04-01T10:19:18Z</time></trkpt>
<trkpt lat="42.248988" lon="3.213797"><ele>187.1</ele><time>2011-04-01T10:19:23Z</time></trkpt>
<trkpt lat="42.249157" lon="3.213555"><ele>186.6</ele><time>2011-04-01T10:19:28Z</time></trkpt>
<trkpt lat="42.249340" lon="3.213322"><ele>186.5</ele><time>2011-04-01T10:19:33Z</time></trkpt>
<trkpt lat="42.249568" lon="3.213192"><ele>186.7</ele><time>2011-04-01T10:19:38Z</time></trkpt>
<trkpt lat="42.249810" lon="3.213040"><ele>186.4</ele><time>2011-04-01T10:19:43Z</time></trkpt>
<trkpt lat="42.249843" lon="3.212682"><ele>185.7</ele><time>2011-04-01T10:19:48Z</time></trkpt>
<trkpt lat="42.249900" lon="3.212315"><ele>185.3</ele><time>2011-04-01T10:19:53Z</time></trkpt>
<trkpt lat="42.250080" lon="3.212012"><ele>184.6</ele><time>2011-04-01T10:19:58Z</time></trkpt>
<trkpt lat="42.250298" lon="3.211745"><ele>183.8</ele><time>2011-04-01T10:20:03Z</time></trkpt>
<trkpt lat="42.250550" lon="3.211495"><ele>183</ele><time>2011-04-01T10:20:08Z</time></trkpt>
<trkpt lat="42.250850" lon="3.211427"><ele>182.8</ele><time>2011-04-01T10:20:13Z</time></trkpt>
<trkpt lat="42.251125" lon="3.211590"><ele>182.7</ele><time>2011-04-01T10:20:18Z</time></trkpt>
<trkpt lat="42.251403" lon="3.211727"><ele>183</ele><time>2011-04-01T10:20:23Z</time></trkpt>
<trkpt lat="42.251625" lon="3.211575"><ele>183.2</ele><time>2011-04-01T10:20:28Z</time></trkpt>
<trkpt lat="42.251770" lon="3.211220"><ele>183.1</ele><time>2011-04-01T10:20:33Z</time></trkpt>
<trkpt lat="42.251992" lon="3.210890"><ele>182.2</ele><time>2011-04-01T10:20:38Z</time></trkpt>
<trkpt lat="42.252267" lon="3.210613"><ele>181.3</ele><time>2011-04-01T10:20:43Z</time></trkpt>
<trkpt lat="42.252403" lon="3.210240"><ele>181</ele><time>2011-04-01T10:20:48Z</time></trkpt>
<trkpt lat="42.252167" lon="3.209953"><ele>181.6</ele><time>2011-04-01T10:20:53Z</time></trkpt>
<trkpt lat="42.251903" lon="3.209698"><ele>181.6</ele><time>2011-04-01T10:20:58Z</time></trkpt>
<trkpt lat="42.251827" lon="3.209255"><ele>180.9</ele><time>2011-04-01T10:21:03Z</time></trkpt>
<trkpt lat="42.251815" lon="3.208778"><ele>179.3</ele><time>2011-04-01T10:21:08Z</time></trkpt>
<trkpt lat="42.252063" lon="3.208470"><ele>177.5</ele><time>2011-04-01T10:21:13Z</time></trkpt>
<trkpt lat="42.252415" lon="3.208525"><ele>176.5</ele><time>2011-04-01T10:21:18Z</time></trkpt>
<trkpt lat="42.252717" lon="3.208767"><ele>175.5</ele><time>2011-04-01T10:21:23Z</time></trkpt>
<trkpt lat="42.253022" lon="3.208795"><ele>175</ele><time>2011-04-01T10:21:28Z</time></trkpt>
<trkpt lat="42.253227" lon="3.208468"><ele>175.3</ele><time>2011-04-01T10:21:33Z</time></trkpt>
<trkpt lat="42.253377" lon="3.208103"><ele>175.4</ele><time>2011-04-01T10:21:38Z</time></trkpt>
<trkpt lat="42.253377" lon="3.207675"><ele>175.2</ele><time>2011-04-01T10:21:43Z</time></trkpt>
<trkpt lat="42.253463" lon="3.207242"><ele>174</ele><time>2011-04-01T10:21:48Z</time></trkpt>
<trkpt lat="42.253597" lon="3.206828"><ele>171.9</ele><time>2011-04-01T10:21:53Z</time></trkpt>
<trkpt lat="42.253697" lon="3.206458"><ele>169.9</ele><time>2011-04-01T10:21:58Z</time></trkpt>
<trkpt lat="42.253753" lon="3.206183"><ele>168</ele><time>2011-04-01T10:22:03Z</time></trkpt>
<trkpt lat="42.253830" lon="3.206128"><ele>168</ele><time>2011-04-01T10:22:08Z</time></trkpt>
<trkpt lat="42.253887" lon="3.206170"><ele>168.9</ele><time>2011-04-01T10:22:13Z</time></trkpt>
<trkpt lat="42.253948" lon="3.206217"><ele>169.9</ele><time>2011-04-01T10:22:18Z</time></trkpt>
<trkpt lat="42.254010" lon="3.206258"><ele>170.7</ele><time>2011-04-01T10:22:23Z</time></trkpt>
<trkpt lat="42.254082" lon="3.206292"><ele>171.7</ele><time>2011-04-01T10:22:28Z</time></trkpt>
<trkpt lat="42.254158" lon="3.206318"><ele>172.4</ele><time>2011-04-01T10:22:33Z</time></trkpt>
<trkpt lat="42.254230" lon="3.206345"><ele>173.2</ele><time>2011-04-01T10:22:38Z</time></trkpt>
<trkpt lat="42.254303" lon="3.206375"><ele>174.1</ele><time>2011-04-01T10:22:43Z</time></trkpt>
<trkpt lat="42.254363" lon="3.206397"><ele>174.9</ele><time>2011-04-01T10:22:48Z</time></trkpt>
<trkpt lat="42.254428" lon="3.206428"><ele>175.8</ele><time>2011-04-01T10:22:53Z</time></trkpt>
<trkpt lat="42.254490" lon="3.206468"><ele>176.7</ele><time>2011-04-01T10:22:58Z</time></trkpt>
<trkpt lat="42.254558" lon="3.206507"><ele>177.5</ele><time>2011-04-01T10:23:03Z</time></trkpt>
<trkpt lat="42.254620" lon="3.206553"><ele>178.3</ele><time>2011-04-01T10:23:08Z</time></trkpt>
<trkpt lat="42.254673" lon="3.206615"><ele>179</ele><time>2011-04-01T10:23:13Z</time></trkpt>
<trkpt lat="42.254707" lon="3.206705"><ele>179.7</ele><time>2011-04-01T10:23:18Z</time></trkpt>
<trkpt lat="42.254697" lon="3.206798"><ele>180.2</ele><time>2011-04-01T10:23:23Z</time></trkpt>
<trkpt lat="42.254670" lon="3.206890"><ele>180.6</ele><time>2011-04-01T10:23:28Z</time></trkpt>
<trkpt lat="42.254647" lon="3.206985"><ele>180.9</ele><time>2011-04-01T10:23:33Z</time></trkpt>
<trkpt lat="42.254612" lon="3.207073"><ele>181.2</ele><time>2011-04-01T10:23:38Z</time></trkpt>
<trkpt lat="42.254582" lon="3.207173"><ele>181.7</ele><time>2011-04-01T10:23:43Z</time></trkpt>
<trkpt lat="42.254558" lon="3.207268"><ele>182.2</ele><time>2011-04-01T10:23:48Z</time></trkpt>
<trkpt lat="42.254517" lon="3.207370"><ele>182.8</ele><time>2011-04-01T10:23:53Z</time></trkpt>
<trkpt lat="42.254482" lon="3.207493"><ele>183.7</ele><time>2011-04-01T10:23:58Z</time></trkpt>
<trkpt lat="42.254452" lon="3.207612"><ele>184.5</ele><time>2011-04-01T10:24:03Z</time></trkpt>
<trkpt lat="42.254422" lon="3.207725"><ele>185.4</ele><time>2011-04-01T10:24:08Z</time></trkpt>
<trkpt lat="42.254387" lon="3.207822"><ele>186.4</ele><time>2011-04-01T10:24:13Z</time></trkpt>
<trkpt lat="42.254357" lon="3.207920"><ele>187.3</ele><time>2011-04-01T10:24:18Z</time></trkpt>
<trkpt lat="42.254322" lon="3.208017"><ele>188</ele><time>2011-04-01T10:24:23Z</time></trkpt>
<trkpt lat="42.254283" lon="3.208112"><ele>188.8</ele><time>2011-04-01T10:24:28Z</time></trkpt>
<trkpt lat="42.254242" lon="3.208207"><ele>189.5</ele><time>2011-04-01T10:24:33Z</time></trkpt>
<trkpt lat="42.254200" lon="3.208302"><ele>190.1</ele><time>2011-04-01T10:24:38Z</time></trkpt>
<trkpt lat="42.254150" lon="3.208392"><ele>190.9</ele><time>2011-04-01T10:24:43Z</time></trkpt>
<trkpt lat="42.254105" lon="3.208487"><ele>191.6</ele><time>2011-04-01T10:24:48Z</time></trkpt>
<trkpt lat="42.254058" lon="3.208578"><ele>192.5</ele><time>2011-04-01T10:24:53Z</time></trkpt>
<trkpt lat="42.254010" lon="3.208668"><ele>193.3</ele><time>2011-04-01T10:24:58Z</time></trkpt>
<trkpt lat="42.253957" lon="3.208755"><ele>194.1</ele><time>2011-04-01T10:25:03Z</time></trkpt>
<trkpt lat="42.253902" lon="3.208845"><ele>195</ele><time>2011-04-01T10:25:08Z</time></trkpt>
<trkpt lat="42.253845" lon="3.208930"><ele>195.8</ele><time>2011-04-01T10:25:13Z</time></trkpt>
<trkpt lat="42.253792" lon="3.209015"><ele>196.7</ele><time>2011-04-01T10:25:18Z</time></trkpt>
<trkpt lat="42.253738" lon="3.209102"><ele>197.8</ele><time>2011-04-01T10:25:23Z</time></trkpt>
<trkpt lat="42.253688" lon="3.209190"><ele>199</ele><time>2011-04-01T10:25:28Z</time></trkpt>
<trkpt lat="42.253640" lon="3.209283"><ele>200</ele><time>2011-04-01T10:25:33Z</time></trkpt>
<trkpt lat="42.253605" lon="3.209383"><ele>200.7</ele><time>2011-04-01T10:25:38Z</time></trkpt>
<trkpt lat="42.253570" lon="3.209490"><ele>201</ele><time>2011-04-01T10:25:43Z</time></trkpt>
<trkpt lat="42.253532" lon="3.209603"><ele>201.4</ele><time>2011-04-01T10:25:48Z</time></trkpt>
<trkpt lat="42.253502" lon="3.209722"><ele>201.8</ele><time>2011-04-01T10:25:53Z</time></trkpt>
<trkpt lat="42.253463" lon="3.209845"><ele>202.3</ele><time>2011-04-01T10:25:58Z</time></trkpt>
<trkpt lat="42.253422" lon="3.209967"><ele>202.9</ele><time>2011-04-01T10:26:03Z</time></trkpt>
<trkpt lat="42.253380" lon="3.210088"><ele>203.6</ele><time>2011-04-01T10:26:08Z</time></trkpt>
<trkpt lat="42.253342" lon="3.210212"><ele>204.4</ele><time>2011-04-01T10:26:13Z</time></trkpt>
<trkpt lat="42.253303" lon="3.210337"><ele>205</ele><time>2011-04-01T10:26:18Z</time></trkpt>
<trkpt lat="42.253280" lon="3.210473"><ele>205.5</ele><time>2011-04-01T10:26:23Z</time></trkpt>
<trkpt lat="42.253292" lon="3.210608"><ele>206</ele><time>2011-04-01T10:26:28Z</time></trkpt>
<trkpt lat="42.253377" lon="3.210693"><ele>206.1</ele><time>2011-04-01T10:26:33Z</time></trkpt>
<trkpt lat="42.253475" lon="3.210662"><ele>206.8</ele><time>2011-04-01T10:26:38Z</time></trkpt>
<trkpt lat="42.253525" lon="3.210553"><ele>207.9</ele><time>2011-04-01T10:26:43Z</time></trkpt>
<trkpt lat="42.253513" lon="3.210422"><ele>208.7</ele><time>2011-04-01T10:26:48Z</time></trkpt>
<trkpt lat="42.253498" lon="3.210283"><ele>209.2</ele><time>2011-04-01T10:26:53Z</time></trkpt>
<trkpt lat="42.253532" lon="3.210145"><ele>209.7</ele><time>2011-04-01T10:26:58Z</time></trkpt>
<trkpt lat="42.253605" lon="3.210038"><ele>210.5</ele><time>2011-04-01T10:27:03Z</time></trkpt>
<trkpt lat="42.253662" lon="3.209927"><ele>211.4</ele><time>2011-04-01T10:27:08Z</time></trkpt>
<trkpt lat="42.253735" lon="3.209830"><ele>212.4</ele><time>2011-04-01T10:27:13Z</time></trkpt>
<trkpt lat="42.253803" lon="3.209745"><ele>213.5</ele><time>2011-04-01T10:27:18Z</time></trkpt>
<trkpt lat="42.253880" lon="3.209667"><ele>214.5</ele><time>2011-04-01T10:27:23Z</time></trkpt>
<trkpt lat="42.253960" lon="3.209590"><ele>215.4</ele><time>2011-04-01T10:27:28Z</time></trkpt>
<trkpt lat="42.254043" lon="3.209525"><ele>216.2</ele><time>2011-04-01T10:27:33Z</time></trkpt>
<trkpt lat="42.254132" lon="3.209478"><ele>217</ele><time>2011-04-01T10:27:38Z</time></trkpt>
<trkpt lat="42.254227" lon="3.209440"><ele>218</ele><time>2011-04-01T10:27:43Z</time></trkpt>
<trkpt lat="42.254318" lon="3.209402"><ele>218.8</ele><time>2011-04-01T10:27:48Z</time></trkpt>
<trkpt lat="42.254410" lon="3.209365"><ele>219.7</ele><time>2011-04-01T10:27:53Z</time></trkpt>
<trkpt lat="42.254502" lon="3.209322"><ele>220.5</ele><time>2011-04-01T10:27:58Z</time></trkpt>
<trkpt lat="42.254593" lon="3.209280"><ele>221.3</ele><time>2011-04-01T10:28:03Z</time></trkpt>
<trkpt lat="42.254680" lon="3.209235"><ele>222.2</ele><time>2011-04-01T10:28:08Z</time></trkpt>
<trkpt lat="42.254768" lon="3.209190"><ele>223.1</ele><time>2011-04-01T10:28:13Z</time></trkpt>
<trkpt lat="42.254852" lon="3.209145"><ele>224</ele><time>2011-04-01T10:28:18Z</time></trkpt>
<trkpt lat="42.254940" lon="3.209097"><ele>224.9</ele><time>2011-04-01T10:28:23Z</time></trkpt>
<trkpt lat="42.255032" lon="3.209045"><ele>225.7</ele><time>2011-04-01T10:28:28Z</time></trkpt>
<trkpt lat="42.255120" lon="3.208993"><ele>226.6</ele><time>2011-04-01T10:28:33Z</time></trkpt>
<trkpt lat="42.255203" lon="3.208933"><ele>227.4</ele><time>2011-04-01T10:28:38Z</time></trkpt>
<trkpt lat="42.255295" lon="3.208885"><ele>228.4</ele><time>2011-04-01T10:28:43Z</time></trkpt>
<trkpt lat="42.255367" lon="3.208803"><ele>229.3</ele><time>2011-04-01T10:28:48Z</time></trkpt>
<trkpt lat="42.255443" lon="3.208730"><ele>230.4</ele><time>2011-04-01T10:28:53Z</time></trkpt>
<trkpt lat="42.255520" lon="3.208653"><ele>231.5</ele><time>2011-04-01T10:28:58Z</time></trkpt>
<trkpt lat="42.255592" lon="3.208570"><ele>232.4</ele><time>2011-04-01T10:29:03Z</time></trkpt>
<trkpt lat="42.255662" lon="3.208490"><ele>233.2</ele><time>2011-04-01T10:29:08Z</time></trkpt>
<trkpt lat="42.255733" lon="3.208405"><ele>234</ele><time>2011-04-01T10:29:13Z</time></trkpt>
<trkpt lat="42.255807" lon="3.208323"><ele>234.9</ele><time>2011-04-01T10:29:18Z</time></trkpt>
<trkpt lat="42.255887" lon="3.208250"><ele>235.8</ele><time>2011-04-01T10:29:23Z</time></trkpt>
<trkpt lat="42.255967" lon="3.208192"><ele>236.6</ele><time>2011-04-01T10:29:28Z</time></trkpt>
<trkpt lat="42.256053" lon="3.208142"><ele>237.5</ele><time>2011-04-01T10:29:33Z</time></trkpt>
<trkpt lat="42.256150" lon="3.208102"><ele>238.3</ele><time>2011-04-01T10:29:38Z</time></trkpt>
<trkpt lat="42.256237" lon="3.208060"><ele>239</ele><time>2011-04-01T10:29:43Z</time></trkpt>
<trkpt lat="42.256325" lon="3.208013"><ele>239.7</ele><time>2011-04-01T10:29:48Z</time></trkpt>
<trkpt lat="42.256413" lon="3.207963"><ele>240.5</ele><time>2011-04-01T10:29:53Z</time></trkpt>
<trkpt lat="42.256500" lon="3.207912"><ele>241.3</ele><time>2011-04-01T10:29:58Z</time></trkpt>
<trkpt lat="42.256588" lon="3.207865"><ele>242.2</ele><time>2011-04-01T10:30:03Z</time></trkpt>
<trkpt lat="42.256675" lon="3.207822"><ele>243.2</ele><time>2011-04-01T10:30:08Z</time></trkpt>
<trkpt lat="42.256767" lon="3.207790"><ele>244.1</ele><time>2011-04-01T10:30:13Z</time></trkpt>
<trkpt lat="42.256867" lon="3.207775"><ele>244.7</ele><time>2011-04-01T10:30:18Z</time></trkpt>
<trkpt lat="42.256958" lon="3.207770"><ele>245.6</ele><time>2011-04-01T10:30:23Z</time></trkpt>
<trkpt lat="42.257053" lon="3.207783"><ele>246.2</ele><time>2011-04-01T10:30:28Z</time></trkpt>
<trkpt lat="42.257145" lon="3.207812"><ele>246.8</ele><time>2011-04-01T10:30:33Z</time></trkpt>
<trkpt lat="42.257237" lon="3.207850"><ele>247.2</ele><time>2011-04-01T10:30:38Z</time></trkpt>
<trkpt lat="42.257325" lon="3.207893"><ele>247.7</ele><time>2011-04-01T10:30:43Z</time></trkpt>
<trkpt lat="42.257415" lon="3.207938"><ele>248.3</ele><time>2011-04-01T10:30:48Z</time></trkpt>
<trkpt lat="42.257503" lon="3.207983"><ele>248.9</ele><time>2011-04-01T10:30:53Z</time></trkpt>
<trkpt lat="42.257595" lon="3.208025"><ele>249.5</ele><time>2011-04-01T10:30:58Z</time></trkpt>
<trkpt lat="42.257695" lon="3.208062"><ele>250.4</ele><time>2011-04-01T10:31:03Z</time></trkpt>
<trkpt lat="42.257785" lon="3.208087"><ele>251.1</ele><time>2011-04-01T10:31:08Z</time></trkpt>
<trkpt lat="42.257877" lon="3.208100"><ele>251.8</ele><time>2011-04-01T10:31:13Z</time></trkpt>
<trkpt lat="42.257973" lon="3.208105"><ele>252.5</ele><time>2011-04-01T10:31:18Z</time></trkpt>
<trkpt lat="42.258068" lon="3.208112"><ele>253.2</ele><time>2011-04-01T10:31:23Z</time></trkpt>
<trkpt lat="42.258163" lon="3.208112"><ele>254.1</ele><time>2011-04-01T10:31:28Z</time></trkpt>
<trkpt lat="42.258255" lon="3.208105"><ele>254.8</ele><time>2011-04-01T10:31:33Z</time></trkpt>
<trkpt lat="42.258343" lon="3.208063"><ele>255.6</ele><time>2011-04-01T10:31:38Z</time></trkpt>
<trkpt lat="42.258435" lon="3.208033"><ele>256.5</ele><time>2011-04-01T10:31:43Z</time></trkpt>
<trkpt lat="42.258522" lon="3.207992"><ele>257.4</ele><time>2011-04-01T10:31:48Z</time></trkpt>
<trkpt lat="42.258602" lon="3.207938"><ele>258.4</ele><time>2011-04-01T10:31:53Z</time></trkpt>
<trkpt lat="42.258682" lon="3.207883"><ele>259.4</ele><time>2011-04-01T10:31:58Z</time></trkpt>
<trkpt lat="42.258755" lon="3.207810"><ele>260.2</ele><time>2011-04-01T10:32:03Z</time></trkpt>
<trkpt lat="42.258832" lon="3.207745"><ele>261.1</ele><time>2011-04-01T10:32:08Z</time></trkpt>
<trkpt lat="42.258907" lon="3.207687"><ele>262.1</ele><time>2011-04-01T10:32:13Z</time></trkpt>
<trkpt lat="42.258987" lon="3.207620"><ele>262.7</ele><time>2011-04-01T10:32:18Z</time></trkpt>
<trkpt lat="42.259075" lon="3.207553"><ele>263.6</ele><time>2011-04-01T10:32:23Z</time></trkpt>
<trkpt lat="42.259152" lon="3.207490"><ele>264.4</ele><time>2011-04-01T10:32:28Z</time></trkpt>
<trkpt lat="42.259235" lon="3.207427"><ele>265.1</ele><time>2011-04-01T10:32:33Z</time></trkpt>
<trkpt lat="42.259312" lon="3.207365"><ele>266</ele><time>2011-04-01T10:32:38Z</time></trkpt>
<trkpt lat="42.259392" lon="3.207305"><ele>266.9</ele><time>2011-04-01T10:32:43Z</time></trkpt>
<trkpt lat="42.259475" lon="3.207258"><ele>267.9</ele><time>2011-04-01T10:32:48Z</time></trkpt>
<trkpt lat="42.259567" lon="3.207227"><ele>268.9</ele><time>2011-04-01T10:32:53Z</time></trkpt>
<trkpt lat="42.259658" lon="3.207210"><ele>269.8</ele><time>2011-04-01T10:32:58Z</time></trkpt>
<trkpt lat="42.259750" lon="3.207190"><ele>270.8</ele><time>2011-04-01T10:33:03Z</time></trkpt>
<trkpt lat="42.259853" lon="3.207175"><ele>271.3</ele><time>2011-04-01T10:33:08Z</time></trkpt>
<trkpt lat="42.259948" lon="3.207165"><ele>272</ele><time>2011-04-01T10:33:13Z</time></trkpt>
<trkpt lat="42.260043" lon="3.207162"><ele>272.6</ele><time>2011-04-01T10:33:18Z</time></trkpt>
<trkpt lat="42.260140" lon="3.207165"><ele>273.1</ele><time>2011-04-01T10:33:23Z</time></trkpt>
<trkpt lat="42.260232" lon="3.207170"><ele>273.8</ele><time>2011-04-01T10:33:28Z</time></trkpt>
<trkpt lat="42.260327" lon="3.207178"><ele>274.5</ele><time>2011-04-01T10:33:33Z</time></trkpt>
<trkpt lat="42.260422" lon="3.207190"><ele>275.3</ele><time>2011-04-01T10:33:38Z</time></trkpt>
<trkpt lat="42.260517" lon="3.207212"><ele>276</ele><time>2011-04-01T10:33:43Z</time></trkpt>
<trkpt lat="42.260612" lon="3.207240"><ele>276.6</ele><time>2011-04-01T10:33:48Z</time></trkpt>
<trkpt lat="42.260703" lon="3.207273"><ele>277.2</ele><time>2011-04-01T10:33:53Z</time></trkpt>
<trkpt lat="42.260792" lon="3.207290"><ele>278</ele><time>2011-04-01T10:33:58Z</time></trkpt>
<trkpt lat="42.260883" lon="3.207290"><ele>278.9</ele><time>2011-04-01T10:34:03Z</time></trkpt>
<trkpt lat="42.260990" lon="3.207265"><ele>279.4</ele><time>2011-04-01T10:34:08Z</time></trkpt>
<trkpt lat="42.261073" lon="3.207222"><ele>280.3</ele><time>2011-04-01T10:34:13Z</time></trkpt>
<trkpt lat="42.261162" lon="3.207173"><ele>281.3</ele><time>2011-04-01T10:34:18Z</time></trkpt>
<trkpt lat="42.261245" lon="3.207118"><ele>282.3</ele><time>2011-04-01T10:34:23Z</time></trkpt>
<trkpt lat="42.261327" lon="3.207058"><ele>283.3</ele><time>2011-04-01T10:34:28Z</time></trkpt>
<trkpt lat="42.261402" lon="3.206995"><ele>284.3</ele><time>2011-04-01T10:34:33Z</time></trkpt>
<trkpt lat="42.261482" lon="3.206932"><ele>285.2</ele><time>2011-04-01T10:34:38Z</time></trkpt>
<trkpt lat="42.261558" lon="3.206870"><ele>286.3</ele><time>2011-04-01T10:34:43Z</time></trkpt>
<trkpt lat="42.261638" lon="3.206812"><ele>287.3</ele><time>2011-04-01T10:34:48Z</time></trkpt>
<trkpt lat="42.261723" lon="3.206763"><ele>288.4</ele><time>2011-04-01T10:34:53Z</time></trkpt>
<trkpt lat="42.261813" lon="3.206725"><ele>289.4</ele><time>2011-04-01T10:34:58Z</time></trkpt>
<trkpt lat="42.261902" lon="3.206705"><ele>290.3</ele><time>2011-04-01T10:35:03Z</time></trkpt>
<trkpt lat="42.261997" lon="3.206705"><ele>291</ele><time>2011-04-01T10:35:08Z</time></trkpt>
<trkpt lat="42.262085" lon="3.206733"><ele>291.8</ele><time>2011-04-01T10:35:13Z</time></trkpt>
<trkpt lat="42.262180" lon="3.206767"><ele>292.2</ele><time>2011-04-01T10:35:18Z</time></trkpt>
<trkpt lat="42.262275" lon="3.206797"><ele>293.1</ele><time>2011-04-01T10:35:23Z</time></trkpt>
<trkpt lat="42.262367" lon="3.206822"><ele>294.1</ele><time>2011-04-01T10:35:28Z</time></trkpt>
<trkpt lat="42.262452" lon="3.206848"><ele>295.1</ele><time>2011-04-01T10:35:33Z</time></trkpt>
<trkpt lat="42.262538" lon="3.206892"><ele>296</ele><time>2011-04-01T10:35:38Z</time></trkpt>
<trkpt lat="42.262618" lon="3.206968"><ele>296.4</ele><time>2011-04-01T10:35:43Z</time></trkpt>
<trkpt lat="42.262662" lon="3.207095"><ele>296.5</ele><time>2011-04-01T10:35:48Z</time></trkpt>
<trkpt lat="42.262703" lon="3.207218"><ele>296.6</ele><time>2011-04-01T10:35:53Z</time></trkpt>
<trkpt lat="42.262733" lon="3.207363"><ele>296.6</ele><time>2011-04-01T10:35:58Z</time></trkpt>
<trkpt lat="42.262753" lon="3.207507"><ele>296.9</ele><time>2011-04-01T10:36:03Z</time></trkpt>
<trkpt lat="42.262780" lon="3.207633"><ele>297.4</ele><time>2011-04-01T10:36:08Z</time></trkpt>
<trkpt lat="42.262813" lon="3.207783"><ele>297.3</ele><time>2011-04-01T10:36:13Z</time></trkpt>
<trkpt lat="42.262840" lon="3.207923"><ele>297.8</ele><time>2011-04-01T10:36:18Z</time></trkpt>
<trkpt lat="42.262875" lon="3.208055"><ele>298.2</ele><time>2011-04-01T10:36:23Z</time></trkpt>
<trkpt lat="42.262928" lon="3.208183"><ele>298.6</ele><time>2011-04-01T10:36:28Z</time></trkpt>
<trkpt lat="42.262993" lon="3.208300"><ele>299.1</ele><time>2011-04-01T10:36:33Z</time></trkpt>
<trkpt lat="42.263073" lon="3.208405"><ele>299.8</ele><time>2011-04-01T10:36:38Z</time></trkpt>
<trkpt lat="42.263160" lon="3.208487"><ele>300.7</ele><time>2011-04-01T10:36:43Z</time></trkpt>
<trkpt lat="42.263257" lon="3.208537"><ele>301.8</ele><time>2011-04-01T10:36:48Z</time></trkpt>
<trkpt lat="42.263355" lon="3.208552"><ele>302.7</ele><time>2011-04-01T10:36:53Z</time></trkpt>
<trkpt lat="42.263467" lon="3.208532"><ele>303.3</ele><time>2011-04-01T10:36:58Z</time></trkpt>
<trkpt lat="42.263557" lon="3.208485"><ele>304.5</ele><time>2011-04-01T10:37:03Z</time></trkpt>
<trkpt lat="42.263645" lon="3.208418"><ele>305.5</ele><time>2011-04-01T10:37:08Z</time></trkpt>
<trkpt lat="42.263737" lon="3.208353"><ele>306.4</ele><time>2011-04-01T10:37:13Z</time></trkpt>
<trkpt lat="42.263825" lon="3.208287"><ele>307.2</ele><time>2011-04-01T10:37:18Z</time></trkpt>
<trkpt lat="42.263912" lon="3.208240"><ele>308</ele><time>2011-04-01T10:37:23Z</time></trkpt>
<trkpt lat="42.264015" lon="3.208202"><ele>308.7</ele><time>2011-04-01T10:37:28Z</time></trkpt>
<trkpt lat="42.264115" lon="3.208182"><ele>309.5</ele><time>2011-04-01T10:37:33Z</time></trkpt>
<trkpt lat="42.264213" lon="3.208170"><ele>310.2</ele><time>2011-04-01T10:37:38Z</time></trkpt>
<trkpt lat="42.264302" lon="3.208227"><ele>311.2</ele><time>2011-04-01T10:37:43Z</time></trkpt>
<trkpt lat="42.264358" lon="3.208333"><ele>312.3</ele><time>2011-04-01T10:37:48Z</time></trkpt>
<trkpt lat="42.264367" lon="3.208485"><ele>313</ele><time>2011-04-01T10:37:53Z</time></trkpt>
<trkpt lat="42.264370" lon="3.208652"><ele>313.2</ele><time>2011-04-01T10:37:58Z</time></trkpt>
<trkpt lat="42.264367" lon="3.208833"><ele>313.2</ele><time>2011-04-01T10:38:03Z</time></trkpt>
<trkpt lat="42.264362" lon="3.209053"><ele>313.3</ele><time>2011-04-01T10:38:08Z</time></trkpt>
<trkpt lat="42.264362" lon="3.209265"><ele>313.2</ele><time>2011-04-01T10:38:13Z</time></trkpt>
<trkpt lat="42.264367" lon="3.209440"><ele>313.3</ele><time>2011-04-01T10:38:18Z</time></trkpt>
<trkpt lat="42.264367" lon="3.209652"><ele>312.6</ele><time>2011-04-01T10:38:23Z</time></trkpt>
<trkpt lat="42.264343" lon="3.209935"><ele>311.4</ele><time>2011-04-01T10:38:28Z</time></trkpt>
<trkpt lat="42.264308" lon="3.210175"><ele>310.4</ele><time>2011-04-01T10:38:33Z</time></trkpt>
<trkpt lat="42.264282" lon="3.210387"><ele>310.2</ele><time>2011-04-01T10:38:38Z</time></trkpt>
<trkpt lat="42.264183" lon="3.210593"><ele>310.2</ele><time>2011-04-01T10:38:43Z</time></trkpt>
<trkpt lat="42.264115" lon="3.210807"><ele>310.3</ele><time>2011-04-01T10:38:48Z</time></trkpt>
<trkpt lat="42.264115" lon="3.211080"><ele>309.9</ele><time>2011-04-01T10:38:53Z</time></trkpt>
<trkpt lat="42.264130" lon="3.211363"><ele>309.4</ele><time>2011-04-01T10:38:58Z</time></trkpt>
<trkpt lat="42.264145" lon="3.211673"><ele>308.3</ele><time>2011-04-01T10:39:03Z</time></trkpt>
<trkpt lat="42.264163" lon="3.212007"><ele>307.6</ele><time>2011-04-01T10:39:08Z</time></trkpt>
<trkpt lat="42.264148" lon="3.212305"><ele>307</ele><time>2011-04-01T10:39:13Z</time></trkpt>
<trkpt lat="42.264183" lon="3.212568"><ele>307.3</ele><time>2011-04-01T10:39:18Z</time></trkpt>
<trkpt lat="42.264237" lon="3.212742"><ele>308.3</ele><time>2011-04-01T10:39:23Z</time></trkpt>
<trkpt lat="42.264287" lon="3.212862"><ele>309.5</ele><time>2011-04-01T10:39:28Z</time></trkpt>
<trkpt lat="42.264328" lon="3.212952"><ele>310.7</ele><time>2011-04-01T10:39:33Z</time></trkpt>
<trkpt lat="42.264367" lon="3.213030"><ele>311.8</ele><time>2011-04-01T10:39:38Z</time></trkpt>
<trkpt lat="42.264412" lon="3.213108"><ele>312.9</ele><time>2011-04-01T10:39:43Z</time></trkpt>
<trkpt lat="42.264462" lon="3.213180"><ele>313.8</ele><time>2011-04-01T10:39:48Z</time></trkpt>
<trkpt lat="42.264518" lon="3.213252"><ele>314.8</ele><time>2011-04-01T10:39:53Z</time></trkpt>
<trkpt lat="42.264565" lon="3.213318"><ele>315.7</ele><time>2011-04-01T10:39:58Z</time></trkpt>
<trkpt lat="42.264618" lon="3.213383"><ele>316.6</ele><time>2011-04-01T10:40:03Z</time></trkpt>
<trkpt lat="42.264672" lon="3.213448"><ele>317.5</ele><time>2011-04-01T10:40:08Z</time></trkpt>
<trkpt lat="42.264728" lon="3.213512"><ele>318.4</ele><time>2011-04-01T10:40:13Z</time></trkpt>
<trkpt lat="42.264785" lon="3.213575"><ele>319.3</ele><time>2011-04-01T10:40:18Z</time></trkpt>
<trkpt lat="42.264850" lon="3.213637"><ele>320.3</ele><time>2011-04-01T10:40:23Z</time></trkpt>
<trkpt lat="42.264912" lon="3.213692"><ele>321.3</ele><time>2011-04-01T10:40:28Z</time></trkpt>
<trkpt lat="42.264973" lon="3.213745"><ele>322.3</ele><time>2011-04-01T10:40:33Z</time></trkpt>
<trkpt lat="42.265030" lon="3.213800"><ele>323.3</ele><time>2011-04-01T10:40:38Z</time></trkpt>
<trkpt lat="42.265092" lon="3.213855"><ele>324.3</ele><time>2011-04-01T10:40:43Z</time></trkpt>
<trkpt lat="42.265152" lon="3.213913"><ele>325.2</ele><time>2011-04-01T10:40:48Z</time></trkpt>
<trkpt lat="42.265220" lon="3.213978"><ele>325.6</ele><time>2011-04-01T10:40:53Z</time></trkpt>
<trkpt lat="42.265282" lon="3.214037"><ele>326.2</ele><time>2011-04-01T10:40:58Z</time></trkpt>
<trkpt lat="42.265343" lon="3.214093"><ele>327</ele><time>2011-04-01T10:41:03Z</time></trkpt>
<trkpt lat="42.265400" lon="3.214152"><ele>327.9</ele><time>2011-04-01T10:41:08Z</time></trkpt>
<trkpt lat="42.265462" lon="3.214212"><ele>328.7</ele><time>2011-04-01T10:41:13Z</time></trkpt>
<trkpt lat="42.265522" lon="3.214265"><ele>329.4</ele><time>2011-04-01T10:41:18Z</time></trkpt>
<trkpt lat="42.265587" lon="3.214320"><ele>330</ele><time>2011-04-01T10:41:23Z</time></trkpt>
<trkpt lat="42.265652" lon="3.214367"><ele>330.8</ele><time>2011-04-01T10:41:28Z</time></trkpt>
<trkpt lat="42.265720" lon="3.214403"><ele>331.7</ele><time>2011-04-01T10:41:33Z</time></trkpt>
<trkpt lat="42.265793" lon="3.214428"><ele>332.5</ele><time>2011-04-01T10:41:38Z</time></trkpt>
<trkpt lat="42.265865" lon="3.214420"><ele>333.4</ele><time>2011-04-01T10:41:43Z</time></trkpt>
<trkpt lat="42.265938" lon="3.214387"><ele>334.2</ele><time>2011-04-01T10:41:48Z</time></trkpt>
<trkpt lat="42.266003" lon="3.214345"><ele>335.1</ele><time>2011-04-01T10:41:53Z</time></trkpt>
<trkpt lat="42.266063" lon="3.214290"><ele>336.1</ele><time>2011-04-01T10:41:58Z</time></trkpt>
<trkpt lat="42.266125" lon="3.214227"><ele>336.9</ele><time>2011-04-01T10:42:03Z</time></trkpt>
<trkpt lat="42.266178" lon="3.214162"><ele>337.8</ele><time>2011-04-01T10:42:08Z</time></trkpt>
<trkpt lat="42.266232" lon="3.214092"><ele>338.8</ele><time>2011-04-01T10:42:13Z</time></trkpt>
<trkpt lat="42.266282" lon="3.214017"><ele>339.8</ele><time>2011-04-01T10:42:18Z</time></trkpt>
<trkpt lat="42.266327" lon="3.213940"><ele>340.6</ele><time>2011-04-01T10:42:23Z</time></trkpt>
<trkpt lat="42.266368" lon="3.213860"><ele>341.4</ele><time>2011-04-01T10:42:28Z</time></trkpt>
<trkpt lat="42.266415" lon="3.213787"><ele>342.4</ele><time>2011-04-01T10:42:33Z</time></trkpt>
<trkpt lat="42.266465" lon="3.213723"><ele>343.5</ele><time>2011-04-01T10:42:38Z</time></trkpt>
<trkpt lat="42.266533" lon="3.213690"><ele>344.5</ele><time>2011-04-01T10:42:43Z</time></trkpt>
<trkpt lat="42.266605" lon="3.213695"><ele>345.2</ele><time>2011-04-01T10:42:48Z</time></trkpt>
<trkpt lat="42.266667" lon="3.213755"><ele>345.7</ele><time>2011-04-01T10:42:53Z</time></trkpt>
<trkpt lat="42.266727" lon="3.213822"><ele>346.5</ele><time>2011-04-01T10:42:58Z</time></trkpt>
<trkpt lat="42.266792" lon="3.213883"><ele>347.3</ele><time>2011-04-01T10:43:03Z</time></trkpt>
<trkpt lat="42.266868" lon="3.213953"><ele>347.8</ele><time>2011-04-01T10:43:08Z</time></trkpt>
<trkpt lat="42.266937" lon="3.214017"><ele>348.7</ele><time>2011-04-01T10:43:13Z</time></trkpt>
<trkpt lat="42.266998" lon="3.214078"><ele>349.8</ele><time>2011-04-01T10:43:18Z</time></trkpt>
<trkpt lat="42.267067" lon="3.214147"><ele>350.7</ele><time>2011-04-01T10:43:23Z</time></trkpt>
<trkpt lat="42.267132" lon="3.214213"><ele>351.5</ele><time>2011-04-01T10:43:28Z</time></trkpt>
<trkpt lat="42.267193" lon="3.214278"><ele>352.4</ele><time>2011-04-01T10:43:33Z</time></trkpt>
<trkpt lat="42.267253" lon="3.214347"><ele>353.5</ele><time>2011-04-01T10:43:38Z</time></trkpt>
<trkpt lat="42.267312" lon="3.214423"><ele>354</ele><time>2011-04-01T10:43:43Z</time></trkpt>
<trkpt lat="42.267372" lon="3.214500"><ele>354.9</ele><time>2011-04-01T10:43:48Z</time></trkpt>
<trkpt lat="42.267430" lon="3.214578"><ele>355.9</ele><time>2011-04-01T10:43:53Z</time></trkpt>
<trkpt lat="42.267487" lon="3.214650"><ele>356.8</ele><time>2011-04-01T10:43:58Z</time></trkpt>
<trkpt lat="42.267540" lon="3.214723"><ele>357.6</ele><time>2011-04-01T10:44:03Z</time></trkpt>
<trkpt lat="42.267605" lon="3.214805"><ele>358</ele><time>2011-04-01T10:44:08Z</time></trkpt>
<trkpt lat="42.267662" lon="3.214883"><ele>358.5</ele><time>2011-04-01T10:44:13Z</time></trkpt>
<trkpt lat="42.267715" lon="3.214963"><ele>359.1</ele><time>2011-04-01T10:44:18Z</time></trkpt>
<trkpt lat="42.267768" lon="3.215045"><ele>359.9</ele><time>2011-04-01T10:44:23Z</time></trkpt>
<trkpt lat="42.267810" lon="3.215137"><ele>360.6</ele><time>2011-04-01T10:44:28Z</time></trkpt>
<trkpt lat="42.267845" lon="3.215235"><ele>361.5</ele><time>2011-04-01T10:44:33Z</time></trkpt>
<trkpt lat="42.267883" lon="3.215325"><ele>362.6</ele><time>2011-04-01T10:44:38Z</time></trkpt>
<trkpt lat="42.267948" lon="3.215395"><ele>363.6</ele><time>2011-04-01T10:44:43Z</time></trkpt>
<trkpt lat="42.268028" lon="3.215447"><ele>364.3</ele><time>2011-04-01T10:44:48Z</time></trkpt>
<trkpt lat="42.268112" lon="3.215482"><ele>365.2</ele><time>2011-04-01T10:44:53Z</time></trkpt>
<trkpt lat="42.268208" lon="3.215500"><ele>365.7</ele><time>2011-04-01T10:44:58Z</time></trkpt>
<trkpt lat="42.268292" lon="3.215510"><ele>366.6</ele><time>2011-04-01T10:45:03Z</time></trkpt>
<trkpt lat="42.268375" lon="3.215520"><ele>367.6</ele><time>2011-04-01T10:45:08Z</time></trkpt>
<trkpt lat="42.268463" lon="3.215538"><ele>368.3</ele><time>2011-04-01T10:45:13Z</time></trkpt>
<trkpt lat="42.268543" lon="3.215557"><ele>369.1</ele><time>2011-04-01T10:45:18Z</time></trkpt>
<trkpt lat="42.268635" lon="3.215577"><ele>369.9</ele><time>2011-04-01T10:45:23Z</time></trkpt>
<trkpt lat="42.268715" lon="3.215605"><ele>370.5</ele><time>2011-04-01T10:45:28Z</time></trkpt>
<trkpt lat="42.268798" lon="3.215637"><ele>371.2</ele><time>2011-04-01T10:45:33Z</time></trkpt>
<trkpt lat="42.268887" lon="3.215690"><ele>371.7</ele><time>2011-04-01T10:45:38Z</time></trkpt>
<trkpt lat="42.268958" lon="3.215773"><ele>372.1</ele><time>2011-04-01T10:45:43Z</time></trkpt>
<trkpt lat="42.269023" lon="3.215872"><ele>372.5</ele><time>2011-04-01T10:45:48Z</time></trkpt>
<trkpt lat="42.269073" lon="3.215987"><ele>372.8</ele><time>2011-04-01T10:45:53Z</time></trkpt>
<trkpt lat="42.269123" lon="3.216105"><ele>373.2</ele><time>2011-04-01T10:45:58Z</time></trkpt>
<trkpt lat="42.269180" lon="3.216207"><ele>373.7</ele><time>2011-04-01T10:46:03Z</time></trkpt>
<trkpt lat="42.269230" lon="3.216310"><ele>374.5</ele><time>2011-04-01T10:46:08Z</time></trkpt>
<trkpt lat="42.269280" lon="3.216413"><ele>375.4</ele><time>2011-04-01T10:46:13Z</time></trkpt>
<trkpt lat="42.269325" lon="3.216515"><ele>376.3</ele><time>2011-04-01T10:46:18Z</time></trkpt>
<trkpt lat="42.269375" lon="3.216610"><ele>377.4</ele><time>2011-04-01T10:46:23Z</time></trkpt>
<trkpt lat="42.269420" lon="3.216705"><ele>378.4</ele><time>2011-04-01T10:46:28Z</time></trkpt>
<trkpt lat="42.269467" lon="3.216798"><ele>379.3</ele><time>2011-04-01T10:46:33Z</time></trkpt>
<trkpt lat="42.269517" lon="3.216890"><ele>380.3</ele><time>2011-04-01T10:46:38Z</time></trkpt>
<trkpt lat="42.269553" lon="3.216985"><ele>381.4</ele><time>2011-04-01T10:46:43Z</time></trkpt>
<trkpt lat="42.269603" lon="3.217092"><ele>382</ele><time>2011-04-01T10:46:48Z</time></trkpt>
<trkpt lat="42.269645" lon="3.217195"><ele>383</ele><time>2011-04-01T10:46:53Z</time></trkpt>
<trkpt lat="42.269680" lon="3.217298"><ele>384</ele><time>2011-04-01T10:46:58Z</time></trkpt>
<trkpt lat="42.269707" lon="3.217408"><ele>384.9</ele><time>2011-04-01T10:47:03Z</time></trkpt>
<trkpt lat="42.269737" lon="3.217520"><ele>385.9</ele><time>2011-04-01T10:47:08Z</time></trkpt>
<trkpt lat="42.269757" lon="3.217632"><ele>386.9</ele><time>2011-04-01T10:47:13Z</time></trkpt>
<trkpt lat="42.269775" lon="3.217747"><ele>387.7</ele><time>2011-04-01T10:47:18Z</time></trkpt>
<trkpt lat="42.269798" lon="3.217860"><ele>388.7</ele><time>2011-04-01T10:47:23Z</time></trkpt>
<trkpt lat="42.269817" lon="3.217977"><ele>389.5</ele><time>2011-04-01T10:47:28Z</time></trkpt>
<trkpt lat="42.269843" lon="3.218102"><ele>390.1</ele><time>2011-04-01T10:47:33Z</time></trkpt>
<trkpt lat="42.269867" lon="3.218220"><ele>390.9</ele><time>2011-04-01T10:47:38Z</time></trkpt>
<trkpt lat="42.269882" lon="3.218345"><ele>391.5</ele><time>2011-04-01T10:47:43Z</time></trkpt>
<trkpt lat="42.269902" lon="3.218463"><ele>392.3</ele><time>2011-04-01T10:47:48Z</time></trkpt>
<trkpt lat="42.269908" lon="3.218588"><ele>393</ele><time>2011-04-01T10:47:53Z</time></trkpt>
<trkpt lat="42.269928" lon="3.218713"><ele>393.7</ele><time>2011-04-01T10:47:58Z</time></trkpt>
<trkpt lat="42.269940" lon="3.218837"><ele>394.5</ele><time>2011-04-01T10:48:03Z</time></trkpt>
<trkpt lat="42.269943" lon="3.218968"><ele>395.3</ele><time>2011-04-01T10:48:08Z</time></trkpt>
<trkpt lat="42.269973" lon="3.219102"><ele>395.9</ele><time>2011-04-01T10:48:13Z</time></trkpt>
<trkpt lat="42.270035" lon="3.219217"><ele>396.8</ele><time>2011-04-01T10:48:18Z</time></trkpt>
<trkpt lat="42.270115" lon="3.219283"><ele>397.5</ele><time>2011-04-01T10:48:23Z</time></trkpt>
<trkpt lat="42.270198" lon="3.219350"><ele>398.3</ele><time>2011-04-01T10:48:28Z</time></trkpt>
<trkpt lat="42.270290" lon="3.219377"><ele>399.3</ele><time>2011-04-01T10:48:33Z</time></trkpt>
<trkpt lat="42.270382" lon="3.219383"><ele>400.2</ele><time>2011-04-01T10:48:38Z</time></trkpt>
<trkpt lat="42.270470" lon="3.219380"><ele>401.2</ele><time>2011-04-01T10:48:43Z</time></trkpt>
<trkpt lat="42.270553" lon="3.219357"><ele>402</ele><time>2011-04-01T10:48:48Z</time></trkpt>
<trkpt lat="42.270638" lon="3.219328"><ele>402.7</ele><time>2011-04-01T10:48:53Z</time></trkpt>
<trkpt lat="42.270722" lon="3.219288"><ele>403.6</ele><time>2011-04-01T10:48:58Z</time></trkpt>
<trkpt lat="42.270798" lon="3.219245"><ele>404.4</ele><time>2011-04-01T10:49:03Z</time></trkpt>
<trkpt lat="42.270882" lon="3.219193"><ele>405.1</ele><time>2011-04-01T10:49:08Z</time></trkpt>
<trkpt lat="42.270962" lon="3.219138"><ele>405.9</ele><time>2011-04-01T10:49:13Z</time></trkpt>
<trkpt lat="42.271038" lon="3.219072"><ele>406.7</ele><time>2011-04-01T10:49:18Z</time></trkpt>
<trkpt lat="42.271110" lon="3.219003"><ele>407.4</ele><time>2011-04-01T10:49:23Z</time></trkpt>
<trkpt lat="42.271180" lon="3.218933"><ele>408.1</ele><time>2011-04-01T10:49:28Z</time></trkpt>
<trkpt lat="42.271240" lon="3.218852"><ele>408.7</ele><time>2011-04-01T10:49:33Z</time></trkpt>
<trkpt lat="42.271313" lon="3.218780"><ele>409.5</ele><time>2011-04-01T10:49:38Z</time></trkpt>
<trkpt lat="42.271385" lon="3.218712"><ele>410.2</ele><time>2011-04-01T10:49:43Z</time></trkpt>
<trkpt lat="42.271450" lon="3.218648"><ele>410.8</ele><time>2011-04-01T10:49:48Z</time></trkpt>
<trkpt lat="42.271518" lon="3.218585"><ele>411.6</ele><time>2011-04-01T10:49:53Z</time></trkpt>
<trkpt lat="42.271592" lon="3.218515"><ele>412.3</ele><time>2011-04-01T10:49:58Z</time></trkpt>
<trkpt lat="42.271663" lon="3.218450"><ele>413</ele><time>2011-04-01T10:50:03Z</time></trkpt>
<trkpt lat="42.271732" lon="3.218377"><ele>413.7</ele><time>2011-04-01T10:50:08Z</time></trkpt>
<trkpt lat="42.271817" lon="3.218297"><ele>414</ele><time>2011-04-01T10:50:13Z</time></trkpt>
<trkpt lat="42.271893" lon="3.218223"><ele>414.5</ele><time>2011-04-01T10:50:18Z</time></trkpt>
<trkpt lat="42.271965" lon="3.218147"><ele>415</ele><time>2011-04-01T10:50:23Z</time></trkpt>
<trkpt lat="42.272045" lon="3.218067"><ele>415.5</ele><time>2011-04-01T10:50:28Z</time></trkpt>
<trkpt lat="42.272122" lon="3.217997"><ele>416.1</ele><time>2011-04-01T10:50:33Z</time></trkpt>
<trkpt lat="42.272193" lon="3.217932"><ele>416.7</ele><time>2011-04-01T10:50:38Z</time></trkpt>
<trkpt lat="42.272278" lon="3.217883"><ele>417.4</ele><time>2011-04-01T10:50:43Z</time></trkpt>
<trkpt lat="42.272362" lon="3.217843"><ele>418.2</ele><time>2011-04-01T10:50:48Z</time></trkpt>
<trkpt lat="42.272445" lon="3.217838"><ele>418.9</ele><time>2011-04-01T10:50:53Z</time></trkpt>
<trkpt lat="42.272530" lon="3.217868"><ele>419.5</ele><time>2011-04-01T10:50:58Z</time></trkpt>
<trkpt lat="42.272625" lon="3.217947"><ele>419.6</ele><time>2011-04-01T10:51:03Z</time></trkpt>
<trkpt lat="42.272708" lon="3.218000"><ele>419.8</ele><time>2011-04-01T10:51:08Z</time></trkpt>
<trkpt lat="42.272800" lon="3.218063"><ele>419.9</ele><time>2011-04-01T10:51:13Z</time></trkpt>
<trkpt lat="42.272888" lon="3.218127"><ele>420.1</ele><time>2011-04-01T10:51:18Z</time></trkpt>
<trkpt lat="42.272987" lon="3.218207"><ele>420.4</ele><time>2011-04-01T10:51:23Z</time></trkpt>
<trkpt lat="42.273072" lon="3.218302"><ele>421.2</ele><time>2011-04-01T10:51:28Z</time></trkpt>
<trkpt lat="42.273143" lon="3.218402"><ele>422.1</ele><time>2011-04-01T10:51:33Z</time></trkpt>
<trkpt lat="42.273208" lon="3.218515"><ele>422.9</ele><time>2011-04-01T10:51:38Z</time></trkpt>
<trkpt lat="42.273267" lon="3.218628"><ele>423.7</ele><time>2011-04-01T10:51:43Z</time></trkpt>
<trkpt lat="42.273320" lon="3.218748"><ele>424.6</ele><time>2011-04-01T10:51:48Z</time></trkpt>
<trkpt lat="42.273362" lon="3.218872"><ele>425.9</ele><time>2011-04-01T10:51:53Z</time></trkpt>
<trkpt lat="42.273395" lon="3.218993"><ele>426.6</ele><time>2011-04-01T10:51:58Z</time></trkpt>
<trkpt lat="42.273418" lon="3.219123"><ele>427.6</ele><time>2011-04-01T10:52:03Z</time></trkpt>
<trkpt lat="42.273442" lon="3.219253"><ele>428.5</ele><time>2011-04-01T10:52:08Z</time></trkpt>
<trkpt lat="42.273460" lon="3.219382"><ele>429.4</ele><time>2011-04-01T10:52:13Z</time></trkpt>
<trkpt lat="42.273468" lon="3.219502"><ele>430.2</ele><time>2011-04-01T10:52:18Z</time></trkpt>
<trkpt lat="42.273472" lon="3.219618"><ele>431</ele><time>2011-04-01T10:52:23Z</time></trkpt>
<trkpt lat="42.273465" lon="3.219737"><ele>431.7</ele><time>2011-04-01T10:52:28Z</time></trkpt>
<trkpt lat="42.273448" lon="3.219848"><ele>432.5</ele><time>2011-04-01T10:52:33Z</time></trkpt>
<trkpt lat="42.273433" lon="3.219963"><ele>433.4</ele><time>2011-04-01T10:52:38Z</time></trkpt>
<trkpt lat="42.273415" lon="3.220077"><ele>434.4</ele><time>2011-04-01T10:52:43Z</time></trkpt>
<trkpt lat="42.273388" lon="3.220195"><ele>434.8</ele><time>2011-04-01T10:52:48Z</time></trkpt>
<trkpt lat="42.273347" lon="3.220302"><ele>435.7</ele><time>2011-04-01T10:52:53Z</time></trkpt>
<trkpt lat="42.273303" lon="3.220402"><ele>436.5</ele><time>2011-04-01T10:52:58Z</time></trkpt>
<trkpt lat="42.273250" lon="3.220500"><ele>437</ele><time>2011-04-01T10:53:03Z</time></trkpt>
<trkpt lat="42.273197" lon="3.220602"><ele>437.5</ele><time>2011-04-01T10:53:08Z</time></trkpt>
<trkpt lat="42.273140" lon="3.220698"><ele>438.2</ele><time>2011-04-01T10:53:13Z</time></trkpt>
<trkpt lat="42.273078" lon="3.220797"><ele>438.8</ele><time>2011-04-01T10:53:18Z</time></trkpt>
<trkpt lat="42.273018" lon="3.220897"><ele>439.4</ele><time>2011-04-01T10:53:23Z</time></trkpt>
<trkpt lat="42.272953" lon="3.221012"><ele>439.8</ele><time>2011-04-01T10:53:28Z</time></trkpt>
<trkpt lat="42.272873" lon="3.221145"><ele>440.2</ele><time>2011-04-01T10:53:33Z</time></trkpt>
<trkpt lat="42.272797" lon="3.221292"><ele>440.7</ele><time>2011-04-01T10:53:38Z</time></trkpt>
<trkpt lat="42.272713" lon="3.221445"><ele>441.3</ele><time>2011-04-01T10:53:43Z</time></trkpt>
<trkpt lat="42.272628" lon="3.221607"><ele>441.6</ele><time>2011-04-01T10:53:48Z</time></trkpt>
<trkpt lat="42.272545" lon="3.221743"><ele>442.1</ele><time>2011-04-01T10:53:53Z</time></trkpt>
<trkpt lat="42.272450" lon="3.221860"><ele>442.7</ele><time>2011-04-01T10:53:58Z</time></trkpt>
<trkpt lat="42.272353" lon="3.221973"><ele>443.3</ele><time>2011-04-01T10:54:03Z</time></trkpt>
<trkpt lat="42.272258" lon="3.222078"><ele>444.1</ele><time>2011-04-01T10:54:08Z</time></trkpt>
<trkpt lat="42.272163" lon="3.222187"><ele>445.1</ele><time>2011-04-01T10:54:13Z</time></trkpt>
<trkpt lat="42.272068" lon="3.222303"><ele>446</ele><time>2011-04-01T10:54:18Z</time></trkpt>
<trkpt lat="42.271980" lon="3.222458"><ele>446.2</ele><time>2011-04-01T10:54:23Z</time></trkpt>
<trkpt lat="42.271920" lon="3.222620"><ele>446.5</ele><time>2011-04-01T10:54:28Z</time></trkpt>
<trkpt lat="42.271882" lon="3.222790"><ele>446.7</ele><time>2011-04-01T10:54:33Z</time></trkpt>
<trkpt lat="42.271862" lon="3.222963"><ele>447</ele><time>2011-04-01T10:54:38Z</time></trkpt>
<trkpt lat="42.271817" lon="3.223095"><ele>447.8</ele><time>2011-04-01T10:54:43Z</time></trkpt>
<trkpt lat="42.271770" lon="3.223178"><ele>448.7</ele><time>2011-04-01T10:54:48Z</time></trkpt>
<trkpt lat="42.271793" lon="3.223252"><ele>449</ele><time>2011-04-01T10:54:53Z</time></trkpt>
<trkpt lat="42.271797" lon="3.223272"><ele>449.2</ele><time>2011-04-01T10:54:58Z</time></trkpt>
<trkpt lat="42.271797" lon="3.223268"><ele>449.2</ele><time>2011-04-01T10:55:03Z</time></trkpt>
<trkpt lat="42.271797" lon="3.223267"><ele>449.4</ele><time>2011-04-01T10:55:08Z</time></trkpt>
<trkpt lat="42.271802" lon="3.223272"><ele>449.5</ele><time>2011-04-01T10:55:13Z</time></trkpt>
<trkpt lat="42.271790" lon="3.223312"><ele>450</ele><time>2011-04-01T10:55:18Z</time></trkpt>
<trkpt lat="42.271748" lon="3.223367"><ele>450.9</ele><time>2011-04-01T10:55:23Z</time></trkpt>
<trkpt lat="42.271705" lon="3.223432"><ele>451.8</ele><time>2011-04-01T10:55:28Z</time></trkpt>
<trkpt lat="42.271645" lon="3.223458"><ele>452.3</ele><time>2011-04-01T10:55:33Z</time></trkpt>
<trkpt lat="42.271577" lon="3.223430"><ele>452.5</ele><time>2011-04-01T10:55:38Z</time></trkpt>
<trkpt lat="42.271557" lon="3.223353"><ele>452.5</ele><time>2011-04-01T10:55:43Z</time></trkpt>
<trkpt lat="42.271550" lon="3.223250"><ele>452.9</ele><time>2011-04-01T10:55:48Z</time></trkpt>
<trkpt lat="42.271550" lon="3.223150"><ele>453.7</ele><time>2011-04-01T10:55:53Z</time></trkpt>
<trkpt lat="42.271542" lon="3.223052"><ele>454.3</ele><time>2011-04-01T10:55:58Z</time></trkpt>
<trkpt lat="42.271550" lon="3.222948"><ele>454.8</ele><time>2011-04-01T10:56:03Z</time></trkpt>
<trkpt lat="42.271553" lon="3.222852"><ele>455.4</ele><time>2011-04-01T10:56:08Z</time></trkpt>
<trkpt lat="42.271557" lon="3.222767"><ele>456.1</ele><time>2011-04-01T10:56:13Z</time></trkpt>
<trkpt lat="42.271565" lon="3.222677"><ele>456.6</ele><time>2011-04-01T10:56:18Z</time></trkpt>
<trkpt lat="42.271560" lon="3.222585"><ele>457.4</ele><time>2011-04-01T10:56:23Z</time></trkpt>
<trkpt lat="42.271587" lon="3.222498"><ele>458.1</ele><time>2011-04-01T10:56:28Z</time></trkpt>
<trkpt lat="42.271613" lon="3.222408"><ele>458.8</ele><time>2011-04-01T10:56:33Z</time></trkpt>
<trkpt lat="42.271633" lon="3.222312"><ele>459.6</ele><time>2011-04-01T10:56:38Z</time></trkpt>
<trkpt lat="42.271648" lon="3.222218"><ele>460.7</ele><time>2011-04-01T10:56:43Z</time></trkpt>
<trkpt lat="42.271640" lon="3.222125"><ele>461.8</ele><time>2011-04-01T10:56:48Z</time></trkpt>
<trkpt lat="42.271607" lon="3.222043"><ele>463.1</ele><time>2011-04-01T10:56:53Z</time></trkpt>
<trkpt lat="42.271592" lon="3.221958"><ele>464.4</ele><time>2011-04-01T10:56:58Z</time></trkpt>
<trkpt lat="42.271583" lon="3.221873"><ele>466</ele><time>2011-04-01T10:57:03Z</time></trkpt>
<trkpt lat="42.271572" lon="3.221795"><ele>467.2</ele><time>2011-04-01T10:57:08Z</time></trkpt>
<trkpt lat="42.271592" lon="3.221720"><ele>468.3</ele><time>2011-04-01T10:57:13Z</time></trkpt>
<trkpt lat="42.271633" lon="3.221657"><ele>468.9</ele><time>2011-04-01T10:57:18Z</time></trkpt>
<trkpt lat="42.271672" lon="3.221585"><ele>469.5</ele><time>2011-04-01T10:57:23Z</time></trkpt>
<trkpt lat="42.271705" lon="3.221505"><ele>470.2</ele><time>2011-04-01T10:57:28Z</time></trkpt>
<trkpt lat="42.271732" lon="3.221412"><ele>470.8</ele><time>2011-04-01T10:57:33Z</time></trkpt>
<trkpt lat="42.271752" lon="3.221317"><ele>471.2</ele><time>2011-04-01T10:57:38Z</time></trkpt>
<trkpt lat="42.271808" lon="3.221238"><ele>471.1</ele><time>2011-04-01T10:57:43Z</time></trkpt>
<trkpt lat="42.271862" lon="3.221143"><ele>471</ele><time>2011-04-01T10:57:48Z</time></trkpt>
<trkpt lat="42.271927" lon="3.221043"><ele>470.9</ele><time>2011-04-01T10:57:53Z</time></trkpt>
<trkpt lat="42.271992" lon="3.220920"><ele>471</ele><time>2011-04-01T10:57:58Z</time></trkpt>
<trkpt lat="42.272065" lon="3.220772"><ele>470.5</ele><time>2011-04-01T10:58:03Z</time></trkpt>
<trkpt lat="42.272167" lon="3.220552"><ele>469.3</ele><time>2011-04-01T10:58:08Z</time></trkpt>
<trkpt lat="42.272252" lon="3.220407"><ele>469.4</ele><time>2011-04-01T10:58:13Z</time></trkpt>
<trkpt lat="42.272327" lon="3.220260"><ele>469.1</ele><time>2011-04-01T10:58:18Z</time></trkpt>
<trkpt lat="42.272397" lon="3.220125"><ele>469.1</ele><time>2011-04-01T10:58:23Z</time></trkpt>
<trkpt lat="42.272453" lon="3.220008"><ele>469.2</ele><time>2011-04-01T10:58:28Z</time></trkpt>
<trkpt lat="42.272510" lon="3.219893"><ele>469.1</ele><time>2011-04-01T10:58:33Z</time></trkpt>
<trkpt lat="42.272572" lon="3.219783"><ele>468.4</ele><time>2011-04-01T10:58:38Z</time></trkpt>
<trkpt lat="42.272557" lon="3.219765"><ele>468.2</ele><time>2011-04-01T10:58:43Z</time></trkpt>
<trkpt lat="42.272552" lon="3.219768"><ele>467.9</ele><time>2011-04-01T10:58:48Z</time></trkpt>
<trkpt lat="42.272560" lon="3.219780"><ele>467.7</ele><time>2011-04-01T10:58:53Z</time></trkpt>
<trkpt lat="42.272552" lon="3.219785"><ele>467.7</ele><time>2011-04-01T10:58:58Z</time></trkpt>
<trkpt lat="42.272552" lon="3.219787"><ele>467.5</ele><time>2011-04-01T10:59:03Z</time></trkpt>
<trkpt lat="42.272548" lon="3.219788"><ele>467.5</ele><time>2011-04-01T10:59:08Z</time></trkpt>
<trkpt lat="42.272545" lon="3.219788"><ele>467.5</ele><time>2011-04-01T10:59:13Z</time></trkpt>
<trkpt lat="42.272548" lon="3.219793"><ele>467.5</ele><time>2011-04-01T10:59:18Z</time></trkpt>
<trkpt lat="42.272552" lon="3.219798"><ele>467.3</ele><time>2011-04-01T10:59:23Z</time></trkpt>
<trkpt lat="42.272552" lon="3.219798"><ele>467.1</ele><time>2011-04-01T10:59:28Z</time></trkpt>
<trkpt lat="42.272552" lon="3.219798"><ele>467</ele><time>2011-04-01T10:59:33Z</time></trkpt>
<trkpt lat="42.272552" lon="3.219797"><ele>466.9</ele><time>2011-04-01T10:59:38Z</time></trkpt>
<trkpt lat="42.272552" lon="3.219797"><ele>466.8</ele><time>2011-04-01T10:59:43Z</time></trkpt>
<trkpt lat="42.272552" lon="3.219798"><ele>466.8</ele><time>2011-04-01T10:59:48Z</time></trkpt>
<trkpt lat="42.272552" lon="3.219798"><ele>466.9</ele><time>2011-04-01T10:59:53Z</time></trkpt>
<trkpt lat="42.272545" lon="3.219795"><ele>467</ele><time>2011-04-01T10:59:58Z</time></trkpt>
<trkpt lat="42.272545" lon="3.219790"><ele>467</ele><time>2011-04-01T11:00:03Z</time></trkpt>
<trkpt lat="42.272530" lon="3.219788"><ele>466.9</ele><time>2011-04-01T11:00:08Z</time></trkpt>
<trkpt lat="42.272530" lon="3.219788"><ele>467</ele><time>2011-04-01T11:00:13Z</time></trkpt>
<trkpt lat="42.272530" lon="3.219792"><ele>467.1</ele><time>2011-04-01T11:00:18Z</time></trkpt>
<trkpt lat="42.272525" lon="3.219793"><ele>467.3</ele><time>2011-04-01T11:00:23Z</time></trkpt>
<trkpt lat="42.272525" lon="3.219793"><ele>467.5</ele><time>2011-04-01T11:00:28Z</time></trkpt>
<trkpt lat="42.272525" lon="3.219798"><ele>467.6</ele><time>2011-04-01T11:00:33Z</time></trkpt>
<trkpt lat="42.272525" lon="3.219798"><ele>467.7</ele><time>2011-04-01T11:00:38Z</time></trkpt>
<trkpt lat="42.272525" lon="3.219800"><ele>467.7</ele><time>2011-04-01T11:00:43Z</time></trkpt>
<trkpt lat="42.272525" lon="3.219800"><ele>467.7</ele><time>2011-04-01T11:00:48Z</time></trkpt>
<trkpt lat="42.272525" lon="3.219800"><ele>467.7</ele><time>2011-04-01T11:00:53Z</time></trkpt>
<trkpt lat="42.272533" lon="3.219795"><ele>467.6</ele><time>2011-04-01T11:00:58Z</time></trkpt>
<trkpt lat="42.272542" lon="3.219795"><ele>467.5</ele><time>2011-04-01T11:01:03Z</time></trkpt>
<trkpt lat="42.272542" lon="3.219793"><ele>467.5</ele><time>2011-04-01T11:01:08Z</time></trkpt>
<trkpt lat="42.272542" lon="3.219793"><ele>467.4</ele><time>2011-04-01T11:01:13Z</time></trkpt>
<trkpt lat="42.272542" lon="3.219793"><ele>467.3</ele><time>2011-04-01T11:01:18Z</time></trkpt>
<trkpt lat="42.272542" lon="3.219793"><ele>467.3</ele><time>2011-04-01T11:01:23Z</time></trkpt>
<trkpt lat="42.272542" lon="3.219797"><ele>467.5</ele><time>2011-04-01T11:01:28Z</time></trkpt>
<trkpt lat="42.272542" lon="3.219797"><ele>467.6</ele><time>2011-04-01T11:01:33Z</time></trkpt>
<trkpt lat="42.272542" lon="3.219795"><ele>467.6</ele><time>2011-04-01T11:01:38Z</time></trkpt>
<trkpt lat="42.272542" lon="3.219797"><ele>467.6</ele><time>2011-04-01T11:01:43Z</time></trkpt>
<trkpt lat="42.272545" lon="3.219795"><ele>467.7</ele><time>2011-04-01T11:01:48Z</time></trkpt>
<trkpt lat="42.272545" lon="3.219793"><ele>467.7</ele><time>2011-04-01T11:01:53Z</time></trkpt>
<trkpt lat="42.272545" lon="3.219793"><ele>467.7</ele><time>2011-04-01T11:01:58Z</time></trkpt>
<trkpt lat="42.272545" lon="3.219797"><ele>467.7</ele><time>2011-04-01T11:02:03Z</time></trkpt>
<trkpt lat="42.272545" lon="3.219802"><ele>467.6</ele><time>2011-04-01T11:02:08Z</time></trkpt>
<trkpt lat="42.272545" lon="3.219803"><ele>467.5</ele><time>2011-04-01T11:02:13Z</time></trkpt>
<trkpt lat="42.272545" lon="3.219795"><ele>467.5</ele><time>2011-04-01T11:02:18Z</time></trkpt>
<trkpt lat="42.272533" lon="3.219807"><ele>467.6</ele><time>2011-04-01T11:02:23Z</time></trkpt>
<trkpt lat="42.272525" lon="3.219812"><ele>467.6</ele><time>2011-04-01T11:02:28Z</time></trkpt>
<trkpt lat="42.272498" lon="3.219872"><ele>468</ele><time>2011-04-01T11:02:33Z</time></trkpt>
<trkpt lat="42.272468" lon="3.219967"><ele>468.2</ele><time>2011-04-01T11:02:38Z</time></trkpt>
<trkpt lat="42.272418" lon="3.220057"><ele>468</ele><time>2011-04-01T11:02:43Z</time></trkpt>
<trkpt lat="42.272362" lon="3.220152"><ele>467.7</ele><time>2011-04-01T11:02:48Z</time></trkpt>
<trkpt lat="42.272285" lon="3.220262"><ele>467.7</ele><time>2011-04-01T11:02:53Z</time></trkpt>
<trkpt lat="42.272232" lon="3.220367"><ele>467.9</ele><time>2011-04-01T11:02:58Z</time></trkpt>
<trkpt lat="42.272187" lon="3.220472"><ele>468.1</ele><time>2011-04-01T11:03:03Z</time></trkpt>
<trkpt lat="42.272128" lon="3.220610"><ele>468</ele><time>2011-04-01T11:03:08Z</time></trkpt>
<trkpt lat="42.272068" lon="3.220745"><ele>468.9</ele><time>2011-04-01T11:03:13Z</time></trkpt>
<trkpt lat="42.272007" lon="3.220883"><ele>469.7</ele><time>2011-04-01T11:03:18Z</time></trkpt>
<trkpt lat="42.271930" lon="3.221028"><ele>469.6</ele><time>2011-04-01T11:03:23Z</time></trkpt>
<trkpt lat="42.271850" lon="3.221160"><ele>469.4</ele><time>2011-04-01T11:03:28Z</time></trkpt>
<trkpt lat="42.271770" lon="3.221302"><ele>469.6</ele><time>2011-04-01T11:03:33Z</time></trkpt>
<trkpt lat="42.271710" lon="3.221458"><ele>468.9</ele><time>2011-04-01T11:03:38Z</time></trkpt>
<trkpt lat="42.271633" lon="3.221652"><ele>467.3</ele><time>2011-04-01T11:03:43Z</time></trkpt>
<trkpt lat="42.271560" lon="3.221810"><ele>465.5</ele><time>2011-04-01T11:03:48Z</time></trkpt>
<trkpt lat="42.271587" lon="3.222008"><ele>462.6</ele><time>2011-04-01T11:03:53Z</time></trkpt>
<trkpt lat="42.271598" lon="3.222138"><ele>460.7</ele><time>2011-04-01T11:03:58Z</time></trkpt>
<trkpt lat="42.271598" lon="3.222135"><ele>460.7</ele><time>2011-04-01T11:04:03Z</time></trkpt>
<trkpt lat="42.271598" lon="3.222135"><ele>460.9</ele><time>2011-04-01T11:04:08Z</time></trkpt>
<trkpt lat="42.271598" lon="3.222135"><ele>461.2</ele><time>2011-04-01T11:04:13Z</time></trkpt>
<trkpt lat="42.271607" lon="3.222245"><ele>460</ele><time>2011-04-01T11:04:18Z</time></trkpt>
<trkpt lat="42.271568" lon="3.222493"><ele>457.7</ele><time>2011-04-01T11:04:23Z</time></trkpt>
<trkpt lat="42.271533" lon="3.222800"><ele>455.4</ele><time>2011-04-01T11:04:28Z</time></trkpt>
<trkpt lat="42.271553" lon="3.223132"><ele>453.4</ele><time>2011-04-01T11:04:33Z</time></trkpt>
<trkpt lat="42.271637" lon="3.223420"><ele>452</ele><time>2011-04-01T11:04:38Z</time></trkpt>
<trkpt lat="42.271785" lon="3.223332"><ele>450.3</ele><time>2011-04-01T11:04:43Z</time></trkpt>
<trkpt lat="42.271867" lon="3.223248"><ele>448.4</ele><time>2011-04-01T11:04:48Z</time></trkpt>
<trkpt lat="42.271950" lon="3.223338"><ele>446.4</ele><time>2011-04-01T11:04:53Z</time></trkpt>
<trkpt lat="42.272000" lon="3.223652"><ele>444.2</ele><time>2011-04-01T11:04:58Z</time></trkpt>
<trkpt lat="42.271962" lon="3.224093"><ele>440.9</ele><time>2011-04-01T11:05:03Z</time></trkpt>
<trkpt lat="42.271893" lon="3.224632"><ele>436.1</ele><time>2011-04-01T11:05:08Z</time></trkpt>
<trkpt lat="42.271942" lon="3.225127"><ele>432.9</ele><time>2011-04-01T11:05:13Z</time></trkpt>
<trkpt lat="42.272240" lon="3.225500"><ele>429.8</ele><time>2011-04-01T11:05:18Z</time></trkpt>
<trkpt lat="42.272643" lon="3.225732"><ele>426.3</ele><time>2011-04-01T11:05:23Z</time></trkpt>
<trkpt lat="42.273060" lon="3.225970"><ele>423.1</ele><time>2011-04-01T11:05:28Z</time></trkpt>
<trkpt lat="42.273472" lon="3.226243"><ele>420.1</ele><time>2011-04-01T11:05:33Z</time></trkpt>
<trkpt lat="42.273883" lon="3.226552"><ele>416.6</ele><time>2011-04-01T11:05:38Z</time></trkpt>
<trkpt lat="42.274285" lon="3.226852"><ele>413.2</ele><time>2011-04-01T11:05:43Z</time></trkpt>
<trkpt lat="42.274537" lon="3.227142"><ele>411.6</ele><time>2011-04-01T11:05:48Z</time></trkpt>
<trkpt lat="42.274558" lon="3.227443"><ele>411.9</ele><time>2011-04-01T11:05:53Z</time></trkpt>
<trkpt lat="42.274575" lon="3.227582"><ele>412.9</ele><time>2011-04-01T11:05:58Z</time></trkpt>
<trkpt lat="42.274582" lon="3.227662"><ele>413.7</ele><time>2011-04-01T11:06:03Z</time></trkpt>
<trkpt lat="42.274602" lon="3.227782"><ele>414.7</ele><time>2011-04-01T11:06:08Z</time></trkpt>
<trkpt lat="42.274578" lon="3.227928"><ele>415.4</ele><time>2011-04-01T11:06:13Z</time></trkpt>
<trkpt lat="42.274563" lon="3.228087"><ele>416.3</ele><time>2011-04-01T11:06:18Z</time></trkpt>
<trkpt lat="42.274548" lon="3.228245"><ele>417.1</ele><time>2011-04-01T11:06:23Z</time></trkpt>
<trkpt lat="42.274528" lon="3.228402"><ele>417.6</ele><time>2011-04-01T11:06:28Z</time></trkpt>
<trkpt lat="42.274502" lon="3.228555"><ele>418.3</ele><time>2011-04-01T11:06:33Z</time></trkpt>
<trkpt lat="42.274467" lon="3.228708"><ele>419.2</ele><time>2011-04-01T11:06:38Z</time></trkpt>
<trkpt lat="42.274437" lon="3.228875"><ele>419.9</ele><time>2011-04-01T11:06:43Z</time></trkpt>
<trkpt lat="42.274407" lon="3.229053"><ele>420.1</ele><time>2011-04-01T11:06:48Z</time></trkpt>
<trkpt lat="42.274345" lon="3.229242"><ele>419.6</ele><time>2011-04-01T11:06:53Z</time></trkpt>
<trkpt lat="42.274242" lon="3.229482"><ele>418</ele><time>2011-04-01T11:06:58Z</time></trkpt>
<trkpt lat="42.274043" lon="3.229757"><ele>414.3</ele><time>2011-04-01T11:07:03Z</time></trkpt>
<trkpt lat="42.273803" lon="3.229897"><ele>410.2</ele><time>2011-04-01T11:07:08Z</time></trkpt>
<trkpt lat="42.273545" lon="3.229940"><ele>404.6</ele><time>2011-04-01T11:07:13Z</time></trkpt>
<trkpt lat="42.273273" lon="3.229983"><ele>398.1</ele><time>2011-04-01T11:07:18Z</time></trkpt>
<trkpt lat="42.272977" lon="3.230020"><ele>391</ele><time>2011-04-01T11:07:23Z</time></trkpt>
<trkpt lat="42.272690" lon="3.230032"><ele>384.9</ele><time>2011-04-01T11:07:28Z</time></trkpt>
<trkpt lat="42.272408" lon="3.230050"><ele>380.3</ele><time>2011-04-01T11:07:33Z</time></trkpt>
<trkpt lat="42.272160" lon="3.230030"><ele>375.2</ele><time>2011-04-01T11:07:38Z</time></trkpt>
<trkpt lat="42.271838" lon="3.229725"><ele>369.7</ele><time>2011-04-01T11:07:43Z</time></trkpt>
<trkpt lat="42.271545" lon="3.229468"><ele>368.9</ele><time>2011-04-01T11:07:48Z</time></trkpt>
<trkpt lat="42.271343" lon="3.229362"><ele>370.5</ele><time>2011-04-01T11:07:53Z</time></trkpt>
<trkpt lat="42.271110" lon="3.229417"><ele>370.1</ele><time>2011-04-01T11:07:58Z</time></trkpt>
<trkpt lat="42.270805" lon="3.229562"><ele>367.1</ele><time>2011-04-01T11:08:03Z</time></trkpt>
<trkpt lat="42.270485" lon="3.229577"><ele>366.7</ele><time>2011-04-01T11:08:08Z</time></trkpt>
<trkpt lat="42.270233" lon="3.229602"><ele>366.8</ele><time>2011-04-01T11:08:13Z</time></trkpt>
<trkpt lat="42.270005" lon="3.229640"><ele>367.3</ele><time>2011-04-01T11:08:18Z</time></trkpt>
<trkpt lat="42.269725" lon="3.229733"><ele>363.6</ele><time>2011-04-01T11:08:23Z</time></trkpt>
<trkpt lat="42.269352" lon="3.229938"><ele>356.2</ele><time>2011-04-01T11:08:28Z</time></trkpt>
<trkpt lat="42.268910" lon="3.230107"><ele>349.2</ele><time>2011-04-01T11:08:33Z</time></trkpt>
<trkpt lat="42.268452" lon="3.230310"><ele>343.5</ele><time>2011-04-01T11:08:38Z</time></trkpt>
<trkpt lat="42.267987" lon="3.230567"><ele>339.4</ele><time>2011-04-01T11:08:43Z</time></trkpt>
<trkpt lat="42.267502" lon="3.230715"><ele>332.9</ele><time>2011-04-01T11:08:48Z</time></trkpt>
<trkpt lat="42.267002" lon="3.230763"><ele>328.8</ele><time>2011-04-01T11:08:53Z</time></trkpt>
<trkpt lat="42.266533" lon="3.230930"><ele>324</ele><time>2011-04-01T11:08:58Z</time></trkpt>
<trkpt lat="42.266155" lon="3.231063"><ele>318.9</ele><time>2011-04-01T11:09:03Z</time></trkpt>
<trkpt lat="42.265820" lon="3.231023"><ele>312.5</ele><time>2011-04-01T11:09:08Z</time></trkpt>
<trkpt lat="42.265503" lon="3.230630"><ele>307.7</ele><time>2011-04-01T11:09:13Z</time></trkpt>
<trkpt lat="42.265133" lon="3.230325"><ele>304.6</ele><time>2011-04-01T11:09:18Z</time></trkpt>
<trkpt lat="42.264748" lon="3.230135"><ele>301.2</ele><time>2011-04-01T11:09:23Z</time></trkpt>
<trkpt lat="42.264530" lon="3.230050"><ele>300.4</ele><time>2011-04-01T11:09:28Z</time></trkpt>
<trkpt lat="42.264523" lon="3.230052"><ele>300.4</ele><time>2011-04-01T11:09:33Z</time></trkpt>
<trkpt lat="42.264518" lon="3.230053"><ele>300.5</ele><time>2011-04-01T11:09:38Z</time></trkpt>
<trkpt lat="42.264518" lon="3.230053"><ele>300.6</ele><time>2011-04-01T11:09:43Z</time></trkpt>
<trkpt lat="42.264518" lon="3.230050"><ele>300.7</ele><time>2011-04-01T11:09:48Z</time></trkpt>
<trkpt lat="42.264462" lon="3.230008"><ele>300.7</ele><time>2011-04-01T11:09:53Z</time></trkpt>
<trkpt lat="42.264332" lon="3.229952"><ele>300.8</ele><time>2011-04-01T11:09:58Z</time></trkpt>
<trkpt lat="42.264142" lon="3.229848"><ele>301.2</ele><time>2011-04-01T11:10:03Z</time></trkpt>
<trkpt lat="42.263917" lon="3.229718"><ele>299.8</ele><time>2011-04-01T11:10:08Z</time></trkpt>
<trkpt lat="42.263553" lon="3.229658"><ele>295.3</ele><time>2011-04-01T11:10:13Z</time></trkpt>
<trkpt lat="42.263130" lon="3.229643"><ele>291.5</ele><time>2011-04-01T11:10:18Z</time></trkpt>
<trkpt lat="42.262668" lon="3.229603"><ele>285.4</ele><time>2011-04-01T11:10:23Z</time></trkpt>
<trkpt lat="42.262142" lon="3.229658"><ele>281.9</ele><time>2011-04-01T11:10:28Z</time></trkpt>
<trkpt lat="42.261733" lon="3.229797"><ele>281.2</ele><time>2011-04-01T11:10:33Z</time></trkpt>
<trkpt lat="42.261318" lon="3.230028"><ele>276</ele><time>2011-04-01T11:10:38Z</time></trkpt>
<trkpt lat="42.260910" lon="3.230327"><ele>274.9</ele><time>2011-04-01T11:10:43Z</time></trkpt>
<trkpt lat="42.260612" lon="3.230603"><ele>273.9</ele><time>2011-04-01T11:10:48Z</time></trkpt>
<trkpt lat="42.260258" lon="3.230840"><ele>270.8</ele><time>2011-04-01T11:10:53Z</time></trkpt>
<trkpt lat="42.259865" lon="3.231157"><ele>265.5</ele><time>2011-04-01T11:10:58Z</time></trkpt>
<trkpt lat="42.259320" lon="3.231418"><ele>257.1</ele><time>2011-04-01T11:11:03Z</time></trkpt>
<trkpt lat="42.258820" lon="3.231550"><ele>254.2</ele><time>2011-04-01T11:11:08Z</time></trkpt>
<trkpt lat="42.258365" lon="3.231445"><ele>249.2</ele><time>2011-04-01T11:11:13Z</time></trkpt>
<trkpt lat="42.257957" lon="3.231380"><ele>245.7</ele><time>2011-04-01T11:11:18Z</time></trkpt>
<trkpt lat="42.257790" lon="3.231418"><ele>245.3</ele><time>2011-04-01T11:11:23Z</time></trkpt>
<trkpt lat="42.257613" lon="3.231607"><ele>244.7</ele><time>2011-04-01T11:11:28Z</time></trkpt>
<trkpt lat="42.257465" lon="3.231925"><ele>241.3</ele><time>2011-04-01T11:11:33Z</time></trkpt>
<trkpt lat="42.257385" lon="3.232275"><ele>235.7</ele><time>2011-04-01T11:11:38Z</time></trkpt>
<trkpt lat="42.257252" lon="3.232657"><ele>228.5</ele><time>2011-04-01T11:11:43Z</time></trkpt>
<trkpt lat="42.257160" lon="3.233142"><ele>221.8</ele><time>2011-04-01T11:11:48Z</time></trkpt>
<trkpt lat="42.257243" lon="3.233702"><ele>212.8</ele><time>2011-04-01T11:11:53Z</time></trkpt>
<trkpt lat="42.257180" lon="3.234425"><ele>205</ele><time>2011-04-01T11:11:58Z</time></trkpt>
<trkpt lat="42.257092" lon="3.235095"><ele>198.7</ele><time>2011-04-01T11:12:03Z</time></trkpt>
<trkpt lat="42.256988" lon="3.235790"><ele>191.5</ele><time>2011-04-01T11:12:08Z</time></trkpt>
<trkpt lat="42.256828" lon="3.236443"><ele>187.5</ele><time>2011-04-01T11:12:13Z</time></trkpt>
<trkpt lat="42.256687" lon="3.237067"><ele>179.7</ele><time>2011-04-01T11:12:18Z</time></trkpt>
<trkpt lat="42.256553" lon="3.237770"><ele>174.2</ele><time>2011-04-01T11:12:23Z</time></trkpt>
<trkpt lat="42.256313" lon="3.238247"><ele>174.2</ele><time>2011-04-01T11:12:28Z</time></trkpt>
<trkpt lat="42.256165" lon="3.238608"><ele>173.6</ele><time>2011-04-01T11:12:33Z</time></trkpt>
<trkpt lat="42.256012" lon="3.238945"><ele>172.6</ele><time>2011-04-01T11:12:38Z</time></trkpt>
<trkpt lat="42.255840" lon="3.239262"><ele>171.6</ele><time>2011-04-01T11:12:43Z</time></trkpt>
<trkpt lat="42.255645" lon="3.239607"><ele>169.7</ele><time>2011-04-01T11:12:48Z</time></trkpt>
<trkpt lat="42.255413" lon="3.239973"><ele>164.4</ele><time>2011-04-01T11:12:53Z</time></trkpt>
<trkpt lat="42.255337" lon="3.240560"><ele>160.2</ele><time>2011-04-01T11:12:58Z</time></trkpt>
<trkpt lat="42.255357" lon="3.241115"><ele>160</ele><time>2011-04-01T11:13:03Z</time></trkpt>
<trkpt lat="42.255405" lon="3.241525"><ele>159.8</ele><time>2011-04-01T11:13:08Z</time></trkpt>
<trkpt lat="42.255538" lon="3.241970"><ele>156.5</ele><time>2011-04-01T11:13:13Z</time></trkpt>
<trkpt lat="42.255748" lon="3.242487"><ele>153.1</ele><time>2011-04-01T11:13:18Z</time></trkpt>
<trkpt lat="42.255822" lon="3.242993"><ele>147.2</ele><time>2011-04-01T11:13:23Z</time></trkpt>
<trkpt lat="42.255677" lon="3.243492"><ele>139.7</ele><time>2011-04-01T11:13:28Z</time></trkpt>
<trkpt lat="42.255677" lon="3.244062"><ele>131.8</ele><time>2011-04-01T11:13:33Z</time></trkpt>
<trkpt lat="42.255538" lon="3.244478"><ele>127.4</ele><time>2011-04-01T11:13:38Z</time></trkpt>
<trkpt lat="42.255168" lon="3.244803"><ele>122.8</ele><time>2011-04-01T11:13:43Z</time></trkpt>
<trkpt lat="42.254833" lon="3.245198"><ele>119.4</ele><time>2011-04-01T11:13:48Z</time></trkpt>
<trkpt lat="42.254597" lon="3.245685"><ele>117.1</ele><time>2011-04-01T11:13:53Z</time></trkpt>
<trkpt lat="42.254433" lon="3.246195"><ele>115.5</ele><time>2011-04-01T11:13:58Z</time></trkpt>
<trkpt lat="42.254310" lon="3.246657"><ele>114.3</ele><time>2011-04-01T11:14:03Z</time></trkpt>
<trkpt lat="42.254303" lon="3.247188"><ele>111.7</ele><time>2011-04-01T11:14:08Z</time></trkpt>
<trkpt lat="42.254138" lon="3.247672"><ele>110</ele><time>2011-04-01T11:14:13Z</time></trkpt>
<trkpt lat="42.253998" lon="3.248133"><ele>108.6</ele><time>2011-04-01T11:14:18Z</time></trkpt>
<trkpt lat="42.254013" lon="3.248667"><ele>103.8</ele><time>2011-04-01T11:14:23Z</time></trkpt>
<trkpt lat="42.253940" lon="3.248950"><ele>100.9</ele><time>2011-04-01T11:14:28Z</time></trkpt>
<trkpt lat="42.253827" lon="3.248907"><ele>99</ele><time>2011-04-01T11:14:33Z</time></trkpt>
<trkpt lat="42.253727" lon="3.248883"><ele>97.7</ele><time>2011-04-01T11:14:38Z</time></trkpt>
<trkpt lat="42.253662" lon="3.248985"><ele>98.2</ele><time>2011-04-01T11:14:43Z</time></trkpt>
<trkpt lat="42.253650" lon="3.249092"><ele>99.3</ele><time>2011-04-01T11:14:48Z</time></trkpt>
<trkpt lat="42.253685" lon="3.249230"><ele>100.1</ele><time>2011-04-01T11:14:53Z</time></trkpt>
<trkpt lat="42.253720" lon="3.249265"><ele>100.1</ele><time>2011-04-01T11:14:58Z</time></trkpt>
<trkpt lat="42.253720" lon="3.249265"><ele>100.1</ele><time>2011-04-01T11:15:03Z</time></trkpt>
<trkpt lat="42.253720" lon="3.249262"><ele>100.1</ele><time>2011-04-01T11:15:08Z</time></trkpt>
<trkpt lat="42.253720" lon="3.249258"><ele>100.2</ele><time>2011-04-01T11:15:13Z</time></trkpt>
<trkpt lat="42.253720" lon="3.249255"><ele>100.1</ele><time>2011-04-01T11:15:18Z</time></trkpt>
<trkpt lat="42.253723" lon="3.249253"><ele>100.1</ele><time>2011-04-01T11:15:23Z</time></trkpt>
<trkpt lat="42.253723" lon="3.249252"><ele>100</ele><time>2011-04-01T11:15:28Z</time></trkpt>
<trkpt lat="42.253723" lon="3.249248"><ele>100</ele><time>2011-04-01T11:15:33Z</time></trkpt>
<trkpt lat="42.253723" lon="3.249247"><ele>99.9</ele><time>2011-04-01T11:15:38Z</time></trkpt>
<trkpt lat="42.253723" lon="3.249247"><ele>99.9</ele><time>2011-04-01T11:15:43Z</time></trkpt>
<trkpt lat="42.253723" lon="3.249245"><ele>99.9</ele><time>2011-04-01T11:15:48Z</time></trkpt>
<trkpt lat="42.253723" lon="3.249243"><ele>100</ele><time>2011-04-01T11:15:53Z</time></trkpt>
<trkpt lat="42.253750" lon="3.249203"><ele>100.2</ele><time>2011-04-01T11:15:58Z</time></trkpt>
<trkpt lat="42.253738" lon="3.249028"><ele>99.8</ele><time>2011-04-01T11:16:03Z</time></trkpt>
<trkpt lat="42.253747" lon="3.248882"><ele>98.4</ele><time>2011-04-01T11:16:08Z</time></trkpt>
<trkpt lat="42.253842" lon="3.248985"><ele>99</ele><time>2011-04-01T11:16:13Z</time></trkpt>
<trkpt lat="42.253948" lon="3.249152"><ele>99.5</ele><time>2011-04-01T11:16:18Z</time></trkpt>
<trkpt lat="42.254078" lon="3.249347"><ele>98.7</ele><time>2011-04-01T11:16:23Z</time></trkpt>
<trkpt lat="42.254322" lon="3.249512"><ele>96.4</ele><time>2011-04-01T11:16:28Z</time></trkpt>
<trkpt lat="42.254647" lon="3.249478"><ele>94.8</ele><time>2011-04-01T11:16:33Z</time></trkpt>
<trkpt lat="42.255013" lon="3.249333"><ele>92.1</ele><time>2011-04-01T11:16:38Z</time></trkpt>
<trkpt lat="42.255337" lon="3.249063"><ele>89.2</ele><time>2011-04-01T11:16:43Z</time></trkpt>
<trkpt lat="42.255668" lon="3.248752"><ele>85.9</ele><time>2011-04-01T11:16:48Z</time></trkpt>
<trkpt lat="42.256038" lon="3.248565"><ele>83.3</ele><time>2011-04-01T11:16:53Z</time></trkpt>
<trkpt lat="42.256337" lon="3.248583"><ele>81.1</ele><time>2011-04-01T11:16:58Z</time></trkpt>
<trkpt lat="42.256497" lon="3.248957"><ele>78.4</ele><time>2011-04-01T11:17:03Z</time></trkpt>
<trkpt lat="42.256733" lon="3.249257"><ele>75.8</ele><time>2011-04-01T11:17:08Z</time></trkpt>
<trkpt lat="42.257057" lon="3.249190"><ele>73.8</ele><time>2011-04-01T11:17:13Z</time></trkpt>
<trkpt lat="42.257340" lon="3.248818"><ele>71.2</ele><time>2011-04-01T11:17:18Z</time></trkpt>
<trkpt lat="42.257633" lon="3.248447"><ele>69.3</ele><time>2011-04-01T11:17:23Z</time></trkpt>
<trkpt lat="42.257873" lon="3.248135"><ele>69.1</ele><time>2011-04-01T11:17:28Z</time></trkpt>
<trkpt lat="42.258092" lon="3.247875"><ele>67.7</ele><time>2011-04-01T11:17:33Z</time></trkpt>
<trkpt lat="42.258408" lon="3.247713"><ele>65.2</ele><time>2011-04-01T11:17:38Z</time></trkpt>
<trkpt lat="42.258788" lon="3.247670"><ele>62</ele><time>2011-04-01T11:17:43Z</time></trkpt>
<trkpt lat="42.259140" lon="3.247527"><ele>59.3</ele><time>2011-04-01T11:17:48Z</time></trkpt>
<trkpt lat="42.259220" lon="3.247092"><ele>56.6</ele><time>2011-04-01T11:17:53Z</time></trkpt>
<trkpt lat="42.259163" lon="3.246540"><ele>53.5</ele><time>2011-04-01T11:17:58Z</time></trkpt>
<trkpt lat="42.259052" lon="3.245990"><ele>50.8</ele><time>2011-04-01T11:18:03Z</time></trkpt>
<trkpt lat="42.258892" lon="3.245597"><ele>48.3</ele><time>2011-04-01T11:18:08Z</time></trkpt>
<trkpt lat="42.259105" lon="3.245443"><ele>46.7</ele><time>2011-04-01T11:18:13Z</time></trkpt>
<trkpt lat="42.259388" lon="3.245572"><ele>45.7</ele><time>2011-04-01T11:18:18Z</time></trkpt>
<trkpt lat="42.259673" lon="3.245482"><ele>44.8</ele><time>2011-04-01T11:18:23Z</time></trkpt>
<trkpt lat="42.259910" lon="3.245188"><ele>43.6</ele><time>2011-04-01T11:18:28Z</time></trkpt>
<trkpt lat="42.260093" lon="3.244860"><ele>42.7</ele><time>2011-04-01T11:18:33Z</time></trkpt>
<trkpt lat="42.260292" lon="3.244733"><ele>41</ele><time>2011-04-01T11:18:38Z</time></trkpt>
<trkpt lat="42.260277" lon="3.245010"><ele>39.4</ele><time>2011-04-01T11:18:43Z</time></trkpt>
<trkpt lat="42.260090" lon="3.245315"><ele>37.2</ele><time>2011-04-01T11:18:48Z</time></trkpt>
<trkpt lat="42.259845" lon="3.245580"><ele>35.4</ele><time>2011-04-01T11:18:53Z</time></trkpt>
<trkpt lat="42.259765" lon="3.245963"><ele>33.8</ele><time>2011-04-01T11:18:58Z</time></trkpt>
<trkpt lat="42.259865" lon="3.246297"><ele>34.1</ele><time>2011-04-01T11:19:03Z</time></trkpt>
<trkpt lat="42.259933" lon="3.246483"><ele>35.3</ele><time>2011-04-01T11:19:08Z</time></trkpt>
<trkpt lat="42.260028" lon="3.246617"><ele>36.7</ele><time>2011-04-01T11:19:13Z</time></trkpt>
<trkpt lat="42.260158" lon="3.246685"><ele>37.9</ele><time>2011-04-01T11:19:18Z</time></trkpt>
<trkpt lat="42.260273" lon="3.246680"><ele>38.8</ele><time>2011-04-01T11:19:23Z</time></trkpt>
<trkpt lat="42.260265" lon="3.246675"><ele>39.1</ele><time>2011-04-01T11:19:28Z</time></trkpt>
<trkpt lat="42.260288" lon="3.246682"><ele>39.2</ele><time>2011-04-01T11:19:33Z</time></trkpt>
<trkpt lat="42.260297" lon="3.246682"><ele>39.3</ele><time>2011-04-01T11:19:38Z</time></trkpt>
<trkpt lat="42.260327" lon="3.246705"><ele>39.8</ele><time>2011-04-01T11:19:43Z</time></trkpt>
<trkpt lat="42.260333" lon="3.246713"><ele>39.9</ele><time>2011-04-01T11:19:48Z</time></trkpt>
<trkpt lat="42.260338" lon="3.246710"><ele>39.7</ele><time>2011-04-01T11:19:53Z</time></trkpt>
<trkpt lat="42.260342" lon="3.246717"><ele>39.5</ele><time>2011-04-01T11:19:58Z</time></trkpt>
<trkpt lat="42.260445" lon="3.246775"><ele>39.8</ele><time>2011-04-01T11:20:03Z</time></trkpt>
<trkpt lat="42.260552" lon="3.246825"><ele>40.6</ele><time>2011-04-01T11:20:08Z</time></trkpt>
<trkpt lat="42.260655" lon="3.246867"><ele>41.5</ele><time>2011-04-01T11:20:13Z</time></trkpt>
<trkpt lat="42.260750" lon="3.246915"><ele>42.5</ele><time>2011-04-01T11:20:18Z</time></trkpt>
<trkpt lat="42.260842" lon="3.246992"><ele>43.3</ele><time>2011-04-01T11:20:23Z</time></trkpt>
<trkpt lat="42.260907" lon="3.247108"><ele>44.1</ele><time>2011-04-01T11:20:28Z</time></trkpt>
<trkpt lat="42.260940" lon="3.247245"><ele>44.7</ele><time>2011-04-01T11:20:33Z</time></trkpt>
<trkpt lat="42.260963" lon="3.247390"><ele>45.4</ele><time>2011-04-01T11:20:38Z</time></trkpt>
<trkpt lat="42.261002" lon="3.247522"><ele>46</ele><time>2011-04-01T11:20:43Z</time></trkpt>
<trkpt lat="42.261055" lon="3.247650"><ele>46.8</ele><time>2011-04-01T11:20:48Z</time></trkpt>
<trkpt lat="42.261120" lon="3.247773"><ele>47.7</ele><time>2011-04-01T11:20:53Z</time></trkpt>
<trkpt lat="42.261173" lon="3.247897"><ele>48.6</ele><time>2011-04-01T11:20:58Z</time></trkpt>
<trkpt lat="42.261245" lon="3.248002"><ele>49.6</ele><time>2011-04-01T11:21:03Z</time></trkpt>
<trkpt lat="42.261268" lon="3.248137"><ele>50.4</ele><time>2011-04-01T11:21:08Z</time></trkpt>
<trkpt lat="42.261230" lon="3.248265"><ele>50.8</ele><time>2011-04-01T11:21:13Z</time></trkpt>
<trkpt lat="42.261155" lon="3.248322"><ele>51.1</ele><time>2011-04-01T11:21:18Z</time></trkpt>
<trkpt lat="42.261070" lon="3.248368"><ele>51.7</ele><time>2011-04-01T11:21:23Z</time></trkpt>
<trkpt lat="42.260993" lon="3.248423"><ele>52.1</ele><time>2011-04-01T11:21:28Z</time></trkpt>
<trkpt lat="42.260907" lon="3.248492"><ele>52.4</ele><time>2011-04-01T11:21:33Z</time></trkpt>
<trkpt lat="42.260827" lon="3.248577"><ele>53.2</ele><time>2011-04-01T11:21:38Z</time></trkpt>
<trkpt lat="42.260747" lon="3.248675"><ele>53.6</ele><time>2011-04-01T11:21:43Z</time></trkpt>
<trkpt lat="42.260655" lon="3.248773"><ele>54.3</ele><time>2011-04-01T11:21:48Z</time></trkpt>
<trkpt lat="42.260570" lon="3.248848"><ele>55</ele><time>2011-04-01T11:21:53Z</time></trkpt>
<trkpt lat="42.260478" lon="3.248903"><ele>55.8</ele><time>2011-04-01T11:21:58Z</time></trkpt>
<trkpt lat="42.260387" lon="3.248957"><ele>56.6</ele><time>2011-04-01T11:22:03Z</time></trkpt>
<trkpt lat="42.260297" lon="3.249017"><ele>57.5</ele><time>2011-04-01T11:22:08Z</time></trkpt>
<trkpt lat="42.260215" lon="3.249093"><ele>58.7</ele><time>2011-04-01T11:22:13Z</time></trkpt>
<trkpt lat="42.260132" lon="3.249178"><ele>59.4</ele><time>2011-04-01T11:22:18Z</time></trkpt>
<trkpt lat="42.260090" lon="3.249280"><ele>60.6</ele><time>2011-04-01T11:22:23Z</time></trkpt>
<trkpt lat="42.260135" lon="3.249368"><ele>61.6</ele><time>2011-04-01T11:22:28Z</time></trkpt>
<trkpt lat="42.260215" lon="3.249312"><ele>62.5</ele><time>2011-04-01T11:22:33Z</time></trkpt>
<trkpt lat="42.260288" lon="3.249225"><ele>63.3</ele><time>2011-04-01T11:22:38Z</time></trkpt>
<trkpt lat="42.260368" lon="3.249162"><ele>64.2</ele><time>2011-04-01T11:22:43Z</time></trkpt>
<trkpt lat="42.260457" lon="3.249127"><ele>64.9</ele><time>2011-04-01T11:22:48Z</time></trkpt>
<trkpt lat="42.260555" lon="3.249110"><ele>65.5</ele><time>2011-04-01T11:22:53Z</time></trkpt>
<trkpt lat="42.260643" lon="3.249082"><ele>66.2</ele><time>2011-04-01T11:22:58Z</time></trkpt>
<trkpt lat="42.260720" lon="3.249030"><ele>67</ele><time>2011-04-01T11:23:03Z</time></trkpt>
<trkpt lat="42.260803" lon="3.248967"><ele>68</ele><time>2011-04-01T11:23:08Z</time></trkpt>
<trkpt lat="42.260880" lon="3.248890"><ele>68.9</ele><time>2011-04-01T11:23:13Z</time></trkpt>
<trkpt lat="42.260955" lon="3.248822"><ele>69.9</ele><time>2011-04-01T11:23:18Z</time></trkpt>
<trkpt lat="42.261040" lon="3.248763"><ele>71</ele><time>2011-04-01T11:23:23Z</time></trkpt>
<trkpt lat="42.261127" lon="3.248728"><ele>71.9</ele><time>2011-04-01T11:23:28Z</time></trkpt>
<trkpt lat="42.261223" lon="3.248712"><ele>72.9</ele><time>2011-04-01T11:23:33Z</time></trkpt>
<trkpt lat="42.261322" lon="3.248688"><ele>73.5</ele><time>2011-04-01T11:23:38Z</time></trkpt>
<trkpt lat="42.261413" lon="3.248647"><ele>74.2</ele><time>2011-04-01T11:23:43Z</time></trkpt>
<trkpt lat="42.261508" lon="3.248607"><ele>75</ele><time>2011-04-01T11:23:48Z</time></trkpt>
<trkpt lat="42.261615" lon="3.248590"><ele>75.6</ele><time>2011-04-01T11:23:53Z</time></trkpt>
<trkpt lat="42.261723" lon="3.248590"><ele>76.2</ele><time>2011-04-01T11:23:58Z</time></trkpt>
<trkpt lat="42.261822" lon="3.248555"><ele>76.8</ele><time>2011-04-01T11:24:03Z</time></trkpt>
<trkpt lat="42.261910" lon="3.248478"><ele>77.5</ele><time>2011-04-01T11:24:08Z</time></trkpt>
<trkpt lat="42.261952" lon="3.248357"><ele>78.1</ele><time>2011-04-01T11:24:13Z</time></trkpt>
<trkpt lat="42.261928" lon="3.248217"><ele>78.5</ele><time>2011-04-01T11:24:18Z</time></trkpt>
<trkpt lat="42.261883" lon="3.248093"><ele>79.2</ele><time>2011-04-01T11:24:23Z</time></trkpt>
<trkpt lat="42.261822" lon="3.247982"><ele>80</ele><time>2011-04-01T11:24:28Z</time></trkpt>
<trkpt lat="42.261772" lon="3.247858"><ele>80.7</ele><time>2011-04-01T11:24:33Z</time></trkpt>
<trkpt lat="42.261723" lon="3.247745"><ele>81.7</ele><time>2011-04-01T11:24:38Z</time></trkpt>
<trkpt lat="42.261688" lon="3.247623"><ele>82.7</ele><time>2011-04-01T11:24:43Z</time></trkpt>
<trkpt lat="42.261677" lon="3.247493"><ele>83.7</ele><time>2011-04-01T11:24:48Z</time></trkpt>
<trkpt lat="42.261673" lon="3.247355"><ele>84.5</ele><time>2011-04-01T11:24:53Z</time></trkpt>
<trkpt lat="42.261685" lon="3.247225"><ele>85.6</ele><time>2011-04-01T11:24:58Z</time></trkpt>
<trkpt lat="42.261688" lon="3.247100"><ele>86.6</ele><time>2011-04-01T11:25:03Z</time></trkpt>
<trkpt lat="42.261680" lon="3.246973"><ele>87.5</ele><time>2011-04-01T11:25:08Z</time></trkpt>
<trkpt lat="42.261665" lon="3.246847"><ele>88.4</ele><time>2011-04-01T11:25:13Z</time></trkpt>
<trkpt lat="42.261658" lon="3.246713"><ele>89.2</ele><time>2011-04-01T11:25:18Z</time></trkpt>
<trkpt lat="42.261680" lon="3.246587"><ele>90.1</ele><time>2011-04-01T11:25:23Z</time></trkpt>
<trkpt lat="42.261703" lon="3.246457"><ele>90.9</ele><time>2011-04-01T11:25:28Z</time></trkpt>
<trkpt lat="42.261688" lon="3.246328"><ele>91.6</ele><time>2011-04-01T11:25:33Z</time></trkpt>
<trkpt lat="42.261623" lon="3.246233"><ele>92.3</ele><time>2011-04-01T11:25:38Z</time></trkpt>
<trkpt lat="42.261535" lon="3.246167"><ele>93</ele><time>2011-04-01T11:25:43Z</time></trkpt>
<trkpt lat="42.261455" lon="3.246098"><ele>93.9</ele><time>2011-04-01T11:25:48Z</time></trkpt>
<trkpt lat="42.261380" lon="3.246032"><ele>94.7</ele><time>2011-04-01T11:25:53Z</time></trkpt>
<trkpt lat="42.261310" lon="3.245945"><ele>95.4</ele><time>2011-04-01T11:25:58Z</time></trkpt>
<trkpt lat="42.261257" lon="3.245842"><ele>96.3</ele><time>2011-04-01T11:26:03Z</time></trkpt>
<trkpt lat="42.261238" lon="3.245720"><ele>97.1</ele><time>2011-04-01T11:26:08Z</time></trkpt>
<trkpt lat="42.261245" lon="3.245593"><ele>98</ele><time>2011-04-01T11:26:13Z</time></trkpt>
<trkpt lat="42.261272" lon="3.245470"><ele>98.8</ele><time>2011-04-01T11:26:18Z</time></trkpt>
<trkpt lat="42.261318" lon="3.245358"><ele>99.8</ele><time>2011-04-01T11:26:23Z</time></trkpt>
<trkpt lat="42.261363" lon="3.245252"><ele>101</ele><time>2011-04-01T11:26:28Z</time></trkpt>
<trkpt lat="42.261410" lon="3.245147"><ele>101.9</ele><time>2011-04-01T11:26:33Z</time></trkpt>
<trkpt lat="42.261433" lon="3.245017"><ele>102.8</ele><time>2011-04-01T11:26:38Z</time></trkpt>
<trkpt lat="42.261478" lon="3.244913"><ele>104</ele><time>2011-04-01T11:26:43Z</time></trkpt>
<trkpt lat="42.261520" lon="3.244805"><ele>105</ele><time>2011-04-01T11:26:48Z</time></trkpt>
<trkpt lat="42.261562" lon="3.244695"><ele>105.9</ele><time>2011-04-01T11:26:53Z</time></trkpt>
<trkpt lat="42.261608" lon="3.244585"><ele>106.8</ele><time>2011-04-01T11:26:58Z</time></trkpt>
<trkpt lat="42.261650" lon="3.244473"><ele>107.6</ele><time>2011-04-01T11:27:03Z</time></trkpt>
<trkpt lat="42.261692" lon="3.244363"><ele>108.5</ele><time>2011-04-01T11:27:08Z</time></trkpt>
<trkpt lat="42.261745" lon="3.244257"><ele>109.4</ele><time>2011-04-01T11:27:13Z</time></trkpt>
<trkpt lat="42.261810" lon="3.244173"><ele>110.2</ele><time>2011-04-01T11:27:18Z</time></trkpt>
<trkpt lat="42.261887" lon="3.244117"><ele>111.2</ele><time>2011-04-01T11:27:23Z</time></trkpt>
<trkpt lat="42.261978" lon="3.244093"><ele>112.2</ele><time>2011-04-01T11:27:28Z</time></trkpt>
<trkpt lat="42.262067" lon="3.244075"><ele>113.6</ele><time>2011-04-01T11:27:33Z</time></trkpt>
<trkpt lat="42.262157" lon="3.244015"><ele>114.5</ele><time>2011-04-01T11:27:38Z</time></trkpt>
<trkpt lat="42.262242" lon="3.243960"><ele>115.5</ele><time>2011-04-01T11:27:43Z</time></trkpt>
<trkpt lat="42.262313" lon="3.243892"><ele>116.5</ele><time>2011-04-01T11:27:48Z</time></trkpt>
<trkpt lat="42.262390" lon="3.243825"><ele>117.5</ele><time>2011-04-01T11:27:53Z</time></trkpt>
<trkpt lat="42.262473" lon="3.243770"><ele>118.4</ele><time>2011-04-01T11:27:58Z</time></trkpt>
<trkpt lat="42.262565" lon="3.243735"><ele>119.2</ele><time>2011-04-01T11:28:03Z</time></trkpt>
<trkpt lat="42.262650" lon="3.243748"><ele>120</ele><time>2011-04-01T11:28:08Z</time></trkpt>
<trkpt lat="42.262665" lon="3.243863"><ele>121</ele><time>2011-04-01T11:28:13Z</time></trkpt>
<trkpt lat="42.262588" lon="3.243933"><ele>121.8</ele><time>2011-04-01T11:28:18Z</time></trkpt>
<trkpt lat="42.262505" lon="3.243985"><ele>122.7</ele><time>2011-04-01T11:28:23Z</time></trkpt>
<trkpt lat="42.262425" lon="3.244062"><ele>123.8</ele><time>2011-04-01T11:28:28Z</time></trkpt>
<trkpt lat="42.262363" lon="3.244160"><ele>124.6</ele><time>2011-04-01T11:28:33Z</time></trkpt>
<trkpt lat="42.262318" lon="3.244277"><ele>125.3</ele><time>2011-04-01T11:28:38Z</time></trkpt>
<trkpt lat="42.262242" lon="3.244380"><ele>126</ele><time>2011-04-01T11:28:43Z</time></trkpt>
<trkpt lat="42.262168" lon="3.244458"><ele>126.9</ele><time>2011-04-01T11:28:48Z</time></trkpt>
<trkpt lat="42.262100" lon="3.244547"><ele>127.8</ele><time>2011-04-01T11:28:53Z</time></trkpt>
<trkpt lat="42.262043" lon="3.244650"><ele>128.5</ele><time>2011-04-01T11:28:58Z</time></trkpt>
<trkpt lat="42.262005" lon="3.244772"><ele>129.2</ele><time>2011-04-01T11:29:03Z</time></trkpt>
<trkpt lat="42.261990" lon="3.244902"><ele>129.8</ele><time>2011-04-01T11:29:08Z</time></trkpt>
<trkpt lat="42.262005" lon="3.245033"><ele>130.6</ele><time>2011-04-01T11:29:13Z</time></trkpt>
<trkpt lat="42.262043" lon="3.245155"><ele>131.3</ele><time>2011-04-01T11:29:18Z</time></trkpt>
<trkpt lat="42.262097" lon="3.245265"><ele>132.1</ele><time>2011-04-01T11:29:23Z</time></trkpt>
<trkpt lat="42.262162" lon="3.245363"><ele>133</ele><time>2011-04-01T11:29:28Z</time></trkpt>
<trkpt lat="42.262245" lon="3.245438"><ele>133.7</ele><time>2011-04-01T11:29:33Z</time></trkpt>
<trkpt lat="42.262333" lon="3.245500"><ele>134.5</ele><time>2011-04-01T11:29:38Z</time></trkpt>
<trkpt lat="42.262420" lon="3.245548"><ele>135.5</ele><time>2011-04-01T11:29:43Z</time></trkpt>
<trkpt lat="42.262512" lon="3.245590"><ele>136.4</ele><time>2011-04-01T11:29:48Z</time></trkpt>
<trkpt lat="42.262603" lon="3.245637"><ele>137.2</ele><time>2011-04-01T11:29:53Z</time></trkpt>
<trkpt lat="42.262695" lon="3.245687"><ele>137.9</ele><time>2011-04-01T11:29:58Z</time></trkpt>
<trkpt lat="42.262780" lon="3.245753"><ele>138.8</ele><time>2011-04-01T11:30:03Z</time></trkpt>
<trkpt lat="42.262852" lon="3.245837"><ele>139.7</ele><time>2011-04-01T11:30:08Z</time></trkpt>
<trkpt lat="42.262902" lon="3.245945"><ele>140.5</ele><time>2011-04-01T11:30:13Z</time></trkpt>
<trkpt lat="42.262943" lon="3.246067"><ele>141.5</ele><time>2011-04-01T11:30:18Z</time></trkpt>
<trkpt lat="42.262970" lon="3.246192"><ele>142.5</ele><time>2011-04-01T11:30:23Z</time></trkpt>
<trkpt lat="42.262970" lon="3.246333"><ele>143.1</ele><time>2011-04-01T11:30:28Z</time></trkpt>
<trkpt lat="42.262947" lon="3.246462"><ele>144</ele><time>2011-04-01T11:30:33Z</time></trkpt>
<trkpt lat="42.262925" lon="3.246588"><ele>144.8</ele><time>2011-04-01T11:30:38Z</time></trkpt>
<trkpt lat="42.262908" lon="3.246722"><ele>145.3</ele><time>2011-04-01T11:30:43Z</time></trkpt>
<trkpt lat="42.262925" lon="3.246855"><ele>145.9</ele><time>2011-04-01T11:30:48Z</time></trkpt>
<trkpt lat="42.262967" lon="3.246970"><ele>146.7</ele><time>2011-04-01T11:30:53Z</time></trkpt>
<trkpt lat="42.263050" lon="3.247047"><ele>147.4</ele><time>2011-04-01T11:30:58Z</time></trkpt>
<trkpt lat="42.263133" lon="3.247100"><ele>148.2</ele><time>2011-04-01T11:31:03Z</time></trkpt>
<trkpt lat="42.263225" lon="3.247147"><ele>149.1</ele><time>2011-04-01T11:31:08Z</time></trkpt>
<trkpt lat="42.263310" lon="3.247207"><ele>150</ele><time>2011-04-01T11:31:13Z</time></trkpt>
<trkpt lat="42.263393" lon="3.247285"><ele>150.5</ele><time>2011-04-01T11:31:18Z</time></trkpt>
<trkpt lat="42.263485" lon="3.247338"><ele>151.5</ele><time>2011-04-01T11:31:23Z</time></trkpt>
<trkpt lat="42.263580" lon="3.247380"><ele>152.1</ele><time>2011-04-01T11:31:28Z</time></trkpt>
<trkpt lat="42.263675" lon="3.247410"><ele>152.8</ele><time>2011-04-01T11:31:33Z</time></trkpt>
<trkpt lat="42.263767" lon="3.247435"><ele>153.5</ele><time>2011-04-01T11:31:38Z</time></trkpt>
<trkpt lat="42.263867" lon="3.247453"><ele>154.2</ele><time>2011-04-01T11:31:43Z</time></trkpt>
<trkpt lat="42.263962" lon="3.247467"><ele>154.7</ele><time>2011-04-01T11:31:48Z</time></trkpt>
<trkpt lat="42.264062" lon="3.247488"><ele>155</ele><time>2011-04-01T11:31:53Z</time></trkpt>
<trkpt lat="42.264142" lon="3.247553"><ele>155.8</ele><time>2011-04-01T11:31:58Z</time></trkpt>
<trkpt lat="42.264163" lon="3.247675"><ele>156.7</ele><time>2011-04-01T11:32:03Z</time></trkpt>
<trkpt lat="42.264145" lon="3.247808"><ele>157.5</ele><time>2011-04-01T11:32:08Z</time></trkpt>
<trkpt lat="42.264118" lon="3.247938"><ele>158.4</ele><time>2011-04-01T11:32:13Z</time></trkpt>
<trkpt lat="42.264103" lon="3.248068"><ele>159.5</ele><time>2011-04-01T11:32:18Z</time></trkpt>
<trkpt lat="42.264103" lon="3.248195"><ele>160.7</ele><time>2011-04-01T11:32:23Z</time></trkpt>
<trkpt lat="42.264142" lon="3.248320"><ele>161.1</ele><time>2011-04-01T11:32:28Z</time></trkpt>
<trkpt lat="42.264207" lon="3.248413"><ele>162</ele><time>2011-04-01T11:32:33Z</time></trkpt>
<trkpt lat="42.264287" lon="3.248485"><ele>162.8</ele><time>2011-04-01T11:32:38Z</time></trkpt>
<trkpt lat="42.264362" lon="3.248555"><ele>163.6</ele><time>2011-04-01T11:32:43Z</time></trkpt>
<trkpt lat="42.264442" lon="3.248627"><ele>164.5</ele><time>2011-04-01T11:32:48Z</time></trkpt>
<trkpt lat="42.264515" lon="3.248707"><ele>165.4</ele><time>2011-04-01T11:32:53Z</time></trkpt>
<trkpt lat="42.264583" lon="3.248795"><ele>166.2</ele><time>2011-04-01T11:32:58Z</time></trkpt>
<trkpt lat="42.264652" lon="3.248887"><ele>166.9</ele><time>2011-04-01T11:33:03Z</time></trkpt>
<trkpt lat="42.264722" lon="3.248975"><ele>167.6</ele><time>2011-04-01T11:33:08Z</time></trkpt>
<trkpt lat="42.264785" lon="3.249065"><ele>168.4</ele><time>2011-04-01T11:33:13Z</time></trkpt>
<trkpt lat="42.264855" lon="3.249157"><ele>169.1</ele><time>2011-04-01T11:33:18Z</time></trkpt>
<trkpt lat="42.264923" lon="3.249247"><ele>169.9</ele><time>2011-04-01T11:33:23Z</time></trkpt>
<trkpt lat="42.265000" lon="3.249333"><ele>170.8</ele><time>2011-04-01T11:33:28Z</time></trkpt>
<trkpt lat="42.265080" lon="3.249410"><ele>171.6</ele><time>2011-04-01T11:33:33Z</time></trkpt>
<trkpt lat="42.265167" lon="3.249480"><ele>172.3</ele><time>2011-04-01T11:33:38Z</time></trkpt>
<trkpt lat="42.265263" lon="3.249528"><ele>173</ele><time>2011-04-01T11:33:43Z</time></trkpt>
<trkpt lat="42.265362" lon="3.249537"><ele>173.6</ele><time>2011-04-01T11:33:48Z</time></trkpt>
<trkpt lat="42.265462" lon="3.249518"><ele>174.2</ele><time>2011-04-01T11:33:53Z</time></trkpt>
<trkpt lat="42.265560" lon="3.249477"><ele>175</ele><time>2011-04-01T11:33:58Z</time></trkpt>
<trkpt lat="42.265663" lon="3.249418"><ele>175.3</ele><time>2011-04-01T11:34:03Z</time></trkpt>
<trkpt lat="42.265767" lon="3.249382"><ele>175.9</ele><time>2011-04-01T11:34:08Z</time></trkpt>
<trkpt lat="42.265868" lon="3.249352"><ele>176.5</ele><time>2011-04-01T11:34:13Z</time></trkpt>
<trkpt lat="42.265977" lon="3.249320"><ele>177.1</ele><time>2011-04-01T11:34:18Z</time></trkpt>
<trkpt lat="42.266083" lon="3.249292"><ele>177.7</ele><time>2011-04-01T11:34:23Z</time></trkpt>
<trkpt lat="42.266190" lon="3.249268"><ele>178.3</ele><time>2011-04-01T11:34:28Z</time></trkpt>
<trkpt lat="42.266288" lon="3.249242"><ele>178.8</ele><time>2011-04-01T11:34:33Z</time></trkpt>
<trkpt lat="42.266392" lon="3.249223"><ele>179.6</ele><time>2011-04-01T11:34:38Z</time></trkpt>
<trkpt lat="42.266498" lon="3.249220"><ele>180.3</ele><time>2011-04-01T11:34:43Z</time></trkpt>
<trkpt lat="42.266602" lon="3.249237"><ele>181</ele><time>2011-04-01T11:34:48Z</time></trkpt>
<trkpt lat="42.266708" lon="3.249242"><ele>182.1</ele><time>2011-04-01T11:34:53Z</time></trkpt>
<trkpt lat="42.266812" lon="3.249217"><ele>182.9</ele><time>2011-04-01T11:34:58Z</time></trkpt>
<trkpt lat="42.266933" lon="3.249173"><ele>183.3</ele><time>2011-04-01T11:35:03Z</time></trkpt>
<trkpt lat="42.267037" lon="3.249133"><ele>184</ele><time>2011-04-01T11:35:08Z</time></trkpt>
<trkpt lat="42.267152" lon="3.249093"><ele>184.6</ele><time>2011-04-01T11:35:13Z</time></trkpt>
<trkpt lat="42.267253" lon="3.249070"><ele>185.5</ele><time>2011-04-01T11:35:18Z</time></trkpt>
<trkpt lat="42.267360" lon="3.249042"><ele>186.6</ele><time>2011-04-01T11:35:23Z</time></trkpt>
<trkpt lat="42.267475" lon="3.249022"><ele>187.6</ele><time>2011-04-01T11:35:28Z</time></trkpt>
<trkpt lat="42.267578" lon="3.249073"><ele>188.2</ele><time>2011-04-01T11:35:33Z</time></trkpt>
<trkpt lat="42.267582" lon="3.249207"><ele>188.6</ele><time>2011-04-01T11:35:38Z</time></trkpt>
<trkpt lat="42.267525" lon="3.249317"><ele>189.3</ele><time>2011-04-01T11:35:43Z</time></trkpt>
<trkpt lat="42.267445" lon="3.249418"><ele>190.1</ele><time>2011-04-01T11:35:48Z</time></trkpt>
<trkpt lat="42.267377" lon="3.249533"><ele>190.9</ele><time>2011-04-01T11:35:53Z</time></trkpt>
<trkpt lat="42.267312" lon="3.249655"><ele>191.4</ele><time>2011-04-01T11:35:58Z</time></trkpt>
<trkpt lat="42.267265" lon="3.249790"><ele>192</ele><time>2011-04-01T11:36:03Z</time></trkpt>
<trkpt lat="42.267227" lon="3.249927"><ele>192.8</ele><time>2011-04-01T11:36:08Z</time></trkpt>
<trkpt lat="42.267188" lon="3.250070"><ele>193.4</ele><time>2011-04-01T11:36:13Z</time></trkpt>
<trkpt lat="42.267162" lon="3.250218"><ele>194.2</ele><time>2011-04-01T11:36:18Z</time></trkpt>
<trkpt lat="42.267167" lon="3.250368"><ele>194.8</ele><time>2011-04-01T11:36:23Z</time></trkpt>
<trkpt lat="42.267215" lon="3.250507"><ele>195.5</ele><time>2011-04-01T11:36:28Z</time></trkpt>
<trkpt lat="42.267300" lon="3.250618"><ele>195.7</ele><time>2011-04-01T11:36:33Z</time></trkpt>
<trkpt lat="42.267372" lon="3.250720"><ele>196.5</ele><time>2011-04-01T11:36:38Z</time></trkpt>
<trkpt lat="42.267448" lon="3.250823"><ele>197.2</ele><time>2011-04-01T11:36:43Z</time></trkpt>
<trkpt lat="42.267525" lon="3.250935"><ele>198</ele><time>2011-04-01T11:36:48Z</time></trkpt>
<trkpt lat="42.267590" lon="3.251050"><ele>198.7</ele><time>2011-04-01T11:36:53Z</time></trkpt>
<trkpt lat="42.267655" lon="3.251180"><ele>199.7</ele><time>2011-04-01T11:36:58Z</time></trkpt>
<trkpt lat="42.267735" lon="3.251308"><ele>200.4</ele><time>2011-04-01T11:37:03Z</time></trkpt>
<trkpt lat="42.267822" lon="3.251427"><ele>201.3</ele><time>2011-04-01T11:37:08Z</time></trkpt>
<trkpt lat="42.267907" lon="3.251558"><ele>201.8</ele><time>2011-04-01T11:37:13Z</time></trkpt>
<trkpt lat="42.267948" lon="3.251707"><ele>202.5</ele><time>2011-04-01T11:37:18Z</time></trkpt>
<trkpt lat="42.267948" lon="3.251867"><ele>203.2</ele><time>2011-04-01T11:37:23Z</time></trkpt>
<trkpt lat="42.267940" lon="3.252027"><ele>204</ele><time>2011-04-01T11:37:28Z</time></trkpt>
<trkpt lat="42.267918" lon="3.252188"><ele>204.6</ele><time>2011-04-01T11:37:33Z</time></trkpt>
<trkpt lat="42.267883" lon="3.252345"><ele>205.3</ele><time>2011-04-01T11:37:38Z</time></trkpt>
<trkpt lat="42.267842" lon="3.252507"><ele>205.9</ele><time>2011-04-01T11:37:43Z</time></trkpt>
<trkpt lat="42.267800" lon="3.252662"><ele>206.7</ele><time>2011-04-01T11:37:48Z</time></trkpt>
<trkpt lat="42.267773" lon="3.252820"><ele>207.5</ele><time>2011-04-01T11:37:53Z</time></trkpt>
<trkpt lat="42.267788" lon="3.252985"><ele>208.2</ele><time>2011-04-01T11:37:58Z</time></trkpt>
<trkpt lat="42.267860" lon="3.253147"><ele>208.7</ele><time>2011-04-01T11:38:03Z</time></trkpt>
<trkpt lat="42.267948" lon="3.253270"><ele>209.3</ele><time>2011-04-01T11:38:08Z</time></trkpt>
<trkpt lat="42.268032" lon="3.253393"><ele>210</ele><time>2011-04-01T11:38:13Z</time></trkpt>
<trkpt lat="42.268105" lon="3.253525"><ele>210.6</ele><time>2011-04-01T11:38:18Z</time></trkpt>
<trkpt lat="42.268177" lon="3.253662"><ele>211.2</ele><time>2011-04-01T11:38:23Z</time></trkpt>
<trkpt lat="42.268158" lon="3.253813"><ele>211.8</ele><time>2011-04-01T11:38:28Z</time></trkpt>
<trkpt lat="42.268055" lon="3.253873"><ele>212.1</ele><time>2011-04-01T11:38:33Z</time></trkpt>
<trkpt lat="42.267925" lon="3.253880"><ele>212.5</ele><time>2011-04-01T11:38:38Z</time></trkpt>
<trkpt lat="42.267780" lon="3.253920"><ele>212.5</ele><time>2011-04-01T11:38:43Z</time></trkpt>
<trkpt lat="42.267605" lon="3.253977"><ele>212.8</ele><time>2011-04-01T11:38:48Z</time></trkpt>
<trkpt lat="42.267430" lon="3.254048"><ele>213.4</ele><time>2011-04-01T11:38:53Z</time></trkpt>
<trkpt lat="42.267285" lon="3.254190"><ele>213.8</ele><time>2011-04-01T11:38:58Z</time></trkpt>
<trkpt lat="42.267167" lon="3.254383"><ele>214.2</ele><time>2011-04-01T11:39:03Z</time></trkpt>
<trkpt lat="42.267102" lon="3.254620"><ele>214.5</ele><time>2011-04-01T11:39:08Z</time></trkpt>
<trkpt lat="42.267117" lon="3.254877"><ele>214.9</ele><time>2011-04-01T11:39:13Z</time></trkpt>
<trkpt lat="42.267060" lon="3.255090"><ele>215.4</ele><time>2011-04-01T11:39:18Z</time></trkpt>
<trkpt lat="42.266892" lon="3.255137"><ele>216.2</ele><time>2011-04-01T11:39:23Z</time></trkpt>
<trkpt lat="42.266705" lon="3.255138"><ele>216.8</ele><time>2011-04-01T11:39:28Z</time></trkpt>
<trkpt lat="42.266518" lon="3.255162"><ele>217.2</ele><time>2011-04-01T11:39:33Z</time></trkpt>
<trkpt lat="42.266338" lon="3.255245"><ele>217.4</ele><time>2011-04-01T11:39:38Z</time></trkpt>
<trkpt lat="42.266158" lon="3.255327"><ele>218.2</ele><time>2011-04-01T11:39:43Z</time></trkpt>
<trkpt lat="42.265987" lon="3.255372"><ele>218.7</ele><time>2011-04-01T11:39:48Z</time></trkpt>
<trkpt lat="42.265835" lon="3.255482"><ele>219.4</ele><time>2011-04-01T11:39:53Z</time></trkpt>
<trkpt lat="42.265725" lon="3.255695"><ele>219.5</ele><time>2011-04-01T11:39:58Z</time></trkpt>
<trkpt lat="42.265640" lon="3.255965"><ele>219.2</ele><time>2011-04-01T11:40:03Z</time></trkpt>
<trkpt lat="42.265568" lon="3.256265"><ele>218.9</ele><time>2011-04-01T11:40:08Z</time></trkpt>
<trkpt lat="42.265488" lon="3.256552"><ele>218.9</ele><time>2011-04-01T11:40:13Z</time></trkpt>
<trkpt lat="42.265418" lon="3.256783"><ele>218.6</ele><time>2011-04-01T11:40:18Z</time></trkpt>
<trkpt lat="42.265365" lon="3.257032"><ele>218.2</ele><time>2011-04-01T11:40:23Z</time></trkpt>
<trkpt lat="42.265332" lon="3.257323"><ele>217.7</ele><time>2011-04-01T11:40:28Z</time></trkpt>
<trkpt lat="42.265308" lon="3.257660"><ele>217.3</ele><time>2011-04-01T11:40:33Z</time></trkpt>
<trkpt lat="42.265305" lon="3.257992"><ele>217.1</ele><time>2011-04-01T11:40:38Z</time></trkpt>
<trkpt lat="42.265312" lon="3.258327"><ele>216.8</ele><time>2011-04-01T11:40:43Z</time></trkpt>
<trkpt lat="42.265243" lon="3.258627"><ele>216.8</ele><time>2011-04-01T11:40:48Z</time></trkpt>
<trkpt lat="42.265122" lon="3.258893"><ele>216.8</ele><time>2011-04-01T11:40:53Z</time></trkpt>
<trkpt lat="42.265000" lon="3.259165"><ele>216.9</ele><time>2011-04-01T11:40:58Z</time></trkpt>
<trkpt lat="42.264885" lon="3.259418"><ele>217.4</ele><time>2011-04-01T11:41:03Z</time></trkpt>
<trkpt lat="42.264713" lon="3.259595"><ele>217.7</ele><time>2011-04-01T11:41:08Z</time></trkpt>
<trkpt lat="42.264492" lon="3.259687"><ele>218.1</ele><time>2011-04-01T11:41:13Z</time></trkpt>
<trkpt lat="42.264297" lon="3.259817"><ele>218.5</ele><time>2011-04-01T11:41:18Z</time></trkpt>
<trkpt lat="42.264222" lon="3.259917"><ele>218.6</ele><time>2011-04-01T11:41:23Z</time></trkpt>
<trkpt lat="42.264213" lon="3.259912"><ele>218.6</ele><time>2011-04-01T11:41:28Z</time></trkpt>
<trkpt lat="42.264222" lon="3.259902"><ele>218.7</ele><time>2011-04-01T11:41:33Z</time></trkpt>
<trkpt lat="42.264225" lon="3.259910"><ele>218.7</ele><time>2011-04-01T11:41:38Z</time></trkpt>
<trkpt lat="42.264228" lon="3.259905"><ele>218.6</ele><time>2011-04-01T11:41:43Z</time></trkpt>
<trkpt lat="42.264217" lon="3.259915"><ele>218.5</ele><time>2011-04-01T11:41:48Z</time></trkpt>
<trkpt lat="42.264213" lon="3.259925"><ele>218.5</ele><time>2011-04-01T11:41:53Z</time></trkpt>
<trkpt lat="42.264195" lon="3.259935"><ele>218.6</ele><time>2011-04-01T11:41:58Z</time></trkpt>
<trkpt lat="42.264153" lon="3.259953"><ele>218.8</ele><time>2011-04-01T11:42:03Z</time></trkpt>
<trkpt lat="42.264088" lon="3.260048"><ele>219</ele><time>2011-04-01T11:42:08Z</time></trkpt>
<trkpt lat="42.264003" lon="3.260192"><ele>219.2</ele><time>2011-04-01T11:42:13Z</time></trkpt>
<trkpt lat="42.263897" lon="3.260313"><ele>219.6</ele><time>2011-04-01T11:42:18Z</time></trkpt>
<trkpt lat="42.263783" lon="3.260458"><ele>220.2</ele><time>2011-04-01T11:42:23Z</time></trkpt>
<trkpt lat="42.263702" lon="3.260642"><ele>220.7</ele><time>2011-04-01T11:42:28Z</time></trkpt>
<trkpt lat="42.263630" lon="3.260850"><ele>220.6</ele><time>2011-04-01T11:42:33Z</time></trkpt>
<trkpt lat="42.263607" lon="3.261108"><ele>219.8</ele><time>2011-04-01T11:42:38Z</time></trkpt>
<trkpt lat="42.263612" lon="3.261412"><ele>218.5</ele><time>2011-04-01T11:42:43Z</time></trkpt>
<trkpt lat="42.263615" lon="3.261748"><ele>217.5</ele><time>2011-04-01T11:42:48Z</time></trkpt>
<trkpt lat="42.263573" lon="3.262095"><ele>216.4</ele><time>2011-04-01T11:42:53Z</time></trkpt>
<trkpt lat="42.263553" lon="3.262427"><ele>215.6</ele><time>2011-04-01T11:42:58Z</time></trkpt>
<trkpt lat="42.263547" lon="3.262750"><ele>214.9</ele><time>2011-04-01T11:43:03Z</time></trkpt>
<trkpt lat="42.263488" lon="3.263023"><ele>214.3</ele><time>2011-04-01T11:43:08Z</time></trkpt>
<trkpt lat="42.263477" lon="3.263348"><ele>213</ele><time>2011-04-01T11:43:13Z</time></trkpt>
<trkpt lat="42.263488" lon="3.263682"><ele>212</ele><time>2011-04-01T11:43:18Z</time></trkpt>
<trkpt lat="42.263615" lon="3.263958"><ele>211.3</ele><time>2011-04-01T11:43:23Z</time></trkpt>
<trkpt lat="42.263847" lon="3.263988"><ele>210.7</ele><time>2011-04-01T11:43:28Z</time></trkpt>
<trkpt lat="42.264050" lon="3.264017"><ele>210.6</ele><time>2011-04-01T11:43:33Z</time></trkpt>
<trkpt lat="42.264175" lon="3.264188"><ele>210.7</ele><time>2011-04-01T11:43:38Z</time></trkpt>
<trkpt lat="42.264252" lon="3.264455"><ele>210.5</ele><time>2011-04-01T11:43:43Z</time></trkpt>
<trkpt lat="42.264362" lon="3.264758"><ele>210.3</ele><time>2011-04-01T11:43:48Z</time></trkpt>
<trkpt lat="42.264473" lon="3.265072"><ele>210.2</ele><time>2011-04-01T11:43:53Z</time></trkpt>
<trkpt lat="42.264527" lon="3.265405"><ele>210.1</ele><time>2011-04-01T11:43:58Z</time></trkpt>
<trkpt lat="42.264657" lon="3.265718"><ele>208.6</ele><time>2011-04-01T11:44:03Z</time></trkpt>
<trkpt lat="42.264957" lon="3.265757"><ele>207.5</ele><time>2011-04-01T11:44:08Z</time></trkpt>
<trkpt lat="42.265198" lon="3.265602"><ele>207.6</ele><time>2011-04-01T11:44:13Z</time></trkpt>
<trkpt lat="42.265408" lon="3.265428"><ele>208.1</ele><time>2011-04-01T11:44:18Z</time></trkpt>
<trkpt lat="42.265607" lon="3.265245"><ele>208.4</ele><time>2011-04-01T11:44:23Z</time></trkpt>
<trkpt lat="42.265797" lon="3.265045"><ele>208.5</ele><time>2011-04-01T11:44:28Z</time></trkpt>
<trkpt lat="42.265987" lon="3.264852"><ele>208.8</ele><time>2011-04-01T11:44:33Z</time></trkpt>
<trkpt lat="42.266175" lon="3.264632"><ele>208.8</ele><time>2011-04-01T11:44:38Z</time></trkpt>
<trkpt lat="42.266353" lon="3.264377"><ele>209.1</ele><time>2011-04-01T11:44:43Z</time></trkpt>
<trkpt lat="42.266518" lon="3.264123"><ele>209.5</ele><time>2011-04-01T11:44:48Z</time></trkpt>
<trkpt lat="42.266678" lon="3.263890"><ele>210.2</ele><time>2011-04-01T11:44:53Z</time></trkpt>
<trkpt lat="42.266842" lon="3.263700"><ele>210.9</ele><time>2011-04-01T11:44:58Z</time></trkpt>
<trkpt lat="42.267025" lon="3.263600"><ele>211.6</ele><time>2011-04-01T11:45:03Z</time></trkpt>
<trkpt lat="42.267200" lon="3.263597"><ele>212.2</ele><time>2011-04-01T11:45:08Z</time></trkpt>
<trkpt lat="42.267380" lon="3.263565"><ele>212.6</ele><time>2011-04-01T11:45:13Z</time></trkpt>
<trkpt lat="42.267567" lon="3.263488"><ele>213</ele><time>2011-04-01T11:45:18Z</time></trkpt>
<trkpt lat="42.267753" lon="3.263432"><ele>213.5</ele><time>2011-04-01T11:45:23Z</time></trkpt>
<trkpt lat="42.267928" lon="3.263498"><ele>213.5</ele><time>2011-04-01T11:45:28Z</time></trkpt>
<trkpt lat="42.267952" lon="3.263743"><ele>213.7</ele><time>2011-04-01T11:45:33Z</time></trkpt>
<trkpt lat="42.267990" lon="3.263983"><ele>214.3</ele><time>2011-04-01T11:45:38Z</time></trkpt>
<trkpt lat="42.268047" lon="3.264228"><ele>214.6</ele><time>2011-04-01T11:45:43Z</time></trkpt>
<trkpt lat="42.268108" lon="3.264498"><ele>214.9</ele><time>2011-04-01T11:45:48Z</time></trkpt>
<trkpt lat="42.268135" lon="3.264785"><ele>215.4</ele><time>2011-04-01T11:45:53Z</time></trkpt>
<trkpt lat="42.268120" lon="3.265048"><ele>216.3</ele><time>2011-04-01T11:45:58Z</time></trkpt>
<trkpt lat="42.268073" lon="3.265280"><ele>217.3</ele><time>2011-04-01T11:46:03Z</time></trkpt>
<trkpt lat="42.268078" lon="3.265523"><ele>218.2</ele><time>2011-04-01T11:46:08Z</time></trkpt>
<trkpt lat="42.268170" lon="3.265747"><ele>218.6</ele><time>2011-04-01T11:46:13Z</time></trkpt>
<trkpt lat="42.268360" lon="3.265883"><ele>217.9</ele><time>2011-04-01T11:46:18Z</time></trkpt>
<trkpt lat="42.268597" lon="3.265830"><ele>217.4</ele><time>2011-04-01T11:46:23Z</time></trkpt>
<trkpt lat="42.268792" lon="3.265898"><ele>217.7</ele><time>2011-04-01T11:46:28Z</time></trkpt>
<trkpt lat="42.268795" lon="3.266147"><ele>218.6</ele><time>2011-04-01T11:46:33Z</time></trkpt>
<trkpt lat="42.268665" lon="3.266372"><ele>218.5</ele><time>2011-04-01T11:46:38Z</time></trkpt>
<trkpt lat="42.268562" lon="3.266702"><ele>216.4</ele><time>2011-04-01T11:46:43Z</time></trkpt>
<trkpt lat="42.268452" lon="3.267117"><ele>213.2</ele><time>2011-04-01T11:46:48Z</time></trkpt>
<trkpt lat="42.268315" lon="3.267535"><ele>210</ele><time>2011-04-01T11:46:53Z</time></trkpt>
<trkpt lat="42.268437" lon="3.267822"><ele>207.7</ele><time>2011-04-01T11:46:58Z</time></trkpt>
<trkpt lat="42.268765" lon="3.267872"><ele>205</ele><time>2011-04-01T11:47:03Z</time></trkpt>
<trkpt lat="42.269108" lon="3.267740"><ele>201.6</ele><time>2011-04-01T11:47:08Z</time></trkpt>
<trkpt lat="42.269447" lon="3.267647"><ele>198.9</ele><time>2011-04-01T11:47:13Z</time></trkpt>
<trkpt lat="42.269780" lon="3.267627"><ele>196.2</ele><time>2011-04-01T11:47:18Z</time></trkpt>
<trkpt lat="42.270065" lon="3.267782"><ele>194</ele><time>2011-04-01T11:47:23Z</time></trkpt>
<trkpt lat="42.269967" lon="3.268093"><ele>194.3</ele><time>2011-04-01T11:47:28Z</time></trkpt>
<trkpt lat="42.270005" lon="3.268362"><ele>195</ele><time>2011-04-01T11:47:33Z</time></trkpt>
<trkpt lat="42.270263" lon="3.268352"><ele>195.1</ele><time>2011-04-01T11:47:38Z</time></trkpt>
<trkpt lat="42.270527" lon="3.268213"><ele>194.8</ele><time>2011-04-01T11:47:43Z</time></trkpt>
<trkpt lat="42.270798" lon="3.268117"><ele>194.5</ele><time>2011-04-01T11:47:48Z</time></trkpt>
<trkpt lat="42.271080" lon="3.268037"><ele>194</ele><time>2011-04-01T11:47:53Z</time></trkpt>
<trkpt lat="42.271347" lon="3.267875"><ele>192.2</ele><time>2011-04-01T11:47:58Z</time></trkpt>
<trkpt lat="42.271633" lon="3.267663"><ele>190.2</ele><time>2011-04-01T11:48:03Z</time></trkpt>
<trkpt lat="42.271847" lon="3.267350"><ele>189.2</ele><time>2011-04-01T11:48:08Z</time></trkpt>
<trkpt lat="42.272030" lon="3.267085"><ele>188.6</ele><time>2011-04-01T11:48:13Z</time></trkpt>
<trkpt lat="42.272282" lon="3.266925"><ele>187.4</ele><time>2011-04-01T11:48:18Z</time></trkpt>
<trkpt lat="42.272477" lon="3.266608"><ele>185.1</ele><time>2011-04-01T11:48:23Z</time></trkpt>
<trkpt lat="42.272530" lon="3.266137"><ele>183.4</ele><time>2011-04-01T11:48:28Z</time></trkpt>
<trkpt lat="42.272652" lon="3.265697"><ele>181.1</ele><time>2011-04-01T11:48:33Z</time></trkpt>
<trkpt lat="42.272697" lon="3.265313"><ele>179.9</ele><time>2011-04-01T11:48:38Z</time></trkpt>
<trkpt lat="42.272873" lon="3.265437"><ele>180.3</ele><time>2011-04-01T11:48:43Z</time></trkpt>
<trkpt lat="42.273040" lon="3.265705"><ele>179.5</ele><time>2011-04-01T11:48:48Z</time></trkpt>
<trkpt lat="42.273277" lon="3.265853"><ele>178.2</ele><time>2011-04-01T11:48:53Z</time></trkpt>
<trkpt lat="42.273498" lon="3.266117"><ele>177.6</ele><time>2011-04-01T11:48:58Z</time></trkpt>
<trkpt lat="42.273762" lon="3.266168"><ele>177.7</ele><time>2011-04-01T11:49:03Z</time></trkpt>
<trkpt lat="42.273975" lon="3.266007"><ele>177.8</ele><time>2011-04-01T11:49:08Z</time></trkpt>
<trkpt lat="42.274162" lon="3.265838"><ele>177.1</ele><time>2011-04-01T11:49:13Z</time></trkpt>
<trkpt lat="42.274338" lon="3.266112"><ele>175.5</ele><time>2011-04-01T11:49:18Z</time></trkpt>
<trkpt lat="42.274632" lon="3.266282"><ele>173</ele><time>2011-04-01T11:49:23Z</time></trkpt>
<trkpt lat="42.274952" lon="3.266472"><ele>169.8</ele><time>2011-04-01T11:49:28Z</time></trkpt>
<trkpt lat="42.275135" lon="3.266780"><ele>166.1</ele><time>2011-04-01T11:49:33Z</time></trkpt>
<trkpt lat="42.275005" lon="3.267238"><ele>162</ele><time>2011-04-01T11:49:38Z</time></trkpt>
<trkpt lat="42.275037" lon="3.267618"><ele>159.2</ele><time>2011-04-01T11:49:43Z</time></trkpt>
<trkpt lat="42.275298" lon="3.267557"><ele>156.2</ele><time>2011-04-01T11:49:48Z</time></trkpt>
<trkpt lat="42.275552" lon="3.267235"><ele>153.6</ele><time>2011-04-01T11:49:53Z</time></trkpt>
<trkpt lat="42.275807" lon="3.267095"><ele>151.6</ele><time>2011-04-01T11:49:58Z</time></trkpt>
<trkpt lat="42.276047" lon="3.266912"><ele>149.2</ele><time>2011-04-01T11:50:03Z</time></trkpt>
<trkpt lat="42.276028" lon="3.266492"><ele>146.2</ele><time>2011-04-01T11:50:08Z</time></trkpt>
<trkpt lat="42.276218" lon="3.266438"><ele>143.9</ele><time>2011-04-01T11:50:13Z</time></trkpt>
<trkpt lat="42.276393" lon="3.266778"><ele>140.9</ele><time>2011-04-01T11:50:18Z</time></trkpt>
<trkpt lat="42.276432" lon="3.267185"><ele>137.8</ele><time>2011-04-01T11:50:23Z</time></trkpt>
<trkpt lat="42.276402" lon="3.267537"><ele>135</ele><time>2011-04-01T11:50:28Z</time></trkpt>
<trkpt lat="42.276623" lon="3.267532"><ele>132.6</ele><time>2011-04-01T11:50:33Z</time></trkpt>
<trkpt lat="42.276852" lon="3.267245"><ele>131.1</ele><time>2011-04-01T11:50:38Z</time></trkpt>
<trkpt lat="42.276997" lon="3.266907"><ele>129.2</ele><time>2011-04-01T11:50:43Z</time></trkpt>
<trkpt lat="42.277240" lon="3.266930"><ele>126.8</ele><time>2011-04-01T11:50:48Z</time></trkpt>
<trkpt lat="42.277272" lon="3.267305"><ele>123.3</ele><time>2011-04-01T11:50:53Z</time></trkpt>
<trkpt lat="42.277183" lon="3.267715"><ele>120.9</ele><time>2011-04-01T11:50:58Z</time></trkpt>
<trkpt lat="42.277115" lon="3.268147"><ele>118.7</ele><time>2011-04-01T11:51:03Z</time></trkpt>
<trkpt lat="42.276970" lon="3.268512"><ele>116</ele><time>2011-04-01T11:51:08Z</time></trkpt>
<trkpt lat="42.276813" lon="3.268832"><ele>112.4</ele><time>2011-04-01T11:51:13Z</time></trkpt>
<trkpt lat="42.276882" lon="3.269152"><ele>108.8</ele><time>2011-04-01T11:51:18Z</time></trkpt>
<trkpt lat="42.277115" lon="3.269448"><ele>106.1</ele><time>2011-04-01T11:51:23Z</time></trkpt>
<trkpt lat="42.277378" lon="3.269532"><ele>105</ele><time>2011-04-01T11:51:28Z</time></trkpt>
<trkpt lat="42.277520" lon="3.269815"><ele>103.3</ele><time>2011-04-01T11:51:33Z</time></trkpt>
<trkpt lat="42.277713" lon="3.270097"><ele>101.7</ele><time>2011-04-01T11:51:38Z</time></trkpt>
<trkpt lat="42.277882" lon="3.270368"><ele>99.3</ele><time>2011-04-01T11:51:43Z</time></trkpt>
<trkpt lat="42.277852" lon="3.270765"><ele>96.5</ele><time>2011-04-01T11:51:48Z</time></trkpt>
<trkpt lat="42.277997" lon="3.270942"><ele>94.6</ele><time>2011-04-01T11:51:53Z</time></trkpt>
<trkpt lat="42.278062" lon="3.270600"><ele>91.9</ele><time>2011-04-01T11:51:58Z</time></trkpt>
<trkpt lat="42.278282" lon="3.270340"><ele>89.3</ele><time>2011-04-01T11:52:03Z</time></trkpt>
<trkpt lat="42.278495" lon="3.270220"><ele>86.7</ele><time>2011-04-01T11:52:08Z</time></trkpt>
<trkpt lat="42.278640" lon="3.270515"><ele>84.5</ele><time>2011-04-01T11:52:13Z</time></trkpt>
<trkpt lat="42.278855" lon="3.270425"><ele>83.5</ele><time>2011-04-01T11:52:18Z</time></trkpt>
<trkpt lat="42.278992" lon="3.270578"><ele>80.4</ele><time>2011-04-01T11:52:23Z</time></trkpt>
<trkpt lat="42.278968" lon="3.270962"><ele>77.2</ele><time>2011-04-01T11:52:28Z</time></trkpt>
<trkpt lat="42.278838" lon="3.271332"><ele>73.9</ele><time>2011-04-01T11:52:33Z</time></trkpt>
<trkpt lat="42.278968" lon="3.271605"><ele>71.8</ele><time>2011-04-01T11:52:38Z</time></trkpt>
<trkpt lat="42.279118" lon="3.271952"><ele>68.7</ele><time>2011-04-01T11:52:43Z</time></trkpt>
<trkpt lat="42.279297" lon="3.272290"><ele>65</ele><time>2011-04-01T11:52:48Z</time></trkpt>
<trkpt lat="42.279377" lon="3.272713"><ele>61.1</ele><time>2011-04-01T11:52:53Z</time></trkpt>
<trkpt lat="42.279607" lon="3.272943"><ele>58.8</ele><time>2011-04-01T11:52:58Z</time></trkpt>
<trkpt lat="42.279785" lon="3.273220"><ele>55.6</ele><time>2011-04-01T11:53:03Z</time></trkpt>
<trkpt lat="42.279927" lon="3.273613"><ele>52.4</ele><time>2011-04-01T11:53:08Z</time></trkpt>
<trkpt lat="42.279915" lon="3.274063"><ele>49.7</ele><time>2011-04-01T11:53:13Z</time></trkpt>
<trkpt lat="42.279785" lon="3.274487"><ele>46.5</ele><time>2011-04-01T11:53:18Z</time></trkpt>
<trkpt lat="42.279670" lon="3.274778"><ele>43.3</ele><time>2011-04-01T11:53:23Z</time></trkpt>
<trkpt lat="42.279862" lon="3.274882"><ele>42</ele><time>2011-04-01T11:53:28Z</time></trkpt>
<trkpt lat="42.280152" lon="3.274662"><ele>39.7</ele><time>2011-04-01T11:53:33Z</time></trkpt>
<trkpt lat="42.280453" lon="3.274462"><ele>37.3</ele><time>2011-04-01T11:53:38Z</time></trkpt>
<trkpt lat="42.280617" lon="3.274165"><ele>35.2</ele><time>2011-04-01T11:53:43Z</time></trkpt>
<trkpt lat="42.280658" lon="3.273890"><ele>32.7</ele><time>2011-04-01T11:53:48Z</time></trkpt>
<trkpt lat="42.280857" lon="3.273980"><ele>29.5</ele><time>2011-04-01T11:53:53Z</time></trkpt>
<trkpt lat="42.281087" lon="3.274117"><ele>25.9</ele><time>2011-04-01T11:53:58Z</time></trkpt>
<trkpt lat="42.281158" lon="3.274423"><ele>22.4</ele><time>2011-04-01T11:54:03Z</time></trkpt>
<trkpt lat="42.281140" lon="3.274837"><ele>18.5</ele><time>2011-04-01T11:54:08Z</time></trkpt>
<trkpt lat="42.281212" lon="3.275217"><ele>15.1</ele><time>2011-04-01T11:54:13Z</time></trkpt>
<trkpt lat="42.281250" lon="3.275440"><ele>13.4</ele><time>2011-04-01T11:54:18Z</time></trkpt>
<trkpt lat="42.281268" lon="3.275457"><ele>13</ele><time>2011-04-01T11:54:23Z</time></trkpt>
<trkpt lat="42.281268" lon="3.275455"><ele>13.3</ele><time>2011-04-01T11:54:28Z</time></trkpt>
<trkpt lat="42.281273" lon="3.275450"><ele>14.5</ele><time>2011-04-01T11:54:33Z</time></trkpt>
<trkpt lat="42.281342" lon="3.275413"><ele>13.9</ele><time>2011-04-01T11:54:38Z</time></trkpt>
<trkpt lat="42.281532" lon="3.275480"><ele>11.8</ele><time>2011-04-01T11:54:43Z</time></trkpt>
<trkpt lat="42.281712" lon="3.275567"><ele>10.3</ele><time>2011-04-01T11:54:48Z</time></trkpt>
<trkpt lat="42.281975" lon="3.275618"><ele>8.1</ele><time>2011-04-01T11:54:53Z</time></trkpt>
<trkpt lat="42.282253" lon="3.275640"><ele>6</ele><time>2011-04-01T11:54:58Z</time></trkpt>
<trkpt lat="42.282502" lon="3.275525"><ele>2.6</ele><time>2011-04-01T11:55:03Z</time></trkpt>
<trkpt lat="42.282753" lon="3.275513"><ele>0.9</ele><time>2011-04-01T11:55:08Z</time></trkpt>
<trkpt lat="42.283005" lon="3.275650"><ele>-1.1</ele><time>2011-04-01T11:55:13Z</time></trkpt>
<trkpt lat="42.283173" lon="3.275825"><ele>-1.9</ele><time>2011-04-01T11:55:18Z</time></trkpt>
<trkpt lat="42.283375" lon="3.275828"><ele>-1.9</ele><time>2011-04-01T11:55:23Z</time></trkpt>
<trkpt lat="42.283600" lon="3.275727"><ele>-2.1</ele><time>2011-04-01T11:55:28Z</time></trkpt>
<trkpt lat="42.283843" lon="3.275563"><ele>-2.2</ele><time>2011-04-01T11:55:33Z</time></trkpt>
<trkpt lat="42.284058" lon="3.275375"><ele>-1.6</ele><time>2011-04-01T11:55:38Z</time></trkpt>
<trkpt lat="42.284275" lon="3.275270"><ele>-1</ele><time>2011-04-01T11:55:43Z</time></trkpt>
<trkpt lat="42.284492" lon="3.275278"><ele>-0.2</ele><time>2011-04-01T11:55:48Z</time></trkpt>
<trkpt lat="42.284698" lon="3.275347"><ele>0.3</ele><time>2011-04-01T11:55:53Z</time></trkpt>
<trkpt lat="42.284863" lon="3.275473"><ele>1.1</ele><time>2011-04-01T11:55:58Z</time></trkpt>
<trkpt lat="42.284958" lon="3.275637"><ele>3.9</ele><time>2011-04-01T11:56:03Z</time></trkpt>
<trkpt lat="42.285115" lon="3.275718"><ele>5.6</ele><time>2011-04-01T11:56:08Z</time></trkpt>
<trkpt lat="42.285260" lon="3.275648"><ele>6</ele><time>2011-04-01T11:56:13Z</time></trkpt>
<trkpt lat="42.285323" lon="3.275548"><ele>6.7</ele><time>2011-04-01T11:56:18Z</time></trkpt>
<trkpt lat="42.285335" lon="3.275452"><ele>8.5</ele><time>2011-04-01T11:56:23Z</time></trkpt>
<trkpt lat="42.285335" lon="3.275355"><ele>10</ele><time>2011-04-01T11:56:28Z</time></trkpt>
<trkpt lat="42.285332" lon="3.275263"><ele>10.9</ele><time>2011-04-01T11:56:33Z</time></trkpt>
<trkpt lat="42.285358" lon="3.275165"><ele>11.8</ele><time>2011-04-01T11:56:38Z</time></trkpt>
<trkpt lat="42.285412" lon="3.275092"><ele>12.8</ele><time>2011-04-01T11:56:43Z</time></trkpt>
<trkpt lat="42.285462" lon="3.275015"><ele>13.7</ele><time>2011-04-01T11:56:48Z</time></trkpt>
<trkpt lat="42.285515" lon="3.274930"><ele>14.6</ele><time>2011-04-01T11:56:53Z</time></trkpt>
<trkpt lat="42.285553" lon="3.274837"><ele>15.8</ele><time>2011-04-01T11:56:58Z</time></trkpt>
<trkpt lat="42.285607" lon="3.274762"><ele>16.4</ele><time>2011-04-01T11:57:03Z</time></trkpt>
<trkpt lat="42.285728" lon="3.274875"><ele>15.2</ele><time>2011-04-01T11:57:08Z</time></trkpt>
<trkpt lat="42.285865" lon="3.275045"><ele>15.2</ele><time>2011-04-01T11:57:13Z</time></trkpt>
<trkpt lat="42.285962" lon="3.275162"><ele>15.3</ele><time>2011-04-01T11:57:18Z</time></trkpt>
<trkpt lat="42.286022" lon="3.275260"><ele>15.3</ele><time>2011-04-01T11:57:23Z</time></trkpt>
<trkpt lat="42.286092" lon="3.275352"><ele>15.5</ele><time>2011-04-01T11:57:28Z</time></trkpt>
<trkpt lat="42.286178" lon="3.275375"><ele>15.8</ele><time>2011-04-01T11:57:33Z</time></trkpt>
<trkpt lat="42.286232" lon="3.275288"><ele>17.1</ele><time>2011-04-01T11:57:38Z</time></trkpt>
<trkpt lat="42.286282" lon="3.275202"><ele>18.5</ele><time>2011-04-01T11:57:43Z</time></trkpt>
<trkpt lat="42.286335" lon="3.275123"><ele>19.9</ele><time>2011-04-01T11:57:48Z</time></trkpt>
<trkpt lat="42.286388" lon="3.275035"><ele>21.2</ele><time>2011-04-01T11:57:53Z</time></trkpt>
<trkpt lat="42.286427" lon="3.274938"><ele>22.5</ele><time>2011-04-01T11:57:58Z</time></trkpt>
<trkpt lat="42.286468" lon="3.274845"><ele>23.8</ele><time>2011-04-01T11:58:03Z</time></trkpt>
<trkpt lat="42.286537" lon="3.274778"><ele>24.8</ele><time>2011-04-01T11:58:08Z</time></trkpt>
<trkpt lat="42.286687" lon="3.274880"><ele>22.5</ele><time>2011-04-01T11:58:13Z</time></trkpt>
<trkpt lat="42.286850" lon="3.274977"><ele>19.7</ele><time>2011-04-01T11:58:18Z</time></trkpt>
<trkpt lat="42.286930" lon="3.275102"><ele>16.9</ele><time>2011-04-01T11:58:23Z</time></trkpt>
<trkpt lat="42.287033" lon="3.275078"><ele>15.1</ele><time>2011-04-01T11:58:28Z</time></trkpt>
<trkpt lat="42.287163" lon="3.274908"><ele>14.5</ele><time>2011-04-01T11:58:33Z</time></trkpt>
<trkpt lat="42.287323" lon="3.274718"><ele>13.9</ele><time>2011-04-01T11:58:38Z</time></trkpt>
<trkpt lat="42.287510" lon="3.274513"><ele>13.9</ele><time>2011-04-01T11:58:43Z</time></trkpt>
<trkpt lat="42.287682" lon="3.274338"><ele>14.9</ele><time>2011-04-01T11:58:48Z</time></trkpt>
<trkpt lat="42.287812" lon="3.274187"><ele>17.1</ele><time>2011-04-01T11:58:53Z</time></trkpt>
<trkpt lat="42.287983" lon="3.274040"><ele>17.5</ele><time>2011-04-01T11:58:58Z</time></trkpt>
<trkpt lat="42.288200" lon="3.273913"><ele>15.8</ele><time>2011-04-01T11:59:03Z</time></trkpt>
<trkpt lat="42.288433" lon="3.273822"><ele>13.3</ele><time>2011-04-01T11:59:08Z</time></trkpt>
<trkpt lat="42.288575" lon="3.273810"><ele>12.5</ele><time>2011-04-01T11:59:13Z</time></trkpt>
<trkpt lat="42.288715" lon="3.273922"><ele>9.8</ele><time>2011-04-01T11:59:18Z</time></trkpt>
<trkpt lat="42.288762" lon="3.274042"><ele>8.7</ele><time>2011-04-01T11:59:23Z</time></trkpt>
<trkpt lat="42.288780" lon="3.274118"><ele>8.9</ele><time>2011-04-01T11:59:28Z</time></trkpt>
<trkpt lat="42.288810" lon="3.274203"><ele>8.8</ele><time>2011-04-01T11:59:33Z</time></trkpt>
<trkpt lat="42.288937" lon="3.274283"><ele>7.7</ele><time>2011-04-01T11:59:38Z</time></trkpt>
<trkpt lat="42.289147" lon="3.274275"><ele>6.6</ele><time>2011-04-01T11:59:43Z</time></trkpt>
<trkpt lat="42.289342" lon="3.274277"><ele>5.9</ele><time>2011-04-01T11:59:48Z</time></trkpt>
<trkpt lat="42.289528" lon="3.274272"><ele>3.9</ele><time>2011-04-01T11:59:53Z</time></trkpt>
<trkpt lat="42.289745" lon="3.274272"><ele>4</ele><time>2011-04-01T11:59:58Z</time></trkpt>
<trkpt lat="42.289905" lon="3.274267"><ele>4.5</ele><time>2011-04-01T12:00:03Z</time></trkpt>
<trkpt lat="42.289967" lon="3.274432"><ele>4.6</ele><time>2011-04-01T12:00:08Z</time></trkpt>
<trkpt lat="42.289990" lon="3.274598"><ele>4.4</ele><time>2011-04-01T12:00:13Z</time></trkpt>
<trkpt lat="42.289997" lon="3.274673"><ele>4.2</ele><time>2011-04-01T12:00:18Z</time></trkpt>
<trkpt lat="42.290065" lon="3.274910"><ele>3.7</ele><time>2011-04-01T12:00:23Z</time></trkpt>
<trkpt lat="42.290092" lon="3.275212"><ele>3.4</ele><time>2011-04-01T12:00:28Z</time></trkpt>
<trkpt lat="42.290055" lon="3.275513"><ele>3.3</ele><time>2011-04-01T12:00:33Z</time></trkpt>
<trkpt lat="42.290012" lon="3.275792"><ele>3</ele><time>2011-04-01T12:00:38Z</time></trkpt>
<trkpt lat="42.290073" lon="3.275997"><ele>3.2</ele><time>2011-04-01T12:00:43Z</time></trkpt>
<trkpt lat="42.290130" lon="3.276115"><ele>5.6</ele><time>2011-04-01T12:00:48Z</time></trkpt>
<trkpt lat="42.290157" lon="3.276227"><ele>7.2</ele><time>2011-04-01T12:00:53Z</time></trkpt>
<trkpt lat="42.290173" lon="3.276335"><ele>8.8</ele><time>2011-04-01T12:00:58Z</time></trkpt>
<trkpt lat="42.290192" lon="3.276443"><ele>10.6</ele><time>2011-04-01T12:01:03Z</time></trkpt>
<trkpt lat="42.290207" lon="3.276557"><ele>12.8</ele><time>2011-04-01T12:01:08Z</time></trkpt>
<trkpt lat="42.290195" lon="3.276668"><ele>14.7</ele><time>2011-04-01T12:01:13Z</time></trkpt>
<trkpt lat="42.290183" lon="3.276787"><ele>15.5</ele><time>2011-04-01T12:01:18Z</time></trkpt>
<trkpt lat="42.290188" lon="3.276923"><ele>16.1</ele><time>2011-04-01T12:01:23Z</time></trkpt>
<trkpt lat="42.290210" lon="3.277070"><ele>17</ele><time>2011-04-01T12:01:28Z</time></trkpt>
<trkpt lat="42.290253" lon="3.277207"><ele>17.5</ele><time>2011-04-01T12:01:33Z</time></trkpt>
<trkpt lat="42.290283" lon="3.277382"><ele>17.1</ele><time>2011-04-01T12:01:38Z</time></trkpt>
<trkpt lat="42.290348" lon="3.277567"><ele>16.7</ele><time>2011-04-01T12:01:43Z</time></trkpt>
<trkpt lat="42.290428" lon="3.277762"><ele>16.1</ele><time>2011-04-01T12:01:48Z</time></trkpt>
<trkpt lat="42.290543" lon="3.277972"><ele>14.6</ele><time>2011-04-01T12:01:53Z</time></trkpt>
<trkpt lat="42.290707" lon="3.278250"><ele>9.3</ele><time>2011-04-01T12:01:58Z</time></trkpt>
<trkpt lat="42.290848" lon="3.278525"><ele>6.7</ele><time>2011-04-01T12:02:03Z</time></trkpt>
<trkpt lat="42.290802" lon="3.278735"><ele>7.1</ele><time>2011-04-01T12:02:08Z</time></trkpt>
<trkpt lat="42.290653" lon="3.278777"><ele>8.5</ele><time>2011-04-01T12:02:13Z</time></trkpt>
<trkpt lat="42.290535" lon="3.278873"><ele>9.7</ele><time>2011-04-01T12:02:18Z</time></trkpt>
<trkpt lat="42.290425" lon="3.278982"><ele>11.3</ele><time>2011-04-01T12:02:23Z</time></trkpt>
<trkpt lat="42.290337" lon="3.279085"><ele>12.8</ele><time>2011-04-01T12:02:28Z</time></trkpt>
<trkpt lat="42.290242" lon="3.279165"><ele>14</ele><time>2011-04-01T12:02:33Z</time></trkpt>
<trkpt lat="42.290112" lon="3.279265"><ele>13.3</ele><time>2011-04-01T12:02:38Z</time></trkpt>
<trkpt lat="42.289958" lon="3.279360"><ele>11.6</ele><time>2011-04-01T12:02:43Z</time></trkpt>
<trkpt lat="42.289825" lon="3.279440"><ele>8.1</ele><time>2011-04-01T12:02:48Z</time></trkpt>
<trkpt lat="42.289803" lon="3.279445"><ele>7.1</ele><time>2011-04-01T12:02:53Z</time></trkpt>
<trkpt lat="42.289807" lon="3.279422"><ele>5.8</ele><time>2011-04-01T12:02:58Z</time></trkpt>
<trkpt lat="42.289825" lon="3.279435"><ele>3.9</ele><time>2011-04-01T12:03:03Z</time></trkpt>
<trkpt lat="42.289803" lon="3.279428"><ele>6.6</ele><time>2011-04-01T12:03:08Z</time></trkpt>
<trkpt lat="42.289772" lon="3.279412"><ele>11.1</ele><time>2011-04-01T12:03:13Z</time></trkpt>
<trkpt lat="42.289757" lon="3.279400"><ele>14.2</ele><time>2011-04-01T12:03:18Z</time></trkpt>
<trkpt lat="42.289753" lon="3.279362"><ele>13.4</ele><time>2011-04-01T12:03:23Z</time></trkpt>
<trkpt lat="42.289738" lon="3.279383"><ele>16.2</ele><time>2011-04-01T12:03:28Z</time></trkpt>
<trkpt lat="42.289760" lon="3.279443"><ele>15.5</ele><time>2011-04-01T12:03:33Z</time></trkpt>
<trkpt lat="42.289748" lon="3.279480"><ele>17.9</ele><time>2011-04-01T12:03:38Z</time></trkpt>
<trkpt lat="42.289722" lon="3.279528"><ele>21.1</ele><time>2011-04-01T12:03:43Z</time></trkpt>
<trkpt lat="42.289703" lon="3.279530"><ele>24.4</ele><time>2011-04-01T12:03:50Z</time></trkpt>
<trkpt lat="42.289757" lon="3.279457"><ele>16.2</ele><time>2011-04-01T12:03:55Z</time></trkpt>
<trkpt lat="42.289777" lon="3.279440"><ele>13.5</ele><time>2011-04-01T12:04:00Z</time></trkpt>
<trkpt lat="42.289768" lon="3.279425"><ele>13.9</ele><time>2011-04-01T12:04:05Z</time></trkpt>
<trkpt lat="42.289787" lon="3.279445"><ele>12.7</ele><time>2011-04-01T12:04:10Z</time></trkpt>
<trkpt lat="42.289792" lon="3.279455"><ele>13</ele><time>2011-04-01T12:04:15Z</time></trkpt>
<trkpt lat="42.289772" lon="3.279442"><ele>15.4</ele><time>2011-04-01T12:04:20Z</time></trkpt>
<trkpt lat="42.289772" lon="3.279443"><ele>14.3</ele><time>2011-04-01T12:04:25Z</time></trkpt>
<trkpt lat="42.289760" lon="3.279433"><ele>10.8</ele><time>2011-04-01T12:04:30Z</time></trkpt>
<trkpt lat="42.289765" lon="3.279435"><ele>8.7</ele><time>2011-04-01T12:04:35Z</time></trkpt>
<trkpt lat="42.289783" lon="3.279477"><ele>9.7</ele><time>2011-04-01T12:04:40Z</time></trkpt>
<trkpt lat="42.289783" lon="3.279460"><ele>9.2</ele><time>2011-04-01T12:04:45Z</time></trkpt>
<trkpt lat="42.289748" lon="3.279473"><ele>10.3</ele><time>2011-04-01T12:04:50Z</time></trkpt>
<trkpt lat="42.289748" lon="3.279462"><ele>8.7</ele><time>2011-04-01T12:04:55Z</time></trkpt>
<trkpt lat="42.289753" lon="3.279452"><ele>10.2</ele><time>2011-04-01T12:05:00Z</time></trkpt>
<trkpt lat="42.289727" lon="3.279435"><ele>15</ele><time>2011-04-01T12:05:07Z</time></trkpt>
</trkseg></trk></gpx>